[[{"header":{"parameterUnit":"m.s-1","parameterCategory":1,"la1":30.6,"la2":28.766,"lo1":-90.7593,"lo2":-88.6598,"dx":0.0162,"dy":0.0183,"nx":116,"ny":114,"refTime":"2023-02-10T06:00:00:Z","depth":0,"parameterNumber":2,"parameterNumberName":"U-component_of_WINDS"},"data":[0.0,0.0,0.0,0.0,0.0,0.0,0.0,0.0,0.0,0.0,0.0,0.0,0.0,0.0,0.0,0.0,0.0,0.0,0.0,0.0,0.0,0.0,0.0,0.0,0.0,0.0,0.0,0.0,0.0,0.0,0.0,0.0,0.0,0.0,0.0,0.0,0.0,0.0,0.0,0.0,0.0,0.0,0.0,0.0,0.0,0.0,0.0,0.0,0.0,0.0,0.0,0.0,0.0,0.0,0.0,0.0,0.0,0.0,0.0,0.0,0.0,0.0,0.0,0.0,0.0,0.0,0.0,0.0,0.0,0.0,0.0,0.0,0.0,0.0,0.0,0.0,0.0,0.0,0.0,0.0,0.0,0.0,0.0,0.0,0.0,0.0,0.0,0.0,0.0,0.0,0.0,0.0,0.0,0.0,0.0,0.0,0.0,0.0,0.0,0.0,0.0,0.0,0.0,0.0,0.0,0.0,0.0,0.0,0.0,0.0,0.0,0.0,0.0,0.0,0.0,0.0,0.0,0.0,0.0,0.0,0.0,0.0,0.0,0.0,0.0,0.0,0.0,0.0,0.0,0.0,0.0,0.0,0.0,0.0,0.0,0.0,0.0,0.0,0.0,0.0,0.0,0.0,0.0,0.0,0.0,0.0,0.0,0.0,0.0,0.0,0.0,0.0,0.0,0.0,0.0,0.0,0.0,0.0,0.0,0.0,0.0,0.0,0.0,0.0,0.0,0.0,0.0,0.0,0.0,0.0,0.0,0.0,0.0,0.0,0.0,0.0,0.0,0.0,0.0,0.0,0.0,0.0,0.0,0.0,0.0,0.0,0.0,0.0,0.0,0.0,0.0,0.0,0.0,0.0,0.0,0.0,0.0,0.0,0.0,0.0,0.0,0.0,0.0,0.0,0.0,0.0,0.0,0.0,0.0,0.0,0.0,0.0,0.0,0.0,0.0,0.0,0.0,0.0,0.0,0.0,0.0,0.0,0.0,0.0,0.0,0.0,0.0,0.0,0.0,0.0,0.0,0.0,0.0,0.0,0.0,0.0,0.0,0.0,0.0,0.0,0.0,0.0,0.0,0.0,0.0,0.0,0.0,0.0,0.0,0.0,0.0,0.0,0.0,0.0,0.0,0.0,0.0,0.0,0.0,0.0,0.0,0.0,0.0,0.0,0.0,0.0,0.0,0.0,0.0,0.0,0.0,0.0,0.0,0.0,0.0,0.0,0.0,0.0,0.0,0.0,0.0,0.0,0.0,0.0,0.0,0.0,0.0,0.0,0.0,0.0,0.0,0.0,0.0,0.0,0.0,0.0,0.0,0.0,0.0,0.0,0.0,0.0,0.0,0.0,0.0,0.0,0.0,0.0,0.0,0.0,0.0,0.0,0.0,0.0,0.0,0.0,0.0,0.0,0.0,0.0,0.0,0.0,0.0,0.0,0.0,0.0,0.0,0.0,0.0,0.0,0.0,0.0,0.0,0.0,0.0,0.0,0.0,0.0,0.0,0.0,0.0,0.0,0.0,0.0,0.0,0.0,0.0,0.0,0.0,0.0,0.0,0.0,0.0,0.0,0.0,0.0,0.0,0.0,0.0,0.0,0.0,0.0,0.0,0.0,0.0,0.0,0.0,0.0,0.0,0.0,0.0,0.0,0.0,0.0,0.0,0.0,0.0,0.0,0.0,0.0,0.0,0.0,0.0,0.0,0.0,0.0,0.0,0.0,0.0,0.0,0.0,0.0,0.0,0.0,0.0,0.0,0.0,0.0,0.0,0.0,0.0,0.0,0.0,0.0,0.0,0.0,0.0,0.0,0.0,0.0,0.0,0.0,0.0,0.0,0.0,0.0,0.0,0.0,0.0,0.0,0.0,0.0,0.0,0.0,0.0,0.0,0.0,0.0,0.0,0.0,0.0,0.0,0.0,0.0,0.0,0.0,0.0,0.0,0.0,0.0,0.0,0.0,0.0,0.0,0.0,0.0,0.0,0.0,0.0,0.0,0.0,0.0,0.0,0.0,0.0,0.0,0.0,0.0,0.0,0.0,0.0,0.0,0.0,0.0,0.0,0.0,0.0,0.0,0.0,0.0,0.0,0.0,0.0,0.0,0.0,0.0,0.0,0.0,0.0,0.0,0.0,0.0,0.0,0.0,0.0,0.0,0.0,0.0,0.0,0.0,0.0,0.0,0.0,0.0,0.0,0.0,0.0,0.0,0.0,0.0,0.0,0.0,0.0,0.0,0.0,0.0,0.0,0.0,0.0,0.0,0.0,0.0,0.0,0.0,0.0,0.0,0.0,0.0,0.0,0.0,0.0,0.0,0.0,0.0,0.0,0.0,0.0,0.0,0.0,0.0,0.0,0.0,0.0,0.0,0.0,0.0,0.0,0.0,0.0,0.0,0.0,0.0,0.0,0.0,0.0,0.0,0.0,0.0,0.0,0.0,0.0,0.0,0.0,0.0,0.0,0.0,0.0,0.0,0.0,0.0,0.0,0.0,0.0,0.0,0.0,0.0,0.0,0.0,0.0,0.0,0.0,0.0,0.0,0.0,0.0,0.0,0.0,0.0,0.0,0.0,0.0,0.0,0.0,0.0,0.0,0.0,0.0,0.0,0.0,0.0,0.0,0.0,0.0,0.0,0.0,0.0,0.0,0.0,0.0,0.0,0.0,0.0,0.0,0.0,0.0,0.0,0.0,0.0,0.0,0.0,0.0,0.0,0.0,0.0,0.0,0.0,0.0,0.0,0.0,0.0,0.0,0.0,0.0,0.0,0.0,0.0,0.0,0.0,0.0,0.0,0.0,0.0,0.0,0.0,0.0,0.0,0.0,0.0,0.0,0.0,0.0,0.0,0.0,0.0,0.0,0.0,0.0,0.0,0.0,0.0,0.0,0.0,0.0,0.0,0.0,0.0,0.0,0.0,0.0,0.0,0.0,0.0,0.0,0.0,0.0,0.0,0.0,0.0,0.0,0.0,0.0,0.0,0.0,0.0,0.0,0.0,0.0,0.0,0.0,0.0,0.0,0.0,0.0,0.0,0.0,0.0,0.0,0.0,0.0,0.0,0.0,0.0,0.0,0.0,0.0,0.0,0.0,0.0,0.0,0.0,0.0,0.0,0.0,0.0,0.0,0.0,0.0,0.0,0.0,0.0,0.0,0.0,0.0,0.0,0.0,0.0,0.0,0.0,0.0,0.0,0.0,0.0,0.0,0.0,0.0,0.0,0.0,0.0,0.0,0.0,0.0,0.0,0.0,0.0,0.0,0.0,0.0,0.0,0.0,0.0,0.0,0.0,0.0,0.0,0.0,0.0,0.0,0.0,0.0,0.0,0.0,0.0,0.0,0.0,0.0,0.0,0.0,0.0,0.0,0.0,0.0,0.0,0.0,0.0,0.0,0.0,0.0,0.0,0.0,0.0,0.0,0.0,0.0,0.0,0.0,0.0,0.0,0.0,0.0,0.0,0.0,0.0,0.0,0.0,0.0,0.0,0.0,0.0,0.0,0.0,0.0,0.0,0.0,0.0,0.0,0.0,0.0,0.0,0.0,0.0,0.0,0.0,0.0,0.0,0.0,0.0,0.0,0.0,0.0,0.0,0.0,0.0,0.0,0.0,0.0,0.0,0.0,0.0,0.0,0.0,0.0,0.0,0.0,0.0,0.0,0.0,0.0,0.0,0.0,0.0,0.0,0.0,0.0,0.0,0.0,0.0,0.0,0.0,0.0,0.0,0.0,0.0,0.0,0.0,0.0,0.0,0.0,0.0,0.0,0.0,0.0,0.0,0.0,0.0,0.0,0.0,0.0,0.0,0.0,0.0,0.0,0.0,0.0,0.0,0.0,0.0,0.0,0.0,0.0,0.0,0.0,0.0,0.0,0.0,0.0,0.0,0.0,0.0,0.0,0.0,0.0,0.0,0.0,0.0,0.0,0.0,0.0,0.0,0.0,0.0,0.0,0.0,0.0,0.0,0.0,0.0,0.0,0.0,0.0,0.0,0.0,0.0,0.0,0.0,0.0,0.0,0.0,0.0,0.0,0.0,0.0,0.0,0.0,0.0,0.0,0.0,0.0,0.0,0.0,0.0,0.0,0.0,0.0,0.0,0.0,0.0,0.0,0.0,0.0,0.0,0.0,0.0,0.0,0.0,0.0,0.0,0.0,0.0,0.0,0.0,0.0,0.0,0.0,0.0,0.0,0.0,0.0,0.0,0.0,0.0,0.0,0.0,0.0,0.0,0.0,0.0,0.0,0.0,0.0,0.0,0.0,0.0,0.0,0.0,0.0,0.0,0.0,0.0,0.0,0.0,0.0,0.0,0.0,0.0,0.0,0.0,0.0,0.0,0.0,0.0,0.0,0.0,0.0,0.0,0.0,0.0,0.0,0.0,0.0,0.0,0.0,0.0,0.0,0.0,0.0,0.0,0.0,0.0,0.0,0.0,0.0,0.0,0.0,0.0,0.0,0.0,0.0,0.0,0.0,0.0,0.0,0.0,0.0,0.0,0.0,0.0,0.0,0.0,0.0,0.0,0.0,0.0,0.0,0.0,0.0,0.0,0.0,0.0,0.0,0.0,0.0,0.0,0.0,0.0,0.0,0.0,0.0,0.0,0.0,0.0,0.0,0.0,0.0,0.0,0.0,0.0,0.0,0.0,0.0,0.0,0.0,0.0,0.0,0.0,0.0,0.0,0.0,0.0,0.0,0.0,0.0,0.0,0.0,0.0,0.0,0.0,0.0,0.0,0.0,0.0,0.0,0.0,0.0,0.0,0.0,0.0,0.0,0.0,0.0,0.0,0.0,0.0,0.0,0.0,0.0,0.0,0.0,0.0,0.0,0.0,0.0,0.0,0.0,0.0,0.0,0.0,0.0,0.0,0.0,0.0,0.0,0.0,0.0,0.0,0.0,0.0,0.0,0.0,0.0,0.0,0.0,0.0,0.0,0.0,0.0,0.0,0.0,0.0,0.0,0.0,0.0,0.0,0.0,0.0,0.0,0.0,0.0,0.0,0.0,0.0,0.0,0.0,0.0,0.0,0.0,0.0,0.0,0.0,0.0,0.0,0.0,0.0,0.0,0.0,0.0,0.0,0.0,0.0,0.0,0.0,0.0,0.0,0.0,0.0,0.0,0.0,0.0,0.0,0.0,0.0,0.0,0.0,0.0,0.0,0.0,0.0,0.0,0.0,0.0,0.0,0.0,0.0,0.0,0.0,0.0,0.0,0.0,0.0,0.0,0.0,0.0,0.0,0.0,0.0,0.0,0.0,0.0,0.0,0.0,0.0,0.0,0.0,0.0,0.0,0.0,0.0,0.0,0.0,0.0,0.0,0.0,0.0,0.0,0.0,0.0,0.0,0.0,0.0,0.0,0.0,0.0,0.0,0.0,0.0,0.0,0.0,0.0,0.0,0.0,0.0,0.0,0.0,0.0,0.0,0.0,0.0,0.0,0.0,0.0,0.0,0.0,0.0,0.0,0.0,0.0,0.0,0.0,0.0,0.0,0.0,0.0,0.0,0.0,0.0,0.0,0.0,0.0,0.0,0.0,0.0,0.0,0.0,0.0,0.0,0.0,0.0,0.0,0.0,0.0,0.0,0.0,0.0,0.0,0.0,0.0,0.0,0.0,0.0,0.0,0.0,0.0,0.0,0.0,0.0,0.0,0.0,0.0,0.0,0.0,0.0,0.0,0.0,0.0,0.0,0.0,0.0,0.0,0.0,0.0,0.0,0.0,0.0,0.0,0.0,0.0,0.0,0.0,0.0,0.0,0.0,0.0,0.0,0.0,0.0,0.0,0.0,0.0,0.0,0.0,0.0,0.0,0.0,0.0,0.0,0.0,0.0,0.0,0.0,0.0,0.0,0.0,0.0,0.0,0.0,0.0,0.0,0.0,0.0,0.0,0.0,0.0,0.0,0.0,0.0,0.0,0.0,0.0,0.0,0.0,0.0,0.0,0.0,0.0,0.0,0.0,0.0,0.0,0.0,0.0,0.0,0.0,0.0,0.0,0.0,0.0,0.0,0.0,0.0,0.0,0.0,0.0,0.0,0.0,0.0,0.0,0.0,0.0,0.0,0.0,0.0,0.0,0.0,0.0,0.0,0.0,0.0,0.0,0.0,0.0,0.0,5.2136,0.0,0.0,0.0,0.0,0.0,0.0,0.0,0.0,0.0,0.0,0.0,0.0,0.0,0.0,0.0,0.0,0.0,0.0,0.0,0.0,0.0,0.0,0.0,0.0,0.0,0.0,0.0,0.0,0.0,0.0,0.0,0.0,0.0,0.0,0.0,0.0,0.0,0.0,0.0,0.0,0.0,0.0,0.0,0.0,0.0,0.0,0.0,0.0,0.0,0.0,0.0,0.0,0.0,0.0,0.0,0.0,0.0,0.0,0.0,0.0,0.0,0.0,0.0,0.0,0.0,0.0,0.0,0.0,0.0,0.0,0.0,0.0,0.0,0.0,0.0,0.0,0.0,0.0,0.0,0.0,0.0,0.0,0.0,0.0,0.0,0.0,0.0,0.0,0.0,0.0,0.0,0.0,0.0,0.0,0.0,0.0,0.0,0.0,0.0,0.0,0.0,0.0,0.0,0.0,0.0,0.0,0.0,0.0,0.0,0.0,0.0,0.0,0.0,0.0,0.0,0.0,5.2957,0.0,0.0,0.0,0.0,0.0,0.0,0.0,0.0,0.0,0.0,0.0,0.0,0.0,0.0,0.0,0.0,0.0,0.0,0.0,0.0,0.0,0.0,0.0,0.0,0.0,0.0,0.0,0.0,0.0,0.0,0.0,0.0,0.0,0.0,0.0,0.0,0.0,0.0,0.0,0.0,0.0,0.0,0.0,0.0,0.0,0.0,0.0,0.0,0.0,0.0,0.0,0.0,0.0,0.0,0.0,0.0,0.0,0.0,0.0,0.0,0.0,0.0,0.0,0.0,0.0,0.0,0.0,0.0,0.0,0.0,0.0,0.0,0.0,0.0,0.0,0.0,0.0,0.0,0.0,0.0,0.0,0.0,0.0,0.0,0.0,0.0,0.0,0.0,0.0,0.0,0.0,0.0,0.0,0.0,0.0,0.0,0.0,0.0,0.0,0.0,0.0,0.0,0.0,0.0,0.0,0.0,0.0,0.0,5.4436,5.5464,5.7005,5.6859,5.6969,5.7116,5.5303,5.3413,5.183,5.4326,0.0,0.0,0.0,0.0,0.0,0.0,0.0,0.0,0.0,0.0,0.0,0.0,0.0,0.0,0.0,0.0,0.0,0.0,0.0,0.0,0.0,0.0,0.0,0.0,0.0,0.0,0.0,0.0,0.0,0.0,0.0,0.0,0.0,0.0,0.0,0.0,0.0,0.0,4.7908,4.7352,4.7851,4.9112,4.9275,0.0,0.0,0.0,0.0,0.0,0.0,0.0,0.0,0.0,0.0,0.0,0.0,0.0,0.0,0.0,0.0,0.0,0.0,0.0,0.0,0.0,0.0,0.0,0.0,0.0,0.0,0.0,0.0,0.0,0.0,0.0,0.0,0.0,0.0,0.0,0.0,0.0,0.0,0.0,0.0,0.0,0.0,0.0,4.9009,4.8675,0.0,0.0,0.0,0.0,0.0,0.0,0.0,0.0,0.0,0.0,0.0,0.0,0.0,5.4069,5.6161,5.5464,5.5868,5.7336,5.6051,5.6271,5.7813,5.7116,5.7556,5.8841,5.7867,0.0,5.495,5.4656,0.0,0.0,0.0,0.0,0.0,0.0,0.0,0.0,0.0,0.0,0.0,0.0,0.0,0.0,0.0,0.0,0.0,0.0,0.0,0.0,0.0,0.0,0.0,0.0,0.0,0.0,0.0,0.0,0.0,0.0,0.0,0.0,0.0,0.0,0.0,0.0,4.8732,4.8135,4.8504,4.8184,4.8612,4.9622,4.9124,4.9972,5.1619,5.0929,0.0,0.0,0.0,0.0,0.0,0.0,0.0,0.0,0.0,0.0,0.0,0.0,0.0,0.0,0.0,0.0,0.0,0.0,0.0,0.0,0.0,0.0,0.0,0.0,0.0,0.0,0.0,0.0,0.0,0.0,0.0,0.0,0.0,0.0,0.0,0.0,0.0,0.0,0.0,5.0972,5.0601,4.9777,5.1169,5.216,0.0,0.0,0.0,0.0,0.0,0.0,0.0,0.0,0.0,5.4509,5.4987,5.5721,5.6785,5.7373,5.8217,5.9355,5.9098,5.9575,6.0713,6.0346,6.0823,6.1924,6.108,6.0052,5.8804,5.6638,5.5647,5.5427,0.0,0.0,0.0,0.0,5.6565,5.6859,0.0,0.0,0.0,0.0,0.0,0.0,0.0,0.0,0.0,0.0,0.0,0.0,0.0,0.0,0.0,4.6024,0.0,0.0,0.0,0.0,0.0,0.0,0.0,0.0,0.0,0.0,0.0,4.9644,4.9326,4.9247,4.9289,4.9661,5.0236,5.0947,5.0405,5.0515,5.1158,5.0732,5.0803,0.0,0.0,0.0,0.0,0.0,0.0,0.0,0.0,0.0,0.0,0.0,0.0,0.0,0.0,0.0,0.0,0.0,0.0,0.0,0.0,0.0,0.0,0.0,0.0,0.0,0.0,0.0,0.0,0.0,0.0,0.0,0.0,0.0,0.0,0.0,0.0,0.0,0.0,5.1565,5.1563,5.0331,5.161,5.2527,0.0,0.0,0.0,0.0,0.0,0.0,5.4106,5.5097,5.6014,5.6785,5.7409,5.8033,5.8657,6.0089,6.1263,6.2254,6.2879,6.3686,6.4677,6.4237,6.453,6.5264,6.42,6.3282,6.2254,5.8621,5.6418,5.5354,5.5537,5.5831,5.6271,5.6895,5.7483,5.7923,0.0,0.0,0.0,0.0,0.0,0.0,0.0,0.0,0.0,0.0,0.0,0.0,0.0,0.0,4.5293,4.5509,4.6794,4.79,0.0,0.0,0.0,0.0,0.0,0.0,0.0,0.0,0.0,4.8945,4.971,5.0062,5.0067,5.1488,5.257,5.3348,5.3281,5.2503,5.1112,4.9718,4.9907,5.12,0.0,0.0,0.0,0.0,0.0,0.0,0.0,0.0,0.0,0.0,0.0,0.0,0.0,0.0,0.0,0.0,0.0,0.0,0.0,0.0,0.0,0.0,0.0,0.0,0.0,0.0,0.0,0.0,0.0,0.0,0.0,0.0,0.0,0.0,0.0,0.0,0.0,0.0,0.0,4.8604,4.9921,0.0,0.0,0.0,0.0,5.3078,5.528,5.6602,5.6638,5.8107,5.9355,6.0126,6.0199,6.1337,6.3686,6.4567,6.5778,6.732,6.7357,6.8201,6.9669,6.8128,6.7871,6.8568,6.699,6.5852,6.4751,5.9905,5.7886,5.7666,5.6161,5.6528,5.7886,5.7923,5.796,5.7997,0.0,0.0,0.0,0.0,0.0,0.0,0.0,0.0,0.0,0.0,0.0,0.0,0.0,4.6337,4.629,4.688,4.6596,4.6515,4.684,0.0,0.0,0.0,0.0,0.0,0.0,0.0,5.014,5.1049,5.1361,5.2029,5.301,5.4025,5.4668,5.4938,5.4938,5.4093,5.2604,5.1082,5.0459,5.0496,5.0424,5.0854,0.0,0.0,0.0,0.0,0.0,0.0,0.0,0.0,0.0,0.0,0.0,0.0,0.0,0.0,0.0,0.0,0.0,0.0,0.0,0.0,0.0,0.0,0.0,0.0,0.0,0.0,0.0,0.0,0.0,0.0,0.0,0.0,0.0,0.0,0.0,0.0,0.0,5.2904,5.3995,0.0,5.4252,5.4289,5.4656,5.5464,5.6785,5.8033,5.9061,6.0162,6.163,6.3503,6.4053,6.5264,6.7173,6.7981,6.8678,6.9229,6.9229,6.9522,7.0073,6.9486,6.9376,6.9596,6.7981,6.71,6.6586,6.3282,6.097,5.9391,5.7776,5.7483,5.807,5.8584,5.9428,6.0236,0.0,0.0,0.0,0.0,0.0,0.0,0.0,0.0,0.0,0.0,0.0,4.5017,4.6625,4.6949,4.7258,4.7717,4.6737,4.6278,4.6786,0.0,0.0,0.0,5.1084,0.0,0.0,5.0585,5.1001,5.2248,5.3071,5.3991,5.5006,5.575,5.6089,5.6089,5.6325,5.5784,5.4532,5.3281,5.186,5.0503,5.042,5.0853,5.1403,0.0,0.0,0.0,0.0,0.0,0.0,0.0,0.0,0.0,0.0,0.0,0.0,0.0,0.0,0.0,0.0,0.0,0.0,0.0,0.0,0.0,0.0,0.0,0.0,0.0,0.0,0.0,0.0,0.0,0.0,0.0,0.0,0.0,0.0,0.0,5.4608,5.5882,5.6969,5.7519,5.7226,5.6712,5.6859,5.7923,5.9024,6.0456,6.2365,6.3209,6.464,6.6843,6.743,6.8348,6.9706,7.0257,7.0624,7.0917,7.0917,7.0917,7.0881,7.0624,7.0513,7.044,6.9082,6.8348,6.7944,6.6072,6.42,6.2254,6.0346,5.9612,5.9722,6.0566,6.152,6.2328,0.0,0.0,0.0,0.0,0.0,0.0,0.0,0.0,0.0,0.0,4.3507,4.3815,4.5407,4.6988,4.8003,4.8037,4.7293,4.7428,4.8883,4.7533,0.0,0.0,0.0,0.0,4.9084,5.1879,5.3038,5.2401,5.4668,5.575,5.5784,5.6494,5.6867,5.69,5.7577,5.7476,5.6799,5.6055,5.4059,5.1352,5.1285,5.1657,5.2275,0.0,0.0,0.0,0.0,0.0,0.0,0.0,0.0,0.0,0.0,0.0,0.0,0.0,0.0,0.0,0.0,0.0,0.0,0.0,0.0,0.0,0.0,0.0,0.0,0.0,0.0,0.0,0.0,0.0,0.0,0.0,0.0,0.0,5.2492,5.5434,5.7311,5.7014,5.84,5.9061,5.8253,5.818,5.8841,6.0456,6.2071,6.4016,6.6476,6.7357,6.8495,7.011,7.0146,7.055,7.1394,7.1358,7.1725,7.2496,7.2532,7.2532,7.2459,7.1725,7.1358,7.1321,7.0477,6.9706,6.8898,6.8091,6.7283,6.6329,6.387,6.2879,6.2989,6.3833,6.4127,6.398,0.0,0.0,0.0,0.0,0.0,0.0,0.0,0.0,0.0,0.0,4.364,4.4854,4.6999,4.8599,4.9729,5.027,4.8646,4.7767,4.8206,0.0,0.0,0.0,0.0,0.0,5.2122,5.2466,5.3277,5.4769,5.5953,5.6494,5.6528,5.7239,5.7881,5.8389,5.8051,5.778,5.7543,5.6799,5.5716,5.4329,5.2672,5.1828,5.1488,0.0,0.0,0.0,0.0,0.0,0.0,0.0,0.0,0.0,0.0,0.0,0.0,0.0,0.0,0.0,0.0,0.0,0.0,0.0,0.0,0.0,0.0,0.0,0.0,0.0,0.0,0.0,0.0,0.0,0.0,0.0,0.0,5.3801,5.5423,5.6897,5.8657,6.0896,6.2108,6.2658,6.2438,6.2401,6.3099,6.4714,6.5778,6.7173,6.9009,6.9302,7.0183,7.1798,7.1284,7.1651,7.3046,7.2459,7.2275,7.2496,7.3083,7.3046,7.2496,7.2899,7.2716,7.2129,7.1321,7.0844,7.0587,6.9779,6.8972,6.8017,6.5558,6.4604,6.464,6.4897,6.4604,6.398,0.0,0.0,0.0,0.0,0.0,0.0,0.0,0.0,0.0,0.0,4.3895,4.5384,4.6786,4.8849,4.9999,4.9864,4.8376,4.7462,4.7462,0.0,0.0,0.0,0.0,5.0815,5.2906,5.3785,5.5006,5.663,5.7679,5.8186,5.8186,5.8626,5.9066,5.9438,5.8998,5.8795,5.8795,5.8355,5.778,5.7002,5.5649,5.4091,5.2626,5.2244,5.2523,5.3089,5.2942,5.3317,5.3818,5.3484,0.0,0.0,0.0,0.0,0.0,0.0,0.0,0.0,0.0,0.0,0.0,0.0,0.0,0.0,0.0,0.0,0.0,0.0,0.0,0.0,0.0,0.0,0.0,0.0,5.4501,5.6455,5.9428,6.0272,6.1263,6.3135,6.4677,6.5595,6.5595,6.5595,6.6256,6.7871,6.8421,6.9265,7.055,7.0917,7.1688,7.2973,7.2569,7.2753,7.367,7.2899,7.2679,7.301,7.3487,7.3634,7.3523,7.3634,7.345,7.2973,7.2165,7.1615,7.1284,7.0807,7.0146,0.0,0.0,0.0,0.0,0.0,6.5595,6.453,0.0,0.0,0.0,0.0,0.0,0.0,0.0,0.0,0.0,0.0,0.0,4.5432,4.5432,4.8003,4.9187,4.7902,4.7022,4.6583,0.0,0.0,0.0,4.8225,5.0202,5.1792,5.2807,5.5513,5.734,5.8152,5.9471,6.0114,6.0114,6.0114,6.0182,6.0351,6.0182,6.025,6.0486,6.0216,5.9776,5.9268,5.9167,5.7374,5.4635,5.393,5.4067,5.4717,5.5327,5.4796,5.3812,5.4363,0.0,0.0,0.0,0.0,0.0,0.0,0.0,0.0,0.0,0.0,0.0,0.0,0.0,0.0,0.0,0.0,0.0,0.0,0.0,0.0,0.0,0.0,0.0,0.0,5.6381,5.9098,6.3723,6.4677,6.4861,6.4787,6.6659,6.7944,6.7944,6.7944,6.8605,7.011,7.033,7.0697,7.1431,0.0,0.0,0.0,0.0,7.3817,7.3817,7.312,7.312,7.3817,7.3927,7.4294,7.4882,7.4258,7.3927,7.378,7.3083,7.2312,7.1578,7.1578,7.1064,7.0146,6.9339,6.8531,6.7797,6.7724,6.6733,6.5411,0.0,0.0,0.0,0.0,0.0,0.0,0.0,0.0,0.0,4.1115,4.2689,4.3842,4.3842,4.6007,4.7327,4.7022,4.5771,4.5263,0.0,0.0,4.8199,5.0425,5.1519,5.3281,5.5886,5.707,5.8321,5.9674,5.9945,6.0114,6.0114,6.0114,6.0757,6.1907,6.0655,6.1129,6.2719,6.0892,6.0385,6.0791,6.0148,5.8118,5.548,5.528,5.5346,5.5405,5.4914,5.5743,5.6895,5.5757,5.5551,5.5521,5.4148,0.0,0.0,0.0,0.0,0.0,0.0,0.0,0.0,0.0,0.0,0.0,0.0,0.0,0.0,0.0,0.0,0.0,0.0,0.0,0.0,5.7703,6.0199,6.2695,6.5632,6.8274,6.9669,6.9009,6.9339,6.9633,6.9633,6.9633,7.0036,7.0991,7.1688,7.2092,7.2275,7.367,7.4221,7.3707,7.4331,7.4661,7.4661,7.4515,7.4515,7.4698,0.0,0.0,7.4918,7.5432,7.5285,7.4661,7.4515,7.4001,7.323,7.323,7.2386,7.0991,7.0183,6.9376,6.8605,6.7944,6.71,6.6182,0.0,0.0,0.0,0.0,0.0,0.0,0.0,0.0,0.0,0.0,4.2979,4.4012,4.4012,4.5669,4.6622,4.6178,4.548,0.0,0.0,4.709,4.8883,5.1116,5.301,5.5074,5.7306,5.9167,6.0486,6.1231,6.1975,6.2347,6.2347,6.2347,6.2753,6.3463,6.2685,6.299,6.4005,6.2854,6.2584,6.2922,6.2516,6.1264,5.9512,5.8456,5.8282,5.8657,5.8264,5.8296,5.8474,5.7666,5.6859,5.6006,5.4765,5.3872,5.3135,0.0,0.0,0.0,0.0,0.0,0.0,0.0,0.0,0.0,0.0,0.0,0.0,0.0,0.0,5.1756,5.2968,0.0,5.7116,5.9942,6.2805,6.5521,6.7944,7.0036,7.1027,7.0183,7.0477,7.0697,7.0697,7.1064,7.1615,7.2459,7.2863,7.3266,7.367,7.4478,7.4918,7.4882,7.5285,7.5506,7.5506,7.5102,7.5102,7.5506,7.5909,7.6093,7.613,7.6093,7.5873,7.5469,7.5065,7.4661,7.4258,7.3854,7.323,7.2422,7.1615,7.033,6.8862,6.8458,6.754,6.6439,0.0,0.0,0.0,0.0,0.0,0.0,0.0,0.0,0.0,0.0,4.2977,4.3965,4.413,4.532,4.5883,0.0,0.0,0.0,0.0,4.8139,5.0135,5.2198,5.4769,5.6968,5.8727,6.1163,6.2516,6.2821,6.4005,6.4613,6.4613,6.4613,6.4681,6.4816,6.4647,6.4749,6.5019,6.4715,6.4681,6.4783,6.4647,6.4322,6.3791,6.191,6.163,6.2047,6.1748,6.0529,5.8988,5.9171,5.7593,5.5522,5.5221,5.4471,5.3603,5.3008,5.3426,0.0,0.0,0.0,0.0,0.0,0.0,0.0,0.0,5.1059,5.1573,5.0949,5.2087,5.3555,5.4656,5.7373,6.0126,6.2218,6.5154,6.7944,7.0036,7.1174,7.1468,7.066,7.1138,7.1615,7.1762,7.2349,7.301,7.3634,7.4001,7.4368,7.4882,7.5212,7.5542,7.5873,7.6166,7.6276,7.6093,7.5616,7.5689,7.635,7.635,7.668,7.7304,7.6644,7.635,7.6276,7.5506,7.5139,7.5065,7.4258,7.3817,7.3634,7.2973,7.1358,6.9376,6.9192,6.8201,6.6953,0.0,0.0,0.0,0.0,0.0,0.0,0.0,0.0,0.0,0.0,0.0,0.0,0.0,0.0,0.0,0.0,0.0,0.0,4.8443,4.9492,5.1826,5.5987,5.7103,5.8964,6.1806,6.2212,6.3024,6.4343,6.4512,6.4613,6.4613,6.4613,6.4952,6.5527,6.4884,6.5324,6.6474,6.5155,6.4986,6.5493,6.485,6.5039,6.5538,6.465,6.4008,6.3385,6.2098,6.0077,5.8253,5.8988,5.7593,5.5831,5.7171,5.6612,5.5388,5.5212,5.3826,5.2412,5.293,5.2192,5.0986,5.0068,4.9848,4.9627,0.0,4.9811,5.0912,5.0839,5.2087,5.3885,5.6124,5.8584,6.152,6.5338,6.8054,7.0036,7.1027,7.2459,7.312,7.2349,7.2312,7.2642,7.334,7.3487,7.3597,7.367,7.5028,7.5579,7.4955,7.6276,7.6423,7.5102,7.6423,7.6827,7.6093,7.6717,7.7084,7.7194,7.7194,7.7231,7.7304,7.7231,7.7194,7.7157,7.6313,7.5983,7.5909,7.5102,7.4331,7.367,7.3597,7.2532,7.0954,7.022,6.9412,6.8531,0.0,0.0,0.0,0.0,0.0,0.0,0.0,0.0,0.0,0.0,0.0,0.0,0.0,0.0,0.0,0.0,4.5474,4.6874,4.9486,5.071,5.3382,5.7881,5.9235,6.0858,6.299,6.3869,6.4613,6.5222,6.5662,6.5899,6.5899,6.5899,6.6034,6.6339,6.6474,6.688,6.7421,6.7286,6.7117,6.6948,6.6643,6.6214,6.5675,6.4606,6.317,6.1827,6.1615,6.0033,0.0,0.0,5.7446,5.696,5.6685,5.621,5.5541,5.4561,5.3567,5.2712,5.2541,5.2013,5.1426,5.1059,5.1353,5.161,5.1242,5.205,5.2894,5.2894,5.4179,5.6198,5.9061,6.1594,6.4273,0.0,6.9522,7.1101,7.1908,7.2165,7.2202,7.1835,7.1394,7.1798,7.3523,7.4111,7.4588,7.5065,7.5726,7.6166,7.6313,7.6497,7.6533,7.6313,7.6974,7.7157,7.6827,7.7157,7.7304,7.7304,7.7304,7.7304,7.7304,7.7304,7.7304,7.7304,7.6937,7.6827,7.6754,7.5946,7.5395,7.4992,7.4074,7.3597,7.3193,7.1431,7.0293,6.9559,0.0,0.0,0.0,0.0,0.0,0.0,0.0,0.0,0.0,0.0,0.0,0.0,0.0,0.0,0.0,0.0,4.6081,4.7432,4.9961,5.1691,5.4634,5.9133,6.0994,6.2685,6.4377,6.5662,6.6406,6.6643,6.7184,6.7455,6.7455,6.7455,6.7455,6.7455,6.7996,6.8233,6.8267,6.8842,6.8639,6.7895,6.7692,6.6576,6.4898,6.3124,6.1014,5.9137,5.9938,5.85,0.0,0.0,5.5904,5.5925,5.5414,5.5171,5.4842,5.3662,5.3122,5.2845,5.2438,5.216,5.205,5.227,5.2601,5.3041,5.3702,5.4473,5.5207,5.5647,5.7005,5.8988,6.1777,6.4127,6.6512,6.9155,7.0917,7.2165,7.2753,7.2165,7.1394,7.0734,6.9743,7.0036,7.2459,7.3634,7.4661,7.5689,7.5983,7.646,7.7268,7.6754,7.6717,7.7304,7.7304,7.7304,7.7304,7.7304,7.7304,7.7304,7.7304,7.7304,7.7304,7.7304,7.7304,7.7304,7.7304,7.7304,7.7268,7.668,7.6313,7.5946,7.4551,7.4258,7.4368,7.2606,7.1468,7.0697,0.0,0.0,0.0,0.0,0.0,0.0,0.0,0.0,0.0,0.0,0.0,0.0,0.0,0.0,0.0,4.6365,4.5991,4.6955,4.9898,5.2198,5.5446,5.9877,6.2245,6.4478,6.6677,6.7455,6.8233,6.9011,6.9011,6.9045,6.9045,6.9045,6.9045,6.9045,6.9045,6.9079,6.9079,6.9079,6.8639,6.7827,6.7117,6.5527,6.326,6.025,5.7703,5.5785,5.6687,0.0,0.0,0.0,5.2307,5.1426,5.3696,5.3918,5.3243,5.323,5.2669,5.2234,5.2968,5.2601,5.2197,5.2968,5.2601,5.2637,5.4987,5.6161,5.7189,5.8731,6.0346,6.1961,6.3686,6.5338,6.7504,7.0734,7.2569,7.3634,7.367,7.2973,7.1615,6.9265,6.7577,6.754,0.0,7.1651,7.323,7.4845,7.5652,7.646,7.7268,7.7304,7.7304,7.7304,7.7304,7.7304,7.7304,7.7304,7.7304,7.7304,7.7304,7.7304,7.7304,7.7304,7.7304,7.7304,7.7304,7.7304,7.7304,7.7304,7.6827,7.6019,7.5212,7.4404,7.3707,7.3634,7.312,7.2202,0.0,0.0,0.0,0.0,0.0,0.0,0.0,0.0,0.0,0.0,0.0,0.0,0.0,0.0,0.0,0.0,0.0,4.6752,4.9221,5.1961,5.504,5.849,6.1772,6.4309,6.6034,6.7252,6.8301,6.9113,6.9113,6.8842,6.8335,6.8842,6.8808,6.8335,6.935,6.9823,6.9823,6.9823,6.9079,6.776,6.6034,6.4291,6.2301,5.8255,5.5554,5.3879,0.0,0.0,0.0,0.0,5.0325,5.0839,5.1059,5.1742,5.2419,5.2412,5.2601,5.2858,5.3151,5.4179,5.5244,5.5537,5.6198,5.7152,5.8474,5.8988,5.9355,5.9905,6.0015,6.0346,6.1447,6.2952,6.5118,6.8385,7.0697,7.2496,7.356,7.301,7.1394,6.8458,6.8091,0.0,0.0,0.0,0.0,7.5469,7.5946,7.646,7.7268,7.7304,7.7304,7.7304,7.7304,7.7304,7.7304,7.7304,7.7304,7.7304,7.7304,7.7304,7.7304,7.7304,7.7304,7.7304,7.7304,7.7304,7.7304,7.7304,7.7157,7.6827,7.6019,7.5873,7.5983,7.4882,7.4661,7.4735,0.0,0.0,0.0,0.0,0.0,0.0,0.0,0.0,0.0,0.0,0.0,0.0,0.0,0.0,0.0,0.0,0.0,0.0,4.8071,5.0777,5.3484,5.619,5.9641,6.1941,6.2888,6.4106,6.5121,6.5865,6.5865,6.6034,6.6339,6.688,6.6948,6.6779,6.776,6.8199,6.8166,6.82,6.7093,6.5289,6.3315,6.1114,5.8585,5.4556,5.2397,0.0,0.0,0.0,0.0,0.0,4.904,4.9811,4.926,4.9811,5.0839,5.172,5.2564,5.3408,5.4252,5.6271,5.8107,5.8107,5.9098,6.0272,6.108,6.0823,6.0419,6.0419,5.9758,5.9391,5.9905,6.0823,6.2695,6.6256,6.8164,7.0036,7.2496,7.1651,7.0,6.7944,6.765,6.743,0.0,0.0,0.0,7.4551,7.5359,7.6019,7.6827,7.7157,7.7304,7.7304,7.7304,7.7304,7.7304,7.7304,7.7304,7.7304,7.7304,7.7304,7.7304,7.7304,7.7304,7.7304,7.7304,7.7304,7.7304,7.7304,7.7304,7.7231,7.6423,7.6423,7.6754,7.5726,7.5469,7.5616,0.0,0.0,0.0,0.0,0.0,0.0,0.0,0.0,0.0,0.0,0.0,0.0,0.0,0.0,0.0,0.0,0.0,0.0,4.665,4.8815,5.1014,5.3246,5.6193,5.7785,5.7857,5.8637,5.9309,6.0054,6.002,6.1104,6.3238,6.3238,6.3577,6.422,6.4254,6.4254,6.4233,6.4202,6.2879,6.0634,5.908,5.6294,5.267,4.9626,0.0,0.0,0.0,0.0,4.7241,4.8049,4.8269,4.8233,4.8233,4.8233,4.8746,5.1242,5.2601,5.3812,5.6235,5.8657,6.0529,6.0529,6.1117,6.1924,6.2658,6.1557,6.0382,6.0309,5.9612,5.9024,5.8988,5.9061,6.0493,6.464,6.5448,6.6953,7.0917,6.9522,6.8017,0.0,0.0,0.0,0.0,0.0,0.0,7.2349,0.0,7.5285,7.6166,7.6937,7.7341,7.7378,7.7341,7.7304,7.7304,7.7304,7.7304,7.7304,7.7304,7.7304,7.7304,7.7304,7.7304,7.7304,7.7304,7.7304,7.7304,7.7304,7.7304,7.7231,7.646,7.6166,7.6166,7.6166,7.5689,7.5028,0.0,0.0,0.0,0.0,0.0,0.0,0.0,0.0,0.0,0.0,0.0,0.0,0.0,0.0,0.0,0.0,0.0,0.0,4.594,4.8037,4.9773,5.0867,5.4239,5.6357,5.6836,5.8159,5.9137,5.9902,5.9279,5.9279,5.9937,5.987,5.9696,5.9349,5.9904,5.9802,5.9212,5.8646,5.7764,5.6509,0.0,5.3368,5.2666,0.0,0.0,0.0,0.0,4.6469,4.7241,4.8049,4.7902,4.7425,4.7425,4.7425,4.8012,5.1096,5.3004,5.462,5.7042,5.9905,6.2218,6.2218,6.2842,6.3356,6.2915,6.1557,6.0052,5.8841,5.7483,5.6345,5.5721,5.7079,5.9832,6.4567,6.732,7.0073,7.3523,7.345,7.2422,7.0624,0.0,7.0367,6.9559,7.1284,0.0,0.0,7.4001,7.5799,7.7855,7.7561,7.7598,7.8259,7.7671,7.7304,7.7304,7.7304,7.7304,7.7304,7.7304,7.7304,7.7304,7.7304,7.7304,7.7304,7.7304,7.7304,7.7304,7.7304,7.7304,7.7304,7.7084,7.7011,7.7011,7.7011,7.6864,7.6717,0.0,0.0,0.0,0.0,0.0,0.0,0.0,0.0,0.0,0.0,0.0,0.0,0.0,0.0,0.0,0.0,0.0,0.0,0.0,4.6907,4.8106,4.8467,5.1071,5.2507,5.2584,5.3021,5.3831,5.4957,5.4125,5.4266,5.525,5.5191,5.4946,5.4501,5.4922,5.4887,5.4431,5.3999,5.321,0.0,0.0,0.0,0.0,0.0,0.0,0.0,4.6691,4.6177,4.6654,4.7095,4.7425,4.7719,4.8086,4.8673,4.9884,5.3151,5.5244,5.7042,5.9465,6.2218,6.4347,6.4016,6.4273,6.4127,6.2181,6.0786,5.9134,5.6455,5.5464,5.473,5.3555,5.5023,5.7886,6.2438,6.5264,6.8421,7.2716,7.334,7.3083,7.2422,7.2753,0.0,7.1762,7.323,7.4184,0.0,7.4918,7.6203,7.7965,7.7598,7.7855,7.9066,7.7965,7.7304,7.7304,7.7304,7.7304,7.7304,7.7304,7.7304,7.7304,7.7304,7.7304,7.7304,0.0,7.7304,7.7304,7.7304,7.7304,7.7304,7.7304,7.7304,7.7304,7.7304,7.7304,7.7304,0.0,0.0,0.0,0.0,0.0,0.0,0.0,0.0,0.0,0.0,0.0,0.0,0.0,0.0,0.0,0.0,0.0,0.0,0.0,0.0,0.0,4.6725,4.7935,4.8351,4.7702,4.7026,4.7346,4.8661,4.7832,4.8493,5.0449,5.0236,5.0079,5.0028,4.9922,4.9816,4.9725,4.9722,4.8956,4.7594,0.0,0.0,0.0,0.0,0.0,0.0,4.603,4.5736,4.5773,4.5847,4.6985,4.8489,4.9444,5.0839,5.2747,5.5904,5.8033,5.9869,6.2181,6.4604,6.6329,6.5632,6.5301,6.431,6.1117,5.9538,5.7666,5.3849,5.3592,5.3665,5.227,5.3408,5.5941,6.0199,6.2254,6.5301,7.0991,7.1798,7.2349,7.3817,7.4001,7.4001,7.4001,7.4771,7.5469,7.6056,7.6313,7.679,7.7598,7.7635,7.8259,7.958,7.8222,7.7451,7.7304,7.7304,7.7304,7.7304,7.7304,7.7304,7.7304,7.7304,7.7304,7.7304,7.7304,7.7304,7.7304,7.7304,7.7304,7.7304,7.7304,7.7304,7.7304,7.7304,7.7304,7.7304,0.0,0.0,0.0,0.0,0.0,0.0,0.0,0.0,0.0,0.0,0.0,0.0,0.0,0.0,0.0,0.0,0.0,0.0,0.0,0.0,0.0,0.0,4.8057,4.8395,4.8174,4.8068,0.0,0.0,0.0,4.7736,4.868,4.7368,4.6749,4.6713,4.6057,4.5362,4.4745,4.4748,4.4565,4.4345,0.0,0.0,0.0,0.0,0.0,0.0,4.5223,4.4929,4.5002,4.5663,4.6985,4.8563,5.0105,5.172,5.3482,5.6051,5.84,6.0566,6.2328,6.4604,6.6476,6.6329,6.5301,6.3613,6.1006,5.8217,5.5464,5.2747,5.2307,5.2307,5.205,5.3849,5.7152,6.2585,6.4824,6.7834,7.3487,7.4294,7.4625,7.5579,7.5689,7.5689,7.5689,7.6423,0.0,0.0,7.7378,7.8516,7.9323,7.936,7.9176,7.8809,7.8516,7.8038,7.7341,7.7304,7.7304,7.7304,7.7304,7.7304,7.7304,7.7304,7.7304,7.7304,7.7304,0.0,7.7304,7.7304,7.7304,7.7304,7.7304,7.7304,7.7304,7.7304,7.7304,7.7304,0.0,0.0,0.0,0.0,0.0,0.0,0.0,0.0,0.0,0.0,0.0,0.0,0.0,0.0,0.0,0.0,0.0,0.0,0.0,0.0,0.0,0.0,0.0,0.0,0.0,0.0,0.0,0.0,0.0,0.0,0.0,0.0,0.0,0.0,0.0,0.0,0.0,0.0,0.0,0.0,0.0,0.0,0.0,0.0,0.0,0.0,0.0,4.4452,4.4342,4.5993,4.7758,4.964,5.147,5.3445,5.5574,5.796,6.0089,6.2034,6.3649,6.5496,6.6935,6.6589,6.4875,6.2474,5.926,5.6675,5.4032,5.0765,5.0765,5.1242,5.0802,5.3078,5.6124,5.9722,6.1998,6.5448,7.1541,7.2386,7.3487,7.6387,7.6717,7.6717,7.6717,7.7084,7.7157,7.6754,7.8295,7.9396,7.9764,8.0571,8.0498,7.925,7.9213,7.8809,7.8002,7.7561,7.7304,7.7304,7.7304,7.7304,7.7304,7.7304,7.7304,7.7304,7.7304,7.7304,7.7304,7.7304,7.7304,7.7304,7.7304,7.7304,7.7304,7.7304,7.7304,7.7304,0.0,0.0,0.0,0.0,0.0,0.0,0.0,0.0,0.0,0.0,0.0,0.0,0.0,0.0,0.0,0.0,0.0,0.0,0.0,0.0,0.0,0.0,0.0,0.0,0.0,0.0,0.0,0.0,0.0,0.0,0.0,0.0,0.0,0.0,0.0,0.0,0.0,0.0,0.0,0.0,0.0,0.0,0.0,0.0,0.0,0.0,0.0,4.4268,4.4342,4.6397,4.8457,5.0484,5.2259,5.4828,5.7516,5.9237,6.1312,6.3466,6.5118,6.6663,6.7665,6.7158,6.4822,6.1661,5.793,5.5427,5.2821,4.9077,4.9627,5.0618,4.9958,5.2197,5.4766,5.6748,5.8804,6.2401,6.8935,7.0146,7.2018,7.6533,7.7231,7.7304,7.7304,7.7304,0.0,7.7561,7.9103,8.0131,8.0277,8.1489,8.1525,8.0094,7.9874,7.9396,7.8589,7.7745,7.7304,7.7304,7.7304,7.7304,7.7304,7.7304,7.7304,7.7304,7.7304,7.7304,7.7304,7.7304,7.7304,7.7304,7.7304,7.7304,7.7304,7.7304,7.7304,7.7304,0.0,0.0,0.0,0.0,0.0,0.0,0.0,0.0,0.0,0.0,0.0,0.0,0.0,0.0,0.0,0.0,0.0,0.0,0.0,0.0,0.0,0.0,0.0,0.0,0.0,0.0,0.0,0.0,0.0,0.0,0.0,0.0,0.0,0.0,0.0,0.0,0.0,0.0,0.0,0.0,0.0,0.0,0.0,0.0,0.0,0.0,0.0,4.4488,4.581,4.6801,4.8458,5.0298,5.1193,5.4686,5.8289,5.7724,6.0637,6.431,6.5962,6.756,6.8752,6.8715,6.5726,6.1935,5.8657,5.495,5.1463,4.8857,4.9627,5.0765,5.0692,5.2123,5.4326,5.7373,5.8694,6.1594,6.8091,7.0293,7.2459,7.5799,7.6864,7.7304,7.7304,7.7304,7.7635,7.8405,7.9984,8.1195,8.1929,8.2113,8.1782,8.0938,8.0167,7.9396,7.8589,7.7745,7.7304,7.7304,7.7304,7.7304,7.7304,7.7304,7.7304,7.7304,7.7304,7.7304,0.0,7.7304,7.7304,7.7304,7.7304,7.7304,7.7304,7.7304,7.7304,7.7304,0.0,0.0,0.0,0.0,0.0,0.0,0.0,0.0,0.0,0.0,0.0,0.0,0.0,0.0,0.0,0.0,0.0,0.0,0.0,0.0,0.0,0.0,0.0,0.0,0.0,0.0,0.0,0.0,0.0,0.0,0.0,0.0,0.0,0.0,0.0,0.0,0.0,0.0,0.0,0.0,0.0,0.0,0.0,0.0,0.0,0.0,0.0,0.0,4.4635,4.5957,4.7225,4.8333,4.864,5.1078,5.4308,5.6623,5.9464,6.2658,6.6256,6.8345,6.9318,6.8385,6.4675,6.0404,5.7281,5.3445,5.0251,4.9297,4.9591,5.0215,5.0729,5.172,5.2894,5.4179,5.4656,5.6785,6.2291,6.3613,6.6329,7.2496,7.3927,7.5175,7.7121,7.7304,7.7671,7.8516,7.9176,8.0131,8.1415,8.1929,8.2039,8.1746,8.0461,7.9653,7.9323,7.8002,7.7304,7.7304,7.7304,7.7304,7.7304,7.7304,7.7304,7.7304,7.7304,7.7304,0.0,7.7304,7.7304,7.7304,7.7304,7.7304,7.7304,7.7304,7.7304,7.7304,0.0,0.0,0.0,0.0,0.0,0.0,0.0,0.0,0.0,0.0,0.0,0.0,0.0,0.0,0.0,0.0,0.0,0.0,0.0,0.0,0.0,0.0,0.0,0.0,0.0,0.0,0.0,0.0,0.0,0.0,0.0,0.0,0.0,0.0,0.0,0.0,0.0,0.0,0.0,0.0,0.0,0.0,0.0,0.0,0.0,0.0,0.0,0.0,0.0,0.0,0.0,4.6776,4.6948,4.7891,4.9755,5.4054,5.7703,6.13,6.5485,6.8434,6.9963,6.8458,6.4293,5.9792,5.6649,5.2637,4.9591,4.9591,4.9774,5.0178,5.1022,5.1793,5.2344,5.2344,5.2527,5.4216,5.8621,5.9612,6.2401,6.9119,7.0587,7.2349,7.5579,7.6974,7.7965,7.8552,7.9029,7.9617,8.0277,8.1489,8.2186,8.2186,8.0865,8.0021,7.98,7.8405,7.7561,7.7304,7.7304,7.7304,7.7304,7.7304,7.7304,7.7304,7.7304,7.7304,0.0,7.7304,7.7304,7.7304,7.7304,7.7304,7.7304,7.7304,7.7304,7.7304,0.0,0.0,0.0,0.0,0.0,0.0,0.0,0.0,0.0,0.0,0.0,0.0,0.0,0.0,0.0,0.0,0.0,0.0,0.0,0.0,0.0,0.0,0.0,0.0,0.0,0.0,0.0,0.0,0.0,0.0,0.0,0.0,0.0,0.0,0.0,0.0,0.0,0.0,0.0,0.0,0.0,0.0,0.0,0.0,0.0,0.0,0.0,0.0,0.0,0.0,0.0,0.0,0.0,4.593,4.5466,4.9499,5.5319,6.097,6.3466,6.765,7.0917,6.9302,6.5228,6.075,5.7519,5.3041,4.9591,4.9591,5.0215,5.1022,5.183,5.2637,5.3188,5.3188,5.3849,5.55,5.8767,6.0566,6.2805,6.6145,6.7247,6.9009,7.2239,7.6203,7.8589,7.8589,8.0094,0.0,7.8699,8.0901,8.2186,8.2186,8.1415,8.0608,7.98,7.8993,7.8148,7.7304,7.7304,7.7304,7.7304,7.7304,7.7304,7.7304,7.7304,7.7304,0.0,7.7304,7.7304,7.7304,7.7304,7.7304,7.7304,7.7304,7.7304,7.7304,0.0,0.0,0.0,0.0,0.0,0.0,0.0,0.0,0.0,0.0,0.0,0.0,0.0,0.0,0.0,0.0,0.0,0.0,0.0,0.0,0.0,0.0,0.0,0.0,0.0,0.0,0.0,0.0,0.0,0.0,0.0,0.0,0.0,0.0,0.0,0.0,0.0,0.0,0.0,0.0,0.0,0.0,0.0,0.0,0.0,0.0,0.0,0.0,0.0,0.0,0.0,0.0,0.0,0.0,0.0,4.7599,5.1638,5.6271,5.9795,6.3099,6.5118,6.3503,6.0272,5.6932,5.484,5.1426,4.8893,4.9481,4.9774,5.0398,5.1756,5.1756,5.2123,5.3739,5.3775,5.4326,5.6455,5.9538,6.2805,6.6109,7.1615,7.5763,7.7341,7.8662,7.9396,7.9396,7.9874,8.0204,8.0241,8.0975,8.1379,8.1379,8.1122,8.0608,7.98,7.8993,7.8185,7.7304,7.7304,7.7304,7.7304,7.7304,7.7304,7.7304,7.7304,7.7304,7.7304,7.7304,7.7304,7.7304,7.7304,7.7304,7.7304,7.7304,7.7304,7.7304,0.0,0.0,0.0,0.0,0.0,0.0,0.0,0.0,0.0,0.0,0.0,0.0,0.0,0.0,0.0,0.0,0.0,0.0,0.0,0.0,0.0,0.0,0.0,0.0,0.0,0.0,0.0,0.0,0.0,0.0,0.0,0.0,0.0,0.0,0.0,0.0,0.0,0.0,0.0,0.0,0.0,0.0,4.3497,0.0,0.0,0.0,0.0,0.0,0.0,0.0,0.0,0.0,0.0,0.0,0.0,0.0,4.9291,5.2234,5.6308,5.9612,6.152,5.9905,5.7299,5.473,5.3115,5.0435,4.8526,4.937,4.9554,4.9994,5.1316,5.1132,5.1279,5.2784,5.2637,5.3078,5.528,5.8547,6.2365,6.688,7.3193,7.7524,0.0,7.925,7.991,8.0241,8.0241,8.0351,8.0534,8.1122,8.1305,8.1012,8.1305,8.0901,7.98,7.9286,7.8479,7.7304,7.7304,7.7304,7.7304,7.7304,7.7304,7.7304,7.7304,7.7304,0.0,7.7304,7.7304,7.7304,7.7304,7.7304,7.7304,7.7304,7.7304,7.7304,0.0,0.0,0.0,0.0,0.0,0.0,0.0,0.0,0.0,0.0,0.0,0.0,0.0,0.0,0.0,0.0,0.0,0.0,0.0,0.0,0.0,0.0,0.0,0.0,0.0,0.0,0.0,4.9481,4.9481,4.9481,4.9481,0.0,0.0,0.0,0.0,0.0,0.0,4.3497,4.3497,0.0,0.0,4.3497,0.0,0.0,0.0,0.0,0.0,0.0,0.0,0.0,0.0,0.0,0.0,0.0,0.0,0.0,0.0,0.0,0.0,5.6785,5.9355,5.7776,5.5721,5.3665,5.216,4.9994,0.0,4.926,4.9444,4.9774,5.0655,5.0692,5.0692,5.0949,5.0912,5.1977,5.5133,5.807,6.2291,6.8752,7.2973,7.5616,7.6313,7.8552,8.0277,8.1048,8.1085,8.0755,7.9984,8.1379,8.1819,8.1048,8.1709,8.1379,7.98,7.98,7.8956,7.7304,7.7304,7.7304,7.7304,7.7304,7.7304,0.0,7.7304,7.7304,7.7304,7.7304,7.7304,7.7304,7.7304,7.7304,7.7304,7.7304,7.7304,7.7304,0.0,0.0,0.0,0.0,0.0,0.0,0.0,0.0,0.0,0.0,0.0,0.0,0.0,0.0,0.0,0.0,0.0,0.0,0.0,0.0,0.0,0.0,0.0,0.0,0.0,0.0,0.0,4.86,4.86,4.86,4.86,4.7976,0.0,0.0,0.0,4.4415,4.3497,4.3497,4.3497,0.0,4.3497,4.3497,0.0,0.0,0.0,0.0,4.3497,4.4011,0.0,0.0,0.0,0.0,0.0,0.0,0.0,0.0,4.8046,0.0,0.0,0.0,5.2821,5.1793,5.1132,5.0618,0.0,4.9187,4.8343,4.8526,4.86,4.9077,5.0545,4.9738,4.9701,5.2234,5.2123,5.2637,5.5207,6.1961,6.8788,7.4661,7.7855,7.9396,7.8956,8.0571,8.1709,8.1893,8.1929,8.1819,8.1636,8.1966,8.1819,8.1048,8.1195,8.0791,7.98,7.98,7.8956,7.7304,7.7304,7.7304,7.7304,7.7304,7.7304,7.7304,7.7304,7.7304,7.7304,7.7304,7.7304,7.7304,7.7304,7.7304,7.7304,7.7304,7.7304,7.7304,0.0,0.0,0.0,0.0,0.0,0.0,0.0,0.0,0.0,0.0,0.0,0.0,0.0,0.0,0.0,0.0,0.0,0.0,0.0,0.0,0.0,0.0,0.0,0.0,0.0,0.0,0.0,0.0,0.0,4.8159,0.0,0.0,0.0,0.0,0.0,4.3901,4.3497,4.3497,4.3497,4.3497,4.3497,0.0,0.0,0.0,0.0,0.0,4.3497,4.4011,0.0,4.5429,4.5927,4.6525,0.0,0.0,0.0,0.0,4.8271,0.0,0.0,4.8967,4.9554,4.9114,4.9003,4.9003,4.9003,4.8636,4.8306,4.8306,4.8306,4.86,4.9481,4.893,4.9003,5.1206,5.1499,5.3188,5.8217,6.5007,7.1394,7.668,7.9176,8.0571,0.0,8.1672,8.2186,8.2186,8.2186,8.2186,8.2186,8.1856,8.1452,8.1012,8.0645,8.0057,7.925,7.925,7.8589,7.7304,7.7304,7.7304,7.7304,7.7304,7.7304,7.7304,7.7304,7.7304,7.7304,7.7304,7.7304,7.7304,7.7304,7.7304,7.7304,7.7304,7.7304,7.7304,0.0,0.0,0.0,0.0,0.0,0.0,0.0,0.0,0.0,0.0,0.0,0.0,0.0,0.0,0.0,0.0,0.0,0.0,0.0,0.0,0.0,0.0,0.0,0.0,0.0,0.0,0.0,0.0,0.0,0.0,0.0,0.0,4.6911,0.0,4.4195,4.3497,4.3497,4.3497,4.3497,4.3497,4.3497,0.0,0.0,0.0,0.0,0.0,0.0,0.0,0.0,4.5036,4.6132,4.7318,4.792,0.0,0.0,0.0,0.0,0.0,4.8453,4.86,4.8636,4.8379,4.8306,4.8306,4.8306,4.8306,4.8306,4.8306,4.8306,4.8343,4.8489,4.86,4.8967,4.9811,5.1242,5.4987,6.2842,6.7907,7.2459,7.679,7.8993,0.0,8.1709,8.2039,8.2186,8.2186,8.2076,8.2003,8.2003,8.1232,8.0755,8.0645,7.9947,7.9213,7.8405,7.8516,7.8185,7.7304,7.7304,7.7304,7.7304,7.7304,7.7304,7.7304,0.0,0.0,7.7304,7.7304,7.7304,7.7304,7.7304,7.7304,7.7304,7.7304,7.7304,7.7304,0.0,0.0,0.0,0.0,0.0,0.0,0.0,0.0,0.0,0.0,0.0,0.0,0.0,0.0,0.0,0.0,0.0,0.0,0.0,0.0,0.0,0.0,0.0,0.0,0.0,0.0,0.0,0.0,0.0,0.0,4.8526,4.8967,4.8012,4.581,4.4195,4.3497,4.3497,4.3497,4.3497,4.3497,4.3497,0.0,0.0,0.0,0.0,0.0,0.0,0.0,0.0,4.4522,4.4961,4.5403,4.6837,0.0,0.0,0.0,0.0,0.0,4.9187,4.9884,5.0068,4.8673,4.8306,4.8306,4.8306,4.8306,4.8306,4.8306,4.8306,4.8526,4.926,4.9958,5.0692,5.1499,0.0,6.1263,6.8017,0.0,7.4955,7.7084,0.0,8.1379,8.0277,8.1379,8.2186,8.2186,8.1562,8.1195,8.1195,8.0424,7.9653,7.8993,7.8846,7.8369,7.7524,7.8222,7.8185,7.7304,7.7304,7.7304,7.7304,7.7304,7.7304,7.7304,0.0,7.7304,7.7304,7.7304,7.7304,7.7304,7.7304,7.7304,7.7304,7.7304,7.7304,7.7304,0.0,0.0,0.0,0.0,0.0,0.0,0.0,0.0,0.0,0.0,0.0,0.0,0.0,0.0,0.0,0.0,0.0,0.0,0.0,0.0,0.0,0.0,0.0,0.0,0.0,0.0,0.0,0.0,0.0,4.8343,4.9627,4.871,4.6948,4.4562,4.3828,4.3497,4.3497,4.3497,4.3497,4.3497,0.0,0.0,0.0,0.0,0.0,0.0,0.0,0.0,0.0,0.0,4.4635,4.548,4.6214,0.0,0.0,0.0,0.0,0.0,4.8783,4.9187,4.9481,4.9627,4.9664,4.9297,4.7976,4.8012,4.8306,4.8306,4.8306,4.871,4.9994,5.1242,5.3371,5.7226,0.0,6.5705,6.9559,7.2129,7.4515,0.0,0.0,8.0461,8.1048,8.1746,8.2186,8.2186,8.1856,8.1452,8.1012,8.0241,7.9433,7.8626,7.8148,7.7708,7.7304,7.7708,7.7708,7.7304,7.7304,7.7304,7.7304,7.7304,7.7304,7.7304,0.0,7.7084,7.6644,7.6644,7.6644,7.6607,7.6203,7.6533,7.7304,7.7304,7.7304,7.7304,0.0,0.0,0.0,0.0,0.0,0.0,0.0,0.0,0.0,0.0,0.0,0.0,0.0,0.0,0.0,0.0,0.0,0.0,0.0,0.0,0.0,0.0,0.0,0.0,0.0,0.0,4.6397,4.7388,4.7792,4.8857,5.0435,4.8196,4.592,4.3754,4.3571,4.3497,4.3497,4.3497,4.3497,4.3497,0.0,0.0,0.0,0.0,0.0,0.0,0.0,0.0,0.0,0.0,0.0,0.0,0.0,0.0,0.0,4.8306,4.8306,4.8343,4.8563,4.8746,4.9114,4.9994,5.0215,4.9958,4.904,4.9003,4.9334,4.9884,4.9848,5.0141,5.1426,5.3408,5.6822,6.2732,6.6586,6.9449,7.1248,7.2899,7.4918,7.7598,7.8662,7.9947,8.2003,8.2186,8.2186,8.2186,8.1856,8.1379,8.0755,7.9764,7.8919,7.8332,7.7671,7.7304,7.7304,7.7304,7.7304,7.7304,7.7304,7.7304,7.7304,7.7304,7.7304,7.7304,7.7121,7.668,7.6093,7.5909,7.5836,7.5799,7.5359,7.6056,7.7304,7.7304,7.7304,7.7304,0.0,0.0,0.0,0.0,0.0,0.0,0.0,0.0,0.0,0.0,0.0,0.0,0.0,0.0,0.0,0.0,0.0,0.0,0.0,0.0,0.0,0.0,0.0,0.0,0.0,4.5847,4.6654,4.8233,4.9774,5.0215,4.9554,4.7902,4.6214,4.4599,4.3828,4.3497,4.3497,4.3497,4.3497,4.3497,4.3497,0.0,0.0,0.0,0.0,0.0,0.0,0.0,0.0,0.0,0.0,0.0,0.0,0.0,0.0,4.8306,4.8306,4.8489,4.926,5.0031,5.0288,4.8857,4.8489,4.9444,5.3041,5.2747,5.238,5.462,0.0,0.0,0.0,5.7299,6.13,6.5558,6.9559,7.2973,7.5322,0.0,7.8516,7.9507,8.0314,8.1195,8.2113,8.2186,8.2186,8.2186,8.0791,7.9947,7.9874,7.8369,7.7451,7.7414,7.7341,7.7304,7.7304,7.7304,7.7304,7.7304,7.7304,7.7304,7.7304,7.7304,7.7304,7.7268,7.6533,7.6166,7.6056,7.5285,7.4992,7.5065,7.5726,7.6533,7.7304,7.7304,7.7304,7.7304,0.0,0.0,0.0,0.0,0.0,0.0,0.0,0.0,0.0,0.0,0.0,0.0,0.0,0.0,0.0,0.0,0.0,0.0,0.0,0.0,0.0,0.0,0.0,4.4562,4.5883,4.7388,4.9224,5.1353,5.1463,5.0582,4.871,4.7131,0.0,4.3938,4.3644,4.3497,4.3497,4.3497,4.3497,4.3497,4.3497,4.3497,0.0,0.0,0.0,0.0,0.0,0.0,0.0,0.0,4.5993,4.6728,0.0,4.7645,4.8306,4.8306,4.8306,4.8379,4.871,4.9774,5.0655,5.0031,5.0215,5.1132,0.0,5.3555,5.4032,5.5941,5.6895,0.0,0.0,0.0,6.5191,6.8238,7.2129,7.5249,7.668,7.7855,7.8883,7.969,8.0498,8.1342,8.2113,8.2186,8.2003,8.1489,8.0901,8.0094,7.9103,7.8442,7.7855,7.7341,7.7304,7.7304,7.7304,7.7304,7.7304,7.7304,7.7304,7.7304,7.7304,7.7304,7.7047,7.6533,7.624,7.5542,7.4588,7.4294,7.4147,7.4294,7.5579,7.6276,7.6607,7.7121,7.7304,7.7304,0.0,0.0,0.0,0.0,0.0,0.0,0.0,0.0,0.0,0.0,0.0,0.0,0.0,0.0,0.0,0.0,0.0,0.0,0.0,0.0,0.0,0.0,0.0,4.4635,4.625,4.871,5.0912,5.2821,5.227,5.0582,4.7902,0.0,0.0,4.3864,4.3608,4.3644,4.3864,4.3608,4.3497,4.3497,4.3497,4.3497,0.0,0.0,0.0,0.0,0.0,0.0,0.0,0.0,4.6654,4.7168,4.7425,4.7865,4.8306,4.8306,4.8122,4.7939,4.7939,4.8783,4.9701,4.9958,5.0839,5.2344,5.5207,5.6088,5.7042,5.9685,6.0529,6.0823,6.1117,0.0,0.0,0.0,7.3523,7.668,7.7231,7.8075,7.8883,7.969,8.0498,8.1342,8.2113,8.2186,8.1856,8.1048,8.0755,8.0021,7.8662,7.8332,7.7928,7.7341,7.7304,7.7194,7.6937,7.7194,7.7194,7.6937,7.7194,7.7304,7.7304,7.7047,7.6644,7.6056,7.5542,7.4698,7.367,7.3413,7.3634,7.4184,7.5285,7.6019,7.657,7.7121,7.7304,7.7304,0.0,0.0,0.0,0.0,0.0,0.0,0.0,0.0,0.0,0.0,0.0,0.0,0.0,0.0,0.0,0.0,0.0,0.0,0.0,4.3497,4.3532,4.3532,4.4268,4.5443,4.7058,4.9517,5.1169,5.1977,5.1977,5.0288,4.7058,4.548,0.0,0.0,4.3864,4.3975,4.4672,4.3864,4.3497,4.3497,4.3497,4.3497,4.3497,0.0,0.0,0.0,0.0,0.0,0.0,0.0,4.7131,4.7278,4.8049,4.8306,4.8306,4.8306,4.7755,4.7131,4.7131,4.7094,4.7352,4.8122,4.9591,5.2747,5.9979,6.1006,6.1777,6.6696,6.5778,6.387,6.3025,6.5521,0.0,6.8788,7.3634,7.7304,7.7304,7.8075,7.8919,7.969,8.0534,8.1342,8.2113,8.2186,8.1856,8.1048,8.0241,7.9433,7.8626,7.7781,7.7304,7.7304,7.7304,7.6937,7.6093,7.69,7.69,7.6093,7.6937,7.7304,7.7268,7.646,7.6093,7.5983,7.4368,7.3707,7.3634,7.2826,7.345,7.4918,7.4918,7.5909,7.7304,7.7304,7.7304,7.7304,0.0,0.0,0.0,0.0,0.0,0.0,0.0,0.0,0.0,0.0,0.0,0.0,0.0,0.0,0.0,0.0,0.0,0.0,0.0,4.3849,4.3974,4.427,4.4017,4.4186,4.4893,4.7058,4.9444,5.1977,5.0802,4.8857,4.625,0.0,0.0,4.4709,0.0,4.4782,4.548,4.4709,4.4672,4.5186,4.5186,4.5186,4.5259,0.0,0.0,0.0,0.0,0.0,0.0,0.0,0.0,0.0,4.8233,4.8306,4.8306,4.8306,4.8122,4.7939,4.7939,4.8379,4.9114,5.0545,5.2527,5.5794,6.1924,6.1814,0.0,0.0,6.7467,6.6072,6.6953,6.8348,0.0,7.0477,7.3891,7.6644,7.7231,7.8552,7.9507,7.9764,8.1012,8.1929,8.2186,8.1672,8.1012,8.0204,7.9396,7.8589,7.7745,7.7451,7.7304,7.7304,7.6754,7.635,7.6093,7.5799,7.5799,7.6093,7.635,7.646,7.646,7.6203,7.5469,7.4368,7.3891,7.3377,7.2826,7.2606,7.345,7.4918,7.4918,7.5909,7.7304,7.7304,7.7304,7.7304,0.0,0.0,0.0,0.0,0.0,0.0,0.0,0.0,0.0,0.0,0.0,0.0,0.0,0.0,0.0,0.0,0.0,0.0,0.0,0.0,4.4261,4.4346,4.3943,4.4022,4.4749,4.6128,4.7794,4.9787,4.8934,4.7498,0.0,0.0,4.5369,4.57,0.0,4.6397,4.6801,4.5993,4.5773,4.5883,4.5883,4.5883,4.5957,0.0,0.0,0.0,0.0,0.0,0.0,0.0,0.0,0.0,4.8306,4.8306,4.8233,4.7939,4.7609,4.7352,4.7352,4.8159,4.9591,5.1903,5.4766,5.8437,6.3833,6.5632,6.7357,0.0,7.055,6.9192,7.0146,7.0734,0.0,7.2129,7.4698,7.6754,7.7268,7.8479,7.9433,7.9764,8.0645,8.1379,8.1672,8.1012,8.0167,7.936,7.8883,7.8222,7.7378,7.7304,7.7157,7.6827,7.635,7.5799,7.5139,7.4992,7.4992,7.5139,7.5469,7.5469,7.5175,7.5469,7.4918,7.367,7.334,7.2936,7.2496,7.2496,7.3266,7.4441,7.4441,7.5212,7.635,7.635,7.635,7.6423,0.0,0.0,0.0,0.0,0.0,0.0,0.0,0.0,0.0,0.0,0.0,0.0,0.0,0.0,0.0,0.0,0.0,0.0,0.0,0.0,4.4482,4.4117,4.4028,4.4522,4.5663,4.6008,4.6201,4.6201,4.676,0.0,0.0,0.0,4.6471,4.7168,0.0,4.8343,4.8379,4.7425,4.6654,4.6104,4.6104,4.6104,4.6104,4.6104,0.0,0.0,0.0,0.0,0.0,0.0,0.0,0.0,4.8306,4.8306,4.8159,4.7425,4.6654,4.6067,4.6287,4.7352,4.9297,5.2858,5.7005,6.141,6.5999,7.1138,7.5065,7.5652,0.0,7.2826,7.2826,7.2826,7.3083,7.378,7.5836,7.7304,7.7304,7.8075,7.8883,7.958,7.9764,8.0094,8.0828,8.0167,7.9396,7.8662,7.8516,7.8148,7.7378,7.7268,7.6864,7.613,7.5946,7.5175,7.3707,7.4368,7.4368,7.3707,7.4441,7.4404,7.3707,7.4478,7.4368,7.356,7.2826,7.2496,7.2496,7.2496,7.2973,7.3707,7.3707,7.4184,7.4918,7.4918,7.4918,7.5028,0.0,0.0,0.0,0.0,0.0,0.0,0.0,0.0,0.0,0.0,0.0,0.0,0.0,0.0,0.0,0.0,0.0,0.0,0.0,0.0,4.4943,4.4872,4.4318,4.4035,4.4046,4.4337,4.4519,4.4519,4.5881,0.0,0.0,0.0,0.0,4.7168,0.0,4.8673,4.9187,4.7058,4.6801,4.7792,4.7792,4.7792,4.7792,4.7792,4.7902,0.0,0.0,0.0,0.0,0.0,0.0,0.0,4.8306,4.8306,4.8269,4.8086,4.7498,4.7278,4.9224,4.9554,5.0692,5.6492,6.2879,6.8348,7.0697,7.312,7.4588,7.3523,7.4368,7.5322,7.5322,7.5322,7.5395,7.5542,7.657,7.7304,7.7304,7.8075,7.8662,7.8846,7.9396,7.9874,8.0021,7.9323,7.8772,7.8589,7.7965,7.7524,7.7341,7.6717,7.6276,7.6093,7.4882,7.4037,7.3707,7.3266,7.3266,7.3707,7.3891,7.3854,7.3707,7.3891,7.3523,7.2753,7.2569,7.2496,7.2496,7.2496,7.2973,7.3707,7.3707,7.4184,7.4918,7.4918,7.4918,7.5028,0.0,0.0,0.0,0.0,0.0,0.0,0.0,0.0,0.0,0.0,0.0,0.0,0.0,0.0,0.0,0.0,0.0,0.0,0.0,0.0,0.0,0.0,4.4587,4.4242,4.4035,4.4346,4.4535,4.4535,4.5375,0.0,0.0,0.0,0.0,4.7205,0.0,4.9554,4.9517,4.8196,4.7902,4.8306,4.8306,4.8306,4.8306,4.8306,4.8306,4.8306,4.8306,0.0,0.0,0.0,0.0,0.0,0.0,0.0,4.8159,4.7388,4.7131,4.7388,4.8673,5.0141,5.3151,6.0786,6.6145,7.0036,7.2055,7.3156,7.3634,7.3156,7.4698,7.6093,7.6093,7.6423,7.668,7.668,7.7047,7.7304,7.7304,7.7708,7.8148,7.8552,7.8589,7.8772,7.9176,7.8479,7.8002,7.8002,7.7561,7.7157,7.6754,7.635,7.5763,7.4992,7.4147,7.3523,7.312,7.2716,7.2716,7.312,7.2753,7.2349,7.1982,7.2386,7.2312,7.1908,7.1505,7.1578,7.1945,7.1945,7.2165,7.2606,7.2973,7.3377,7.3744,7.3744,7.3744,7.3891,0.0,0.0,0.0,0.0,0.0,0.0,0.0,0.0,0.0,0.0,0.0,0.0,0.0,0.0,0.0,0.0,0.0,0.0,0.0,0.0,0.0,0.0,4.4776,4.4599,4.4599,4.4919,4.5115,4.5115,0.0,0.0,0.0,0.0,0.0,4.7021,0.0,4.9921,4.915,4.9003,4.8636,4.8086,4.8086,4.8196,4.8306,4.8306,4.8306,0.0,0.0,0.0,0.0,0.0,0.0,0.0,0.0,0.0,4.8049,4.6691,4.6581,4.7021,4.7425,5.0729,5.5978,6.4053,6.7393,6.9302,7.1578,7.2202,7.2496,7.3156,7.4771,7.6093,7.6093,7.6754,7.7304,7.7304,7.7304,7.7304,7.7304,7.7304,7.7598,7.8295,7.7745,7.7598,7.8295,7.7745,7.7304,7.7304,7.7194,7.6827,7.613,7.5836,7.5065,7.3744,7.356,7.3156,7.2496,7.2349,7.2312,7.2275,7.1505,7.066,6.9926,7.0587,7.0991,7.1064,7.0403,7.0477,7.1101,7.1101,7.1101,7.1174,7.1982,7.2312,7.2312,7.2459,7.2496,7.2606,0.0,0.0,0.0,0.0,0.0,0.0,0.0,0.0,0.0,0.0,0.0,0.0,0.0,0.0,0.0,0.0,0.0,0.0,0.0,0.0,0.0,0.0,4.4776,4.4599,4.4599,4.4919,4.5115,0.0,0.0,0.0,0.0,0.0,0.0,4.614,0.0,0.0,4.7388,4.6691,4.6728,4.7278,4.7278,4.7682,4.8306,4.8306,0.0,0.0,0.0,0.0,0.0,0.0,4.8306,0.0,0.0,0.0,4.8269,4.8049,4.7058,4.6544,4.8673,5.3225,5.851,6.3246,6.6145,6.8311,7.0036,7.0954,7.1505,7.1615,7.4001,7.6093,7.6093,7.6754,7.7304,7.7304,7.7304,7.7304,7.7304,7.7304,7.7378,7.7488,7.7378,7.7378,7.7488,7.7378,7.7304,7.7304,7.6644,7.6203,7.6093,7.4771,7.3927,7.3707,7.301,7.2606,7.2496,7.1835,7.1468,7.1468,7.066,6.9853,6.9082,6.9192,6.9596,7.0257,7.0146,7.0146,7.0257,7.0257,7.0257,7.033,7.1174,7.1468,7.1541,7.2239,7.2496,7.2606,0.0,0.0,0.0,0.0,0.0,0.0,0.0,0.0,0.0,0.0,0.0,0.0,0.0,0.0,0.0,0.0,0.0,0.0,0.0,0.0,0.0,0.0,4.5701,4.5906,4.5906,4.647,4.6569,0.0,0.0,0.0,0.0,4.6402,4.6387,0.0,0.0,0.0,0.0,0.0,4.7462,4.7792,4.7792,4.7719,4.7682,0.0,0.0,0.0,0.0,0.0,0.0,0.0,0.0,4.8306,4.8306,0.0,0.0,0.0,4.7462,4.7976,5.1353,5.4436,5.785,6.2842,6.4897,6.6329,6.8862,6.9706,7.022,7.1138,7.3156,7.4771,7.4771,7.5799,7.6644,7.6644,7.7011,7.7304,7.7304,7.7304,7.7304,7.7304,7.7304,7.7304,7.7304,7.7304,7.7121,7.668,7.6313,7.5726,7.4808,7.4074,7.3487,7.3046,7.2679,7.2275,7.1835,7.1505,7.0881,6.9963,6.9596,6.8788,6.7577,6.7577,6.8238,6.9412,6.8935,6.9009,6.9449,6.9449,6.9449,6.9522,7.033,7.0624,7.066,7.1027,7.1174,7.1284,0.0,0.0,0.0,0.0,0.0,0.0,0.0,0.0,0.0,0.0,0.0,0.0,0.0,0.0,0.0,0.0,0.0,0.0,0.0,0.0,0.0,0.0,0.0,4.6894,4.6894,4.7509,0.0,0.0,0.0,0.0,4.6118,4.6118,4.6165,0.0,4.7462,0.0,0.0,0.0,0.0,0.0,0.0,4.7462,0.0,0.0,0.0,0.0,0.0,0.0,0.0,0.0,0.0,0.0,0.0,4.8306,0.0,0.0,0.0,4.871,5.1977,5.3739,5.5904,6.097,6.2842,6.4237,6.7283,6.8311,6.9045,7.066,7.2129,7.3156,7.334,7.4882,7.6093,7.6093,7.679,7.7304,7.7304,7.7304,7.7304,7.7304,7.7304,7.7304,7.7304,7.7121,7.6754,7.6166,7.5726,7.4955,7.3744,7.3303,7.2826,7.2202,7.2018,7.1615,7.0991,7.0807,7.0,6.8605,6.8385,6.765,6.6476,6.6292,6.6843,6.7981,6.7577,6.7724,6.8311,6.8495,6.8605,6.8678,6.9486,6.9816,6.9816,7.0,7.011,7.0183,0.0,0.0,0.0,0.0,0.0,0.0,0.0,0.0,0.0,0.0,0.0,0.0,0.0,0.0,0.0,0.0,0.0,0.0,0.0,0.0,0.0,0.0,0.0,0.0,0.0,0.0,0.0,0.0,0.0,0.0,4.692,4.692,4.6956,4.702,4.7131,4.6728,4.603,0.0,0.0,0.0,0.0,0.0,0.0,0.0,0.0,0.0,0.0,0.0,0.0,0.0,0.0,0.0,0.0,0.0,4.8306,0.0,0.0,0.0,4.8343,5.0362,5.2968,5.6345,5.9465,6.2401,6.4934,6.6659,6.8201,6.9816,7.0844,7.1688,7.2422,7.4515,7.6093,7.6093,7.679,7.7304,7.7304,7.7304,7.7304,7.7304,7.7304,7.7304,7.7304,7.6607,7.6166,7.6093,7.4698,7.378,7.3707,7.2275,7.1431,7.1358,7.0624,7.0183,7.0146,6.9412,6.8605,6.7724,6.699,6.6586,6.6476,6.5705,6.5411,6.5521,6.6256,6.6586,6.6696,6.743,6.776,6.7834,6.8641,6.8972,6.9045,6.9816,7.011,7.011,0.0,0.0,0.0,0.0,0.0,0.0,0.0,0.0,0.0,0.0,0.0,0.0,0.0,0.0,0.0,0.0,0.0,0.0,0.0,0.0,0.0,0.0,0.0,0.0,0.0,0.0,0.0,0.0,0.0,4.7116,4.6986,4.6458,4.6277,4.6361,4.7425,4.7425,4.6728,4.7535,0.0,0.0,0.0,0.0,0.0,0.0,0.0,0.0,0.0,0.0,0.0,0.0,0.0,0.0,0.0,0.0,0.0,0.0,4.7755,4.7535,4.9407,5.0178,5.1206,5.4473,5.6895,5.9024,6.097,6.387,6.6476,6.7577,6.9265,7.0624,7.0917,7.2936,7.4551,7.4551,7.5689,7.635,7.5836,7.668,7.7121,7.6607,7.6533,7.6533,7.6533,7.5799,7.5139,7.4588,7.4037,7.323,7.2202,7.1615,7.1064,7.055,7.0257,6.9596,6.8568,6.7247,6.6439,6.6145,6.5888,6.5448,6.4934,6.464,6.4237,6.3759,6.4604,6.5264,6.5742,6.6035,6.6476,6.6953,6.7247,6.7687,6.8164,6.8458,6.8531,6.8605,0.0,0.0,0.0,0.0,0.0,0.0,0.0,0.0,0.0,0.0,0.0,0.0,0.0,0.0,0.0,0.0,0.0,0.0,0.0,0.0,0.0,0.0,0.0,0.0,0.0,0.0,0.0,0.0,0.0,0.0,0.0,4.6732,4.6382,4.6361,4.7719,4.8012,0.0,0.0,0.0,4.9003,0.0,0.0,4.6654,0.0,0.0,0.0,0.0,0.0,0.0,0.0,0.0,0.0,0.0,0.0,0.0,0.0,0.0,0.0,4.9591,4.9774,5.0288,5.3261,5.4803,5.6308,5.8988,6.1704,6.42,6.6109,6.7981,6.9449,7.0,7.1394,7.2679,7.3193,7.4661,7.5506,7.4992,7.5836,7.6313,7.5763,7.5689,7.5689,7.5689,7.4992,7.4147,7.334,7.3046,0.0,7.0991,7.066,7.0,6.8935,6.8641,6.7981,6.688,6.5852,6.5301,6.5301,6.5044,6.4604,6.409,6.3796,6.3356,6.2842,6.3429,6.4127,6.4934,6.5191,6.5632,6.6109,6.6402,6.6843,6.732,6.7577,6.7687,6.776,0.0,0.0,0.0,0.0,0.0,0.0,0.0,0.0,0.0,0.0,0.0,0.0,0.0,0.0,0.0,0.0,0.0,0.0,0.0,0.0,0.0,0.0,0.0,0.0,0.0,0.0,0.0,0.0,0.0,0.0,0.0,0.0,4.7453,4.7131,4.7939,4.8269,4.8306,0.0,4.926,5.0472,0.0,4.6874,4.8086,0.0,0.0,0.0,4.7095,4.7131,0.0,4.7205,0.0,0.0,0.0,0.0,0.0,0.0,0.0,0.0,0.0,0.0,0.0,5.2491,5.3115,5.4363,5.9061,6.0199,6.141,6.5448,6.6916,6.8017,6.9669,7.0,7.0513,7.2129,7.378,7.4808,7.4771,7.4845,7.4882,7.4808,7.4808,7.4845,7.4808,7.4074,7.3266,7.2496,7.1725,7.0917,7.0073,6.9229,6.8091,6.6512,6.5705,6.5264,6.5228,6.5191,6.5191,6.5191,6.4383,6.4016,6.398,6.3172,6.2768,6.2768,6.2768,6.3282,6.4127,6.4897,6.5264,6.5338,6.6109,6.6439,6.6586,6.7357,6.765,6.7687,0.0,0.0,0.0,0.0,0.0,0.0,0.0,0.0,0.0,0.0,0.0,0.0,0.0,0.0,0.0,0.0,0.0,0.0,0.0,0.0,0.0,0.0,0.0,0.0,0.0,0.0,0.0,0.0,0.0,0.0,0.0,0.0,0.0,0.0,4.7352,4.7755,4.8306,4.8306,0.0,0.0,4.8269,4.7572,0.0,0.0,0.0,0.0,0.0,4.6985,4.8086,0.0,4.915,4.9407,0.0,0.0,0.0,0.0,0.0,0.0,4.8379,0.0,0.0,0.0,0.0,0.0,5.3151,5.5244,5.774,6.0639,6.2328,6.4127,6.699,6.7504,6.8017,6.9633,7.1725,7.2753,7.1578,7.345,7.4258,7.2496,7.2826,7.2936,7.2349,7.1578,7.0991,0.0,7.055,6.9816,6.8421,6.7063,6.6109,6.5668,6.4861,6.4127,6.3503,6.2915,6.2622,6.2622,6.2401,6.2291,6.2291,6.2034,6.1924,6.1924,6.1924,6.2401,6.3172,6.3429,6.387,6.4457,6.4677,6.5485,6.6512,6.6733,6.7173,6.7687,0.0,0.0,0.0,0.0,0.0,0.0,0.0,0.0,0.0,0.0,0.0,0.0,0.0,0.0,0.0,0.0,0.0,0.0,0.0,0.0,0.0,0.0,0.0,0.0,0.0,0.0,0.0,0.0,0.0,0.0,0.0,0.0,0.0,0.0,0.0,0.0,0.0,0.0,0.0,0.0,4.8783,0.0,0.0,4.8269,4.7865,0.0,0.0,0.0,4.9774,4.9224,4.9591,0.0,0.0,0.0,0.0,0.0,0.0,0.0,0.0,0.0,0.0,0.0,0.0,0.0,5.1499,5.3004,5.4876,5.7629,5.9501,6.1374,6.398,6.5007,6.5925,6.721,6.9155,7.0403,7.0146,7.1725,7.2386,7.0991,7.1211,7.1174,7.0403,6.9889,6.9449,6.9119,6.8788,6.8054,6.6769,6.5485,6.464,6.4273,6.3466,6.2658,6.1814,6.1337,6.108,6.108,6.108,6.108,6.108,6.108,6.108,6.108,6.108,6.1557,6.2291,6.2291,6.2805,6.3576,6.3943,6.4677,6.5521,6.5888,6.6512,6.7173,0.0,0.0,0.0,0.0,0.0,0.0,0.0,0.0,0.0,0.0,0.0,0.0,0.0,0.0,0.0,0.0,0.0,0.0,0.0,0.0,0.0,0.0,0.0,0.0,0.0,0.0,0.0,0.0,0.0,0.0,0.0,0.0,0.0,0.0,0.0,0.0,0.0,0.0,0.0,5.0545,4.915,4.9848,0.0,0.0,5.1169,5.1646,5.1022,5.1316,5.1646,4.9444,4.915,0.0,0.0,0.0,0.0,0.0,5.0729,0.0,0.0,0.0,0.0,0.0,0.0,0.0,5.216,5.2234,5.2601,5.5757,5.7556,5.9134,6.097,6.2548,6.3833,6.464,6.6109,6.7724,6.9449,6.9926,6.9963,6.9596,6.9706,6.9486,6.8605,6.8495,6.8201,6.7467,6.6696,6.5925,6.5191,6.431,6.3466,6.2695,6.1887,6.108,6.0272,6.0272,6.0272,6.0272,6.0272,6.0272,6.0272,6.0272,6.0272,6.0272,6.0272,6.0713,6.1484,6.1557,6.2071,6.2879,6.3649,6.4016,6.42,6.4897,6.5742,6.6512,0.0,0.0,0.0,0.0,0.0,0.0,0.0,0.0,0.0,0.0,0.0,0.0,0.0,0.0,0.0,0.0,0.0,0.0,0.0,0.0,0.0,0.0,0.0,0.0,0.0,0.0,0.0,0.0,0.0,0.0,0.0,0.0,0.0,0.0,0.0,0.0,0.0,0.0,0.0,4.9848,5.0178,0.0,5.0105,5.0618,5.0508,5.0105,5.0618,5.1316,5.1903,5.1426,5.0949,5.0545,0.0,0.0,0.0,0.0,0.0,0.0,0.0,0.0,0.0,0.0,0.0,0.0,5.0288,5.0178,5.0802,5.3371,5.4179,5.5464,5.9024,5.9942,6.0419,6.1227,6.2732,6.4567,6.688,6.8862,6.9155,6.6549,6.7393,6.7577,6.6145,6.5999,6.5962,6.5778,6.5007,6.4494,6.4347,6.2915,6.1998,6.1851,6.1043,6.0272,5.9465,5.9428,5.9428,5.9428,5.9428,5.9428,5.9428,5.9428,5.9428,5.9428,5.9428,5.9905,6.0676,6.1337,6.2071,6.2842,6.2989,6.3466,6.4127,6.4273,6.5264,6.6512,0.0,0.0,0.0,0.0,0.0,0.0,0.0,0.0,0.0,0.0,0.0,0.0,0.0,0.0,0.0,0.0,0.0,0.0,0.0,0.0,0.0,0.0,0.0,0.0,0.0,0.0,0.0,0.0,0.0,0.0,0.0,0.0,0.0,0.0,0.0,0.0,0.0,0.0,4.9554,4.9664,5.0472,0.0,5.0875,5.1683,5.1756,5.1463,5.1867,5.2013,5.1977,5.1977,5.172,0.0,0.0,5.0802,5.0949,0.0,5.1132,5.0362,0.0,0.0,0.0,5.0802,0.0,0.0,0.0,4.9884,5.0141,5.2197,5.227,5.2858,5.5721,5.6565,5.7336,5.8951,6.0236,6.1801,6.4081,6.5985,6.6512,6.4897,6.5044,6.4787,6.3576,6.3466,6.3282,6.2879,6.2842,6.2658,6.2291,6.1447,6.0823,6.0419,6.0015,5.9428,5.8621,5.8621,5.8621,5.8621,5.8621,5.8621,5.8621,5.8621,5.8621,5.8621,5.8621,5.9061,5.9832,6.0236,6.0896,6.1704,6.2511,6.3062,6.3466,6.3466,6.4237,6.5301,0.0,0.0,0.0,0.0,0.0,0.0,0.0,0.0,0.0,0.0,0.0,0.0,0.0,0.0,0.0,0.0,0.0,0.0,0.0,0.0,0.0,0.0,0.0,5.0114,0.0,0.0,0.0,0.0,0.0,0.0,0.0,0.0,0.0,0.0,0.0,0.0,0.0,0.0,0.0,4.9884,0.0,5.1426,5.2087,5.2894,5.3225,5.3225,5.3225,5.2784,5.2197,5.205,5.1977,5.1867,5.1242,5.1353,0.0,0.0,0.0,0.0,0.0,0.0,0.0,0.0,0.0,5.161,0.0,0.0,0.0,5.1536,5.1242,5.1206,5.2527,5.3408,5.4473,5.6124,5.7647,5.9087,6.0492,6.1863,6.2962,6.359,6.2889,6.2187,6.1671,6.1429,6.104,6.0419,6.086,6.0933,6.0419,6.0272,5.9869,5.9245,5.9061,5.8657,5.7997,5.7997,5.7997,5.7997,5.7997,5.7997,5.7997,5.7997,5.7997,5.7997,5.7997,5.8364,5.8988,5.9171,5.9612,6.0309,6.1777,6.2438,6.2585,6.2585,6.3209,6.409,4.3497,4.3823,0.0,0.0,0.0,0.0,0.0,0.0,0.0,0.0,0.0,0.0,0.0,0.0,0.0,0.0,0.0,0.0,5.3188,0.0,0.0,0.0,0.0,0.0,4.9067,0.0,0.0,0.0,0.0,0.0,0.0,0.0,0.0,0.0,4.9114,0.0,0.0,0.0,4.9407,0.0,5.1536,5.1903,0.0,5.2894,5.3225,5.3225,5.3225,5.3151,5.2968,0.0,5.1977,5.1977,0.0,5.1426,5.1242,5.2747,0.0,0.0,0.0,0.0,0.0,0.0,5.4509,0.0,0.0,0.0,5.1573,5.1059,0.0,5.0875,5.1059,0.0,0.0,0.0,5.3931,5.6137,5.4912,5.6444,5.8727,6.1732,6.128,6.1017,6.1732,6.0778,6.0159,6.0394,5.9832,5.9758,6.0382,5.9722,5.9318,5.9208,5.851,5.8107,5.7997,5.7997,5.7997,5.7997,5.7997,5.7997,5.7997,5.7997,5.7997,5.7997,5.7997,5.8033,5.818,5.8914,5.9281,5.9428,6.0346,6.1117,6.1741,6.1741,6.2732,6.409,4.3497,4.3791,0.0,0.0,0.0,0.0,0.0,0.0,0.0,0.0,0.0,0.0,0.0,0.0,0.0,0.0,0.0,5.0454,0.0,0.0,0.0,0.0,0.0,0.0,0.0,0.0,0.0,0.0,4.9589,0.0,0.0,0.0,0.0,0.0,5.0325,0.0,4.9407,0.0,5.0582,0.0,0.0,0.0,0.0,5.3261,5.3225,5.3261,5.3739,5.3922,5.3775,0.0,5.3004,0.0,0.0,0.0,0.0,0.0,0.0,0.0,0.0,0.0,0.0,0.0,0.0,0.0,5.3041,0.0,5.205,0.0,0.0,0.0,0.0,0.0,0.0,0.0,5.2008,0.0,5.344,5.395,5.5435,5.8528,0.0,0.0,5.8113,5.7712,5.7454,5.7598,5.7747,5.8008,5.8343,5.873,5.8894,5.8894,5.8326,5.7997,5.7997,5.7997,5.7997,5.7997,5.7997,5.7997,5.7997,5.7997,5.7997,5.7997,5.7997,5.7997,5.8033,5.8364,5.851,5.8547,5.8877,5.9795,6.097,6.141,6.2034,6.2732,4.3497,0.0,0.0,0.0,0.0,0.0,0.0,0.0,0.0,0.0,0.0,0.0,5.3495,5.331,0.0,0.0,5.2229,5.1525,0.0,0.0,4.9894,4.9822,5.0898,0.0,0.0,0.0,0.0,0.0,0.0,0.0,0.0,0.0,0.0,0.0,0.0,5.0912,4.9774,0.0,5.1903,5.1903,5.3298,5.4216,5.4656,5.4069,5.3849,5.3922,5.4509,5.4583,5.4326,5.3995,5.4106,0.0,5.3298,0.0,0.0,0.0,0.0,0.0,5.4583,0.0,0.0,0.0,0.0,0.0,0.0,0.0,0.0,0.0,0.0,0.0,0.0,0.0,0.0,0.0,0.0,5.1836,0.0,5.195,5.2946,5.5519,0.0,0.0,0.0,5.5593,5.5492,5.5588,5.5588,5.5927,5.6832,5.7491,5.8086,5.8676,5.8375,5.8142,5.7997,5.7997,5.7997,5.7997,5.7997,5.7997,5.7997,5.7997,5.7997,5.7997,5.7997,5.7997,5.7997,5.7997,5.7997,5.7997,5.7997,5.8694,5.9832,6.0639,6.1227,6.1667,4.3497,4.3791,0.0,0.0,0.0,0.0,0.0,0.0,0.0,0.0,0.0,0.0,0.0,0.0,0.0,0.0,0.0,5.1669,5.3683,0.0,4.937,4.6214,4.9887,5.0265,0.0,0.0,0.0,0.0,0.0,0.0,0.0,0.0,0.0,0.0,0.0,5.1683,5.3004,5.2307,5.2858,5.4363,5.517,5.5537,5.5537,0.0,5.55,5.5537,5.5537,0.0,0.0,5.5244,5.5023,0.0,0.0,0.0,0.0,0.0,0.0,0.0,0.0,0.0,0.0,5.6161,0.0,0.0,0.0,0.0,5.5023,0.0,0.0,0.0,0.0,0.0,0.0,0.0,0.0,0.0,0.0,0.0,5.1375,5.3084,0.0,0.0,0.0,5.5576,5.5256,5.5583,5.3408,5.3483,5.6719,5.612,5.6624,5.8639,5.8713,5.8461,5.7997,5.7997,5.7997,5.7997,5.7997,5.7997,5.7997,5.7997,5.7997,5.7997,5.7997,5.7997,5.7997,5.7997,5.7997,5.7997,5.7997,5.8033,5.818,5.8988,6.0272,6.1594,0.0,0.0,0.0,0.0,0.0,0.0,0.0,4.6799,0.0,0.0,0.0,0.0,0.0,5.829,5.8051,0.0,0.0,5.4632,5.4252,5.3093,0.0,0.0,0.0,5.1948,0.0,0.0,0.0,0.0,0.0,0.0,0.0,0.0,0.0,0.0,0.0,5.1903,0.0,0.0,0.0,0.0,0.0,5.6712,5.7079,0.0,5.5244,5.4876,5.539,5.5427,0.0,5.55,5.5757,5.5941,5.5684,5.539,5.517,5.517,5.6124,0.0,0.0,0.0,5.9538,5.7666,0.0,0.0,0.0,0.0,0.0,0.0,0.0,0.0,0.0,0.0,0.0,0.0,0.0,0.0,0.0,0.0,4.7932,0.0,0.0,0.0,0.0,5.2823,5.2816,5.237,5.1567,5.2103,5.432,5.4922,5.5889,5.745,5.7713,5.7905,5.7997,5.7997,5.7997,5.7997,5.7997,5.7997,5.7997,5.7997,5.7997,5.7997,5.7997,5.7997,5.7997,5.7997,5.7997,5.7997,5.7997,5.7997,5.8107,5.8914,5.9905,6.0981,4.3534,0.0,0.0,0.0,0.0,0.0,0.0,0.0,0.0,0.0,5.6809,0.0,6.1704,0.0,6.0933,0.0,5.8584,5.6748,5.4546,5.4473,0.0,5.1977,5.3298,0.0,0.0,0.0,0.0,0.0,0.0,5.1499,0.0,0.0,0.0,0.0,0.0,5.2417,5.2491,5.3592,5.4069,0.0,0.0,5.7556,0.0,0.0,5.6308,5.6161,0.0,5.6271,5.6051,5.6345,5.6602,5.6748,5.6528,5.6235,5.6014,5.6014,5.6969,5.7997,5.7997,5.9171,0.0,5.8767,5.8253,0.0,5.5684,0.0,0.0,0.0,0.0,0.0,0.0,0.0,0.0,0.0,0.0,0.0,0.0,4.6355,0.0,0.0,0.0,0.0,5.0702,5.0894,5.0818,5.0279,4.9702,5.0202,5.2202,5.3315,5.4683,5.638,5.7228,5.7736,5.7997,5.7997,5.7997,5.7997,5.7997,5.7997,5.7997,5.7997,5.7997,5.7997,5.7997,5.7997,5.7997,5.7997,5.7997,5.7997,5.7997,5.7997,5.807,5.8584,5.9465,6.0662,0.0,0.0,0.0,0.0,4.4342,0.0,0.0,0.0,5.4312,0.0,6.0038,6.2108,6.3025,6.3025,6.2658,6.1777,6.0272,5.7997,5.484,5.6088,0.0,0.0,5.3592,5.3445,4.871,0.0,0.0,0.0,0.0,0.0,0.0,0.0,0.0,0.0,5.3225,0.0,5.3298,5.4876,5.5574,5.5794,5.7373,5.8033,5.807,5.8033,5.851,5.9098,5.8253,5.7446,5.6932,5.7666,5.7446,5.7005,5.7776,5.7483,5.6859,5.6859,5.7446,5.807,5.8107,5.9245,6.0272,5.9538,0.0,0.0,0.0,0.0,6.0052,0.0,0.0,0.0,0.0,0.0,0.0,0.0,0.0,0.0,0.0,0.0,0.0,0.0,0.0,4.8663,5.0394,4.9817,4.9317,4.9279,4.7778,4.7932,5.0433,5.1395,5.2968,5.5433,5.7167,5.8053,5.8006,5.7997,5.7997,5.7997,5.7997,5.7997,5.7997,5.7997,5.7997,5.7997,5.7997,5.7997,5.7997,5.7997,5.7997,5.7997,5.7997,5.7997,5.7997,5.807,5.9061,6.0562,4.4305,4.5039,4.6027,0.0,4.6982,4.7169,0.0,0.0,0.0,0.0,6.2794,6.5118,6.7136,6.6256,6.4971,6.3576,6.1924,0.0,0.0,0.0,0.0,5.506,5.5941,5.5354,5.2894,5.3445,0.0,5.194,0.0,0.0,5.2894,0.0,0.0,0.0,0.0,5.3225,5.3298,5.4289,5.539,5.6565,5.7593,5.8364,5.8841,0.0,5.851,5.9024,5.7629,5.6969,5.6822,5.7042,5.7373,5.774,5.7923,5.785,5.7703,5.7703,5.8253,5.9024,5.9612,6.0529,6.1227,6.1043,6.0676,6.0236,0.0,0.0,0.0,0.0,0.0,0.0,0.0,0.0,0.0,0.0,0.0,0.0,0.0,0.0,0.0,4.7971,0.0,4.6894,4.8586,4.8586,4.8202,4.7586,4.6547,4.674,4.8663,0.0,5.2012,5.4192,5.6166,5.7639,5.8508,5.815,5.7997,5.7997,5.7997,5.7997,5.7997,5.7997,5.7997,5.7997,5.7997,5.7997,5.7997,5.7997,5.7997,5.7997,5.7997,5.7997,5.8143,5.9355,5.9891,6.0295,4.5149,0.0,0.0,4.8973,0.0,0.0,5.2262,5.387,0.0,6.1006,6.4053,0.0,6.721,6.7136,6.6366,6.4751,6.3099,0.0,5.9832,0.0,0.0,5.7409,5.7666,5.6785,5.4436,5.4069,0.0,5.2674,0.0,0.0,5.3225,0.0,0.0,0.0,0.0,5.3408,5.3812,5.495,5.6161,5.7373,5.7813,5.8253,0.0,5.818,5.829,5.8584,5.7666,5.7336,5.7336,5.7336,5.7629,5.7997,5.7997,5.7997,5.7997,5.7997,5.8584,5.9318,5.9758,6.0713,6.1594,6.1594,6.1814,6.1814,6.108,6.2181,6.2915,0.0,0.0,0.0,0.0,0.0,0.0,0.0,0.0,0.0,0.0,0.0,0.0,0.0,4.7278,4.6932,4.7509,4.724,4.6817,4.6355,4.624,4.6394,4.6971,0.0,5.1289,5.2615,5.5404,5.7264,5.8154,5.8378,5.8364,5.7997,5.7997,5.7997,5.7997,5.7997,5.7997,5.7997,5.7997,5.7997,5.7997,5.7997,5.7997,5.8042,5.8238,5.8326,5.8474,5.9955,6.0269,6.0136,4.603,0.0,0.0,0.0,0.0,0.0,0.0,5.6768,0.0,6.1741,0.0,6.6696,6.6035,6.699,6.71,6.5595,0.0,6.2401,6.097,6.1447,6.075,5.8584,5.9061,5.796,5.495,5.3885,5.3004,0.0,0.0,5.2417,5.3225,0.0,0.0,0.0,0.0,0.0,0.0,5.5794,5.6895,5.7556,5.7776,5.7923,5.7997,5.7997,5.7997,5.7997,5.7997,5.7997,5.7997,5.7997,5.7997,5.7997,5.7997,5.7997,5.7997,5.7997,5.851,5.9098,5.9171,6.0309,6.1484,6.1557,6.2768,6.3576,6.2218,6.3025,6.3686,6.2218,6.1851,6.1227,0.0,0.0,0.0,0.0,0.0,0.0,0.0,0.0,0.0,0.0,0.0,0.0,4.7124,4.6278,4.5701,4.5586,4.6317,4.6394,4.5624,0.0,5.0657,5.1294,5.4647,5.6851,5.7635,5.8607,5.8767,5.8143,5.8033,5.7997,5.7997,5.7997,5.7997,5.7997,5.7997,5.7997,5.7997,5.7997,5.8042,5.8142,5.8549,5.8716,5.891,6.0112,6.0266,6.0076,4.6764,0.0,0.0,0.0,0.0,5.5711,5.9627,6.1606,6.3319,6.5375,6.7871,6.9412,6.9265,6.8311,6.732,6.6366,6.4824,0.0,0.0,0.0,0.0,6.1006,6.0456,5.9318,5.7409,5.528,5.4106,0.0,5.2637,5.2417,5.3225,0.0,0.0,0.0,0.0,0.0,5.2527,5.4142,0.0,5.5133,5.6492,5.7409,5.7997,5.7997,5.7997,5.7997,5.7997,5.7997,5.7997,5.7997,5.7997,5.7997,5.7997,5.7997,5.7997,5.7997,5.8107,5.8364,5.9024,5.9905,6.0786,6.141,6.2328,6.3135,6.3576,6.387,6.4016,6.3723,6.3099,6.1924,5.9648,0.0,0.0,0.0,0.0,0.0,0.0,0.0,0.0,0.0,0.0,4.8048,4.7894,4.7163,4.6355,4.5663,4.574,4.574,4.5586,0.0,4.9567,0.0,5.3698,5.6086,0.0,0.0,5.8474,5.8988,5.8327,5.7997,5.7997,5.7997,5.7997,5.7997,5.7997,5.7997,5.7997,5.7997,5.8238,5.8591,5.8673,5.8951,5.9357,5.9975,6.0144,6.0159,0.0,0.0,0.0,0.0,0.0,0.0,0.0,6.4217,6.5485,6.5815,6.6512,6.7136,6.7577,6.765,6.7357,6.6549,6.5411,6.453,6.4127,6.3282,6.2438,6.163,6.1227,6.0272,5.8657,5.6271,5.5023,5.5023,5.2968,5.2417,0.0,0.0,0.0,5.3225,0.0,5.3004,0.0,0.0,0.0,5.517,5.6785,5.7666,5.7997,5.7997,5.7997,5.7997,5.7997,5.7997,5.7997,5.7997,5.7997,5.7997,5.7997,5.7997,5.7997,5.7997,5.7997,5.807,5.8474,5.9465,6.0493,6.0896,6.1924,6.3025,6.3906,6.409,6.409,6.409,6.3759,6.2475,5.9171,5.528,0.0,0.0,0.0,0.0,0.0,0.0,0.0,0.0,0.0,0.0,0.0,0.0,0.0,0.0,0.0,4.6086,4.5624,0.0,4.9086,0.0,0.0,0.0,5.8401,0.0,5.8961,5.8924,5.8281,5.7997,5.7997,5.7997,5.7997,5.7997,5.7997,5.7997,5.8042,5.8282,5.8503,5.8716,5.9212,5.9559,5.9823,6.0311,6.0482,6.0494,0.0,5.2344,0.0,0.0,5.851,0.0,6.3686,6.5742,6.6769,6.6145,6.5375,6.5154,6.5999,6.7026,6.743,6.6806,6.5852,6.5044,6.4383,6.3392,6.2511,6.1887,6.1704,6.0933,5.9501,5.6932,5.55,0.0,5.3078,5.2307,0.0,0.0,0.0,0.0,0.0,0.0,0.0,0.0,5.5427,5.5721,5.7152,5.785,5.7997,5.7997,5.7997,5.7997,5.7997,5.7997,5.7997,5.7997,5.7997,5.7997,5.7997,5.7997,5.7997,5.7997,5.7997,5.7997,5.7997,5.9171,6.0419,6.0419,6.163,6.2989,6.3686,6.3796,6.3796,6.3796,6.3539,6.2181,5.8437,5.517,0.0,0.0,0.0,0.0,0.0,0.0,0.0,0.0,0.0,0.0,4.5855,0.0,0.0,0.0,0.0,4.6317,4.5624,4.7048,4.8625,0.0,0.0,5.5663,5.7558,0.0,5.9421,5.8974,5.8305,5.7997,5.7997,5.7997,5.7997,5.7997,5.7997,5.8088,5.8186,5.8549,5.8796,5.9065,5.9823,6.0161,6.0311,6.0647,6.0781,6.0781,0.0,0.0,0.0,0.0,0.0,0.0,6.4053,6.6696,6.8641,6.8568,6.7871,6.765,6.8495,6.8054,6.765,6.7577,6.6182,6.5264,6.5191,6.3686,6.2768,6.2695,6.1998,6.119,6.0309,5.7189,5.5244,0.0,5.2821,5.205,0.0,0.0,0.0,0.0,0.0,0.0,0.0,5.3812,5.4913,5.5684,5.6565,5.7336,5.7997,5.7997,5.7997,5.7997,5.7997,5.7997,5.7997,5.7997,5.7997,5.7997,5.7997,5.7997,5.7997,5.7997,5.7997,5.7997,5.7997,5.9171,6.0419,6.0419,6.163,6.2842,6.2915,6.2915,6.2915,6.2915,6.1777,5.9979,5.7409,5.6602,5.5785,0.0,0.0,0.0,0.0,0.0,0.0,5.1029,0.0,0.0,0.0,4.6394,0.0,0.0,4.5663,4.5701,4.5586,4.6509,4.7778,4.9471,5.237,5.5091,5.7463,5.8389,5.916,5.9752,5.8563,5.7997,5.7997,5.7997,5.7997,5.7997,5.7997,5.8238,5.8632,5.8713,5.9176,5.9977,6.0074,6.0365,6.0734,6.0781,6.0781,6.0781,0.0,0.0,0.0,0.0,0.0,0.0,0.0,6.8091,6.9082,6.9559,6.8935,6.8531,6.8862,6.8164,6.7687,6.7687,6.6659,6.6035,6.6035,6.4494,6.3576,6.3576,6.2768,6.1741,6.0419,5.8657,5.6675,0.0,0.0,0.0,0.0,0.0,0.0,0.0,0.0,5.2564,5.2821,5.4436,5.5317,5.5684,5.7005,5.7703,5.7997,5.7997,5.7997,5.7997,5.7997,5.7997,5.7997,5.7997,5.7997,5.7997,5.7997,5.7997,5.7997,5.7997,5.7997,5.7997,5.7997,5.9171,6.0419,6.0419,6.163,6.2952,6.3466,6.3172,6.2952,6.3466,6.1887,6.0126,5.9134,5.7373,5.614,0.0,0.0,0.0,0.0,0.0,0.0,0.0,0.0,4.8373,0.0,4.5932,0.0,0.0,0.0,4.5586,4.5586,4.5932,4.7124,4.9317,0.0,5.4656,5.7186,5.8753,5.9578,5.9553,5.8781,5.8282,5.7997,5.7997,5.7997,5.8042,5.8326,5.8508,5.8716,5.9284,5.976,6.0132,6.0391,6.0622,6.0781,6.0781,6.0781,6.0781,5.8694,0.0,6.141,0.0,6.5154,6.6623,6.8898,6.9449,6.9743,7.0073,6.9816,6.9449,6.8972,6.8385,6.7944,6.7724,6.6953,6.6402,6.6145,6.4861,6.398,6.3723,6.3135,0.0,6.0456,5.9612,5.774,5.473,5.506,0.0,0.0,0.0,0.0,0.0,5.3115,5.3371,5.3995,5.5354,5.6088,5.6381,5.7519,5.7997,5.7997,5.7997,5.7997,5.7997,5.7997,5.7997,5.7997,5.7997,5.7997,5.7997,5.7997,5.7997,5.8033,5.829,5.8364,5.84,5.8621,5.9722,6.075,6.075,6.1777,6.2989,6.3576,6.3246,6.2915,6.3282,6.1961,6.0603,6.0126,5.818,5.6859,5.7556,0.0,0.0,0.0,0.0,0.0,0.0,4.9908,4.7876,4.5817,4.5586,0.0,0.0,0.0,4.6086,4.6317,4.6124,4.7009,0.0,0.0,0.0,5.6973,5.9049,5.9855,5.9389,5.8913,5.8461,5.7997,5.7997,5.7997,5.8042,5.8503,5.8756,5.899,5.9792,6.0161,6.0338,6.0647,6.0781,6.0781,6.0781,6.0781,6.0781,6.108,6.2879,6.4787,6.721,6.8972,7.0036,7.0073,7.077,7.0991,7.0183,7.0807,7.0697,6.9082,6.8898,6.8568,6.776,6.6953,6.6145,6.5375,6.453,6.3723,0.0,0.0,6.2071,6.0456,5.9612,5.8033,5.5574,0.0,0.0,5.2013,0.0,5.3225,5.3298,5.484,5.5537,5.5611,5.6455,5.7262,5.796,5.7997,5.7997,5.7997,5.7997,5.7997,5.7997,5.7997,5.7997,5.7997,5.7997,5.7997,5.7997,5.7997,5.7997,5.8143,5.8951,5.9208,5.9391,6.0162,6.097,6.1594,6.1594,6.2218,6.2805,6.2805,6.2805,6.2585,6.1777,6.1594,6.108,5.9538,5.9208,5.8657,5.7079,0.0,0.0,0.0,0.0,0.0,5.1751,5.052,4.8823,4.5876,4.5586,0.0,0.0,0.0,0.0,0.0,0.0,0.0,4.9356,5.2702,0.0,5.6973,5.9049,5.9855,5.9389,5.8913,5.8461,5.7997,5.7997,5.7997,5.8042,5.8503,5.899,5.9424,5.9916,6.0365,6.0781,6.0781,6.0781,6.0781,6.0781,6.0781,6.0781,6.2915,6.4163,6.5521,6.7357,6.9009,7.0293,7.0844,7.1615,7.2018,7.1762,7.1505,7.0917,6.9816,6.9229,6.8568,0.0,6.7467,6.699,0.0,6.5375,6.4567,6.3723,6.3135,6.2071,6.0456,6.0162,5.8584,5.5574,0.0,0.0,0.0,5.495,5.484,5.484,5.5354,5.6198,5.7262,5.7519,5.807,5.8767,5.8217,5.8327,5.8767,5.8217,5.8694,5.9575,5.9024,5.8841,5.8841,5.8841,5.8437,5.7997,5.7997,5.7997,5.8033,5.8327,5.8767,5.9281,5.9538,6.0566,6.1594,6.1594,6.2658,6.3539,6.2952,6.2805,6.2732,6.2475,6.1998,6.1263,6.0236,5.9575,5.8877,5.7776,5.7994,0.0,0.0,0.0,0.0,4.9936,4.8334,4.698,4.5722,4.6624,0.0,0.0,0.0,0.0,0.0,0.0,0.0,0.0,5.3549,0.0,5.7857,5.9381,6.0044,5.9885,5.9389,5.8951,5.8461,5.8142,5.815,5.8466,5.899,5.9424,5.9916,6.0365,6.0647,6.0781,6.0781,6.0781,6.0781,6.0781,6.0781,6.0781,6.3833,6.4971,6.6256,6.7871,6.9486,7.0807,7.1651,7.2202,7.2496,7.2496,7.2055,7.1321,7.022,6.9633,0.0,6.7797,6.7687,6.7357,6.6549,6.6035,6.5264,6.4127,6.3576,6.2511,6.0896,6.086,0.0,5.6969,5.7042,5.6822,5.6345,5.5831,5.5757,5.6088,5.6675,5.7519,5.8437,5.8437,5.8914,5.9575,5.8767,5.8951,5.9612,5.9098,5.9538,6.0309,5.9501,5.9208,5.9171,5.8877,5.8437,5.8033,5.8364,5.8437,5.851,5.8804,5.9465,6.0162,6.0493,6.152,6.2438,6.2144,6.3319,6.4347,6.3503,6.3062,6.2805,6.2805,6.2144,6.1337,6.0566,5.9758,5.8951,5.8143,5.774,5.6809,5.4637,0.0,0.0,0.0,0.0,0.0,0.0,4.8355,4.9394,0.0,0.0,0.0,0.0,0.0,0.0,5.1587,5.4587,5.7011,5.8742,5.9818,6.0283,6.0103,5.9625,5.9139,5.8713,5.8591,5.8591,5.8753,5.9389,5.9823,6.0132,6.0622,6.0781,6.0781,6.0781,6.0781,6.0781,6.0781,6.0781,6.0781,6.409,6.5521,6.71,0.0,7.0293,0.0,7.2386,7.2496,7.2496,7.2496,7.2459,7.1835,7.0257,7.011,6.9449,6.7834,0.0,0.0,0.0,6.6512,6.5778,6.4163,6.409,6.3319,6.163,6.1594,6.0823,5.9208,5.7005,5.5904,5.5831,5.5904,5.6308,5.7116,5.8621,5.9318,5.9391,5.9318,5.9758,6.0419,5.9612,5.9795,6.0493,6.0419,6.0493,6.0456,5.9685,5.9355,5.9208,5.8474,5.8143,5.8143,5.9024,5.9281,5.9428,6.0199,6.097,6.1741,6.2511,6.3392,6.3906,6.3099,6.4127,6.5081,6.4273,6.3466,6.2879,6.2805,6.2218,6.141,6.0566,5.9795,5.8988,5.807,5.7189,5.5794,5.3371,0.0,5.0892,0.0,0.0,0.0,4.8432,5.0548,5.1702,0.0,0.0,0.0,0.0,0.0,5.0933,5.3318,5.5857,5.7973,5.9588,6.0373,6.0533,6.0103,5.9658,5.9212,5.8796,5.9212,5.9176,5.8835,5.9728,6.0132,6.0189,6.0622,6.0781,6.0781,6.0781,6.0781,6.0781,6.0781,6.0781,6.0781,0.0,0.0,6.7907,6.9522,7.066,7.1578,7.2386,7.2496,7.2496,7.2496,7.1982,7.1211,7.022,7.011,6.9449,6.7834,6.7687,6.7357,6.6549,6.6512,6.5778,6.4163,6.409,6.3319,6.163,6.1594,6.0823,5.9208,5.9245,5.8951,5.8364,5.8988,5.9391,5.9575,5.9942,6.0456,6.1006,6.0382,6.0566,6.1263,6.0456,6.0603,6.1263,6.0639,6.1153,6.2144,6.1337,6.0639,6.0199,6.0603,5.9501,5.8253,5.9685,6.0126,6.0162,6.0346,6.097,6.163,6.1814,6.2952,6.4053,6.3833,6.4567,6.5081,6.4273,6.3943,6.3613,6.2952,6.2658,6.2071,6.0676,6.0236,5.9465,5.7409,5.5904,5.4142,5.172,5.0935,5.0001,0.0,4.9822,5.0955,5.099,5.2164,5.2818,0.0,0.0,0.0,5.3857,5.4087,5.4472,5.5088,5.7588,5.9435,6.0473,6.0341,6.0189,6.0103,5.9977,5.9885,5.976,5.9492,5.9526,5.9792,5.9977,6.0311,6.0647,6.0757,6.0781,6.0781,6.0781,6.0781,6.0781,6.0781,6.0781,6.0704,6.6256,6.7136,6.8201,6.9816,7.077,7.1578,7.2386,7.2496,7.2496,7.2496,7.2129,7.1541,7.0734,7.066,7.0146,6.8898,6.8458,6.7907,6.71,6.6696,6.5962,6.4714,6.431,6.3466,6.2181,6.2144,6.1557,6.0309,6.0382,6.0199,5.9758,6.0199,6.0419,6.0419,6.0786,6.119,6.1557,6.1117,6.141,6.2071,6.1263,6.1447,6.2108,6.1667,6.2034,6.2695,6.1887,6.13,6.097,6.1043,6.0162,5.9318,6.0566,6.0933,6.1006,6.141,6.2108,6.2732,6.2732,6.3943,6.5264,6.5632,6.5228,6.4714,6.4677,6.4347,6.3833,6.2989,6.2511,6.1887,6.0639,6.0126,5.8951,5.6161,5.4987,5.3345,5.0341,5.0216,5.0259,4.9754,5.1558,5.3015,5.3567,5.5126,5.5434,5.3895,5.478,0.0,5.5049,5.6549,5.728,5.6896,5.8973,6.0319,6.0781,6.0533,6.043,6.043,6.043,6.0311,6.0103,6.0074,6.0074,6.0103,6.0338,6.0533,6.0781,6.0781,6.0781,6.0781,6.0781,6.0781,6.0781,6.0781,6.0781,6.0666,6.6696,6.7504,6.8531,7.0036,7.0954,7.1725,7.2422,7.2496,7.2496,7.2496,7.2496,7.2202,7.1394,7.1431,7.1101,7.0183,6.9486,6.8752,6.7907,6.7136,6.6329,6.5521,6.4824,6.4053,6.3209,6.3062,6.2548,6.1594,6.1043,6.0713,6.0566,6.0713,6.0786,6.0786,6.1484,6.1777,6.1777,6.1777,6.2181,6.2768,6.2071,6.2181,6.2805,6.2805,6.2805,6.2732,6.2034,6.1704,6.152,6.097,6.0603,6.0566,6.1484,6.1704,6.1777,6.2732,6.3613,6.4237,6.4127,6.5264,6.6659,6.7357,6.6072,6.4751,6.5191,6.4787,6.4053,6.3172,6.2365,6.1484,6.0566,5.9758,5.8217,5.5097,5.4228,5.2736,4.9368,0.0,5.1092,5.1356,5.3667,5.5511,5.6203,5.8127,5.8242,5.5665,5.7742,5.8357,5.6549,5.8396,5.9242,5.8704,6.005,6.0781,6.0781,6.0781,6.0781,6.0781,6.0781,6.0597,6.0217,6.0622,6.0597,6.0217,6.0622,6.0781,6.0781,6.0781,6.0781,6.0781,6.0781,6.0781,6.0781,6.0781,6.0781,6.0666,6.8238,6.9192,7.0036,7.0954,7.1798,7.2349,7.2496,7.2496,7.2496,7.2496,7.2496,7.2202,7.1394,7.1908,7.1725,7.022,7.0,6.9559,6.8788,6.7944,6.7136,6.6366,6.6182,6.5742,6.4934,6.4237,6.3135,6.1594,6.2181,6.2071,6.141,6.2108,6.2438,6.2438,6.2585,6.2622,6.2622,6.2622,6.2695,6.2805,6.2658,6.2695,6.2805,6.2805,6.2805,6.2805,6.2658,6.2181,6.1667,6.2254,6.152,6.0676,6.2144,6.2144,6.1887,6.3429,6.4494,6.4971,6.4273,6.5264,6.6512,6.6659,6.6916,6.6806,6.5595,6.5191,6.4897,6.4053,6.3209,6.2181,6.0676,5.9758,5.8364,5.5831,5.3373,5.1118,4.9145,0.0,5.2133,5.1457,5.5738,5.8781,5.8896,5.8665,5.8858,5.9742,5.8319,5.8127,5.9896,5.9704,5.9781,6.0396,6.0666,6.0781,6.0781,6.0781,6.0781,6.0781,6.0781,6.0757,6.0671,6.0757,6.0757,6.071,6.0757,6.0781,6.0781,6.0781,6.0781,6.0781,6.0781,6.0781,6.0781,6.0781,6.0781,6.0589,6.8091,6.9229,7.022,7.0587,7.1267,7.1732,7.1732,7.1323,7.1159,7.1671,7.1732,7.1805,7.1924,7.2275,7.2202,7.1468,7.0991,7.0403,6.9596,6.7981,6.688,6.6512,6.6072,6.5485,6.4677,6.3833,6.3025,6.2254,6.2622,6.2622,6.2254,6.2658,6.2805,6.2805,6.2805,6.2805,6.2805,6.2805,6.2805,6.2805,6.2805,6.2805,6.2805,6.2805,6.2805,6.2805,6.2805,6.2585,6.2291,6.2695,6.2328,6.1814,6.2585,6.2548,6.2475,6.3723,6.4971,6.5962,6.5999,6.6256,6.6586,6.7026,6.71,6.6843,6.6109,6.5962,6.5595,6.4347,6.3759,6.2879,6.0786,5.9758,5.8345,5.5743,5.305,0.0,5.1005,5.1939,5.3097,5.4273,5.7443,5.9665,6.0165,5.9858,5.9781,6.0089,5.9011,5.8858,6.005,5.9704,5.9896,6.0781,6.0781,6.0781,6.0781,6.0781,6.0781,6.0781,6.0781,6.0781,6.0781,6.0781,6.0781,6.0781,6.0781,6.0781,6.0781,6.0781,6.0781,6.0781,6.0781,6.0781,6.0781,6.0781,6.0781,6.055,6.8201,6.9376,7.044,7.0624,7.0896,7.1095,7.1095,7.0332,7.0058,7.0995,7.1095,7.1448,7.2438,7.2496,7.2496,7.2496,7.1762,7.1064,7.0403,6.8458,6.7173,6.6806,6.6182,6.5485,6.4677,6.3833,6.3319,6.3099,6.2915,6.2805,6.2805,6.2805,6.2805,6.2805,6.2805,6.2805,6.2805,6.2805,6.2805,6.2805,6.2805,6.2805,6.2805,6.2805,6.2805,6.2805,6.2805,6.2805,6.2805,6.2805,6.2805,6.2805,6.2805,6.2805,6.3025,6.4053,6.5521,6.6916,6.7504,6.7247,6.6916,6.754,6.7247,6.6733,6.6549,6.6366,6.5815,6.4383,6.3943,6.3172,6.108,5.9869,5.8436,5.6028,0.0,5.2456,0.0,5.3492,5.4709,5.6758,5.8665,6.0089,6.0742,6.0781,6.0512,5.9858,5.9819,5.9819,5.9819,5.9819,6.0127,6.0781,6.0781,6.0781,6.0781,6.0781,6.0781,6.0781,6.0781,6.0781,6.0781,6.0781,6.0781,6.0781,6.0781,6.0781,6.0781,6.0781,6.0781,6.0781,6.0781,6.0781,6.0781,6.0781,6.0781,6.055,6.9779,7.0624,7.1468,7.2202,7.1623,7.1095,7.1095,7.0332,7.0058,7.0995,7.1095,7.1448,7.2438,7.2496,7.2496,7.2496,7.1762,7.1284,7.1248,7.0367,6.9155,6.765,6.754,6.7136,6.6329,6.5521,6.4751,6.398,6.3209,6.2805,6.2805,6.2805,6.2805,6.2805,6.2805,6.2805,6.2805,6.2805,6.2805,6.2805,6.2805,6.2805,6.2805,6.2805,6.2805,6.2805,6.2805,6.2805,6.2805,6.2805,6.2805,6.2805,6.2805,6.2805,6.3135,6.4751,6.6366,6.7614,6.765,6.765,6.7614,6.7687,6.765,6.7393,6.6659,6.5925,6.5154,6.4273,6.3466,6.2622,6.1667,6.0236,5.8768,5.7475,0.0,0.0,5.391,5.6113,5.7643,5.7049,5.9204,6.0742,6.0781,6.0781,6.0781,6.0704,6.0704,6.0704,6.0704,6.0704,6.0742,6.0781,6.0781,6.0781,6.0781,6.0781,6.0781,6.0781,6.0781,6.0781,6.0781,6.0781,6.0781,6.0781,6.0781,6.0781,6.0781,6.0781,6.0781,6.0781,6.0781,6.0781,6.0781,6.0781,6.0781,6.055,6.855,6.9669,7.0477,7.0293,6.9849,6.9515,6.9515,6.8593,6.8628,7.0699,7.055,7.0979,7.3039,7.2789,7.2496,7.2496,7.2239,7.1835,7.1358,7.1027,7.0146,6.8495,6.7504,6.6806,6.6512,6.5705,6.5154,6.4861,6.4016,6.3613,6.3576,6.3062,6.3099,6.3576,6.3062,6.3135,6.3562,6.3062,6.2805,6.2805,6.2805,6.2805,6.2805,6.2805,6.2805,6.2805,6.2805,6.2805,6.2805,6.2805,6.3172,6.3613,6.3613,6.3943,6.4567,6.5705,6.6843,6.7687,6.7687,6.7687,6.7687,6.7687,6.7687,6.7467,6.6659,6.6256,6.5668,6.4347,6.3833,6.3209,6.1851,6.0272,5.9227,5.9364,0.0,5.5458,5.7098,5.7905,5.8357,5.8511,6.0358,6.1396,6.0858,6.0781,6.0781,6.0781,6.0781,6.105,6.1589,6.2089,6.2127,6.1627,6.1589,6.1358,6.0819,6.0781,6.0781,6.0781,6.0781,6.0781,6.0781,6.0781,6.0781,6.0781,6.0781,6.0781,6.0781,6.0781,6.0781,6.0781,6.0781,6.0781,6.0781,6.0781,6.0473,5.9819,6.8019,6.9155,7.0,6.9706,6.8994,6.861,6.8858,6.8197,6.8452,7.0625,7.0877,7.1596,7.3516,7.3193,7.2789,7.2532,7.2496,7.2275,7.1725,7.1211,7.033,6.8972,6.7614,6.688,6.688,6.6109,6.5705,6.5705,6.4861,6.4494,6.4457,6.387,6.3906,6.4457,6.3833,6.3796,6.4075,6.3466,6.3025,6.2805,6.2805,6.2805,6.2842,6.3099,6.3062,6.2842,6.3135,6.3025,6.2805,6.2805,6.3392,6.409,6.409,6.4824,6.5778,6.6329,6.7063,6.7614,6.7393,6.732,6.7357,6.7614,6.7504,6.71,6.6329,6.5925,6.5375,6.398,6.3686,6.3356,6.2181,6.086,6.0092,6.0529,5.8449,5.7491,5.961,5.9896,6.0089,6.0627,6.1743,6.2127,6.1281,6.1204,6.1089,6.0819,6.105,6.1589,6.2435,6.2743,6.2781,6.2474,6.1973,6.155,6.1204,6.0935,6.0781,6.0781,6.0781,6.0781,6.0781,6.0781,6.0781,6.0781,6.0781,6.0781,6.0781,6.0781,6.0781,6.0781,6.0781,6.0781,6.0781,6.0781,6.0242,5.9396,6.8696,6.9522,7.033,7.1138,6.9777,6.8787,6.9566,6.9573,6.9834,7.0768,7.2466,7.3579,7.3722,7.3707,7.3377,7.2569,7.2496,7.2496,7.2496,7.0991,6.9743,6.8935,6.8128,6.7687,6.7687,6.6916,6.6512,6.6512,6.5705,6.5301,6.5301,6.5301,6.5301,6.5301,6.5279,6.4875,6.4112,6.4117,6.3603,6.2805,6.2805,6.2805,6.2915,6.3759,6.3576,6.2915,6.3796,6.3539,6.2805,6.2805,6.3392,6.409,6.4127,6.5228,6.6512,6.6512,6.7063,6.7504,6.6733,6.6512,6.6696,6.7467,6.7063,6.6292,6.5485,6.4677,6.3833,6.2989,6.2805,6.2805,6.2805,6.2144,6.1385,6.0717,6.1353,6.1662,6.0916,6.2243,6.332,6.332,6.332,6.2974,6.2166,6.2089,6.1743,6.0858,6.1627,6.2474,6.3281,6.2551,6.2474,6.3281,6.1704,6.1243,6.2089,6.1243,6.0781,6.0781,6.0781,6.0781,6.0781,6.0781,6.0781,6.0781,6.0781,6.0781,6.0781,6.0781,6.0781,6.0781,6.0781,6.0781,6.0781,6.0781,6.0242,5.9396,6.7872,6.8715,6.9339,6.9596,6.9056,6.8684,6.8822,6.9317,7.0162,7.1513,7.2254,7.3116,7.4359,7.4037,7.3377,7.2569,7.2496,7.2496,7.2496,7.0991,7.0,6.9743,6.8421,6.7687,6.7687,6.7467,6.732,6.732,6.6549,6.6145,6.6145,6.5558,6.5595,6.6109,6.5537,6.5191,6.4908,6.4361,6.3603,6.2805,6.2805,6.3172,6.3723,6.398,6.3943,6.3759,6.4016,6.3539,6.2805,6.2805,6.3759,6.5154,6.6256,6.6953,6.732,6.732,6.7504,6.7504,6.6733,6.6916,6.7136,6.6256,6.5852,6.5448,6.464,6.4273,6.3833,6.2989,6.2805,6.2805,6.2805,6.2144,6.18,6.2297,6.2069,6.2041,6.249,6.3512,6.4012,6.3358,6.3858,6.3897,6.3012,6.2435,6.2243,6.2551,6.3358,6.3974,6.4205,6.4551,6.4589,6.4205,6.3743,6.332,6.2935,6.1512,6.0781,6.0781,6.0781,6.0781,6.0781,6.0781,6.0781,6.0781,6.0781,6.0781,6.0781,6.0781,6.0781,6.0781,6.0781,6.0781,6.0742,6.0127,5.9358,5.855,6.8328,6.9045,6.9486,6.9816,6.9454,6.9281,6.9475,7.0193,7.1156,7.2476,7.3297,7.4077,7.4822,7.4478,7.3707,7.2606,7.2496,7.2496,7.2496,7.1284,7.0587,7.0587,6.9339,6.8348,6.7687,6.7687,6.7687,6.7687,6.721,6.6953,6.6953,6.6476,6.6512,6.6953,6.6492,6.6056,6.5713,6.4926,6.4094,6.3296,6.2952,6.3319,6.4127,6.4457,6.4383,6.4127,6.4457,6.3833,6.2805,6.2805,6.3906,6.5595,6.7173,6.7687,6.7687,6.7687,6.7687,6.743,6.6329,6.6366,6.6366,6.4714,6.5044,6.5485,6.4347,6.409,6.3833,6.2989,6.2805,6.2805,6.2805,6.256,6.2554,6.3012,6.3119,6.3334,6.3745,6.4551,6.4936,6.4397,6.4782,6.4628,6.3435,6.2858,6.2781,6.3281,6.3782,6.4397,6.5089,6.5282,6.5282,6.5128,6.4436,6.4012,6.382,6.2166,6.132,6.132,6.0973,6.0781,6.0781,6.0781,6.0781,6.0781,6.0781,6.0781,6.0781,6.0781,6.0781,6.0781,6.0435,6.0281,6.0165,5.9358,5.8511,5.7703,6.9608,7.011,7.0367,7.1174,7.0592,7.0256,7.0951,7.1773,7.2597,7.3327,7.4832,7.5616,7.4882,7.4808,7.4184,7.2642,7.2496,7.2496,7.2496,7.1762,7.1321,7.1321,7.055,6.9376,6.7834,6.7797,6.7797,6.7797,6.7724,6.7687,6.7687,6.7687,6.7687,6.7687,6.7687,6.723,6.6443,6.5639,6.4843,6.4007,6.3135,6.3319,6.4163,6.4897,6.4751,6.42,6.4934,6.4163,6.2805,6.2879,6.398,6.5595,6.71,6.7577,6.7577,6.765,6.765,6.7247,6.5742,6.5375,6.5007,6.3356,6.4714,6.6072,6.4347,6.398,6.3759,6.2989,6.2805,6.2805,6.2805,6.3262,6.3504,6.3239,6.4272,6.5023,6.4731,6.5397,6.5897,6.5897,6.5897,6.5243,6.3589,6.3435,6.3397,6.332,6.3435,6.4243,6.582,6.5166,6.5089,6.5859,6.4359,6.3897,6.4589,6.3012,6.2166,6.2089,6.1204,6.0781,6.0781,6.0781,6.0781,6.0781,6.0781,6.0781,6.0781,6.0781,6.0742,6.0589,5.9819,5.9473,5.9281,5.8473,5.7665,5.6973,6.9608,7.011,7.0367,7.1174,7.1113,7.1039,7.1115,7.1878,7.2498,7.2561,7.3519,7.4147,7.3964,7.3964,7.356,7.2606,7.2496,7.2496,7.2496,7.1762,7.1321,7.1321,7.055,6.9633,6.8678,6.8641,6.8641,6.8641,6.8017,6.7687,6.7687,6.7687,6.7687,6.7687,6.7687,6.723,6.6479,6.5647,6.4802,6.4016,6.3172,6.3319,6.4127,6.4273,6.4237,6.4127,6.431,6.3686,6.2915,6.3603,6.4471,6.5485,6.6459,6.6769,6.6896,6.7504,6.7247,6.6549,6.5595,6.5778,6.5852,6.42,6.5154,6.5888,6.3613,6.3099,6.3025,6.2842,6.2805,6.2805,6.2805,6.3262,6.3691,6.4068,6.4651,6.5214,6.5577,6.5782,6.5897,6.5897,6.5897,6.5474,6.4436,6.432,6.4051,6.3358,6.4551,6.5513,6.5859,6.5705,6.5705,6.5897,6.5513,6.5089,6.4589,6.3551,6.2704,6.2089,6.1204,6.0781,6.0781,6.0781,6.0781,6.0781,6.0781,6.0781,6.0781,6.0781,6.0396,5.9742,5.9588,5.9127,5.8473,5.7588,5.7165,5.6896,7.0799,7.1248,7.1394,7.1798,7.1872,7.1867,7.1781,7.2167,7.2578,7.2947,7.3726,7.4147,7.3744,7.4037,7.378,7.2606,7.2496,7.2496,7.2496,7.2129,7.1872,7.1872,7.1468,7.1064,7.0624,6.9889,6.9082,6.8311,6.7907,6.7687,6.7687,6.7687,6.7687,6.7687,6.7687,6.7247,6.6423,6.5647,6.4839,6.403,6.3135,6.3282,6.4067,6.4141,6.409,6.409,6.4127,6.3539,6.2915,6.3823,6.4646,6.5367,6.582,6.6443,6.7079,6.7153,6.7063,6.6806,6.5632,6.5632,6.5632,6.442,6.442,6.4494,6.3613,6.3723,6.3796,6.2989,6.2805,6.2805,6.2805,6.3453,6.4059,6.4332,6.5003,6.5569,6.5872,6.5897,6.5897,6.5897,6.5897,6.5397,6.4089,6.3628,6.3397,6.332,6.4551,6.5474,6.5859,6.5897,6.5897,6.5897,6.5897,6.5474,6.4628,6.3743,6.2897,6.2089,6.1204,6.0781,6.0781,6.0781,6.0781,6.0781,6.0781,6.0781,6.0781,6.0358,5.9896,5.9435,5.8627,5.805,5.755,5.6703,5.6357,5.6319,7.238,7.2606,7.2532,7.2679,7.2716,7.2716,7.2716,7.2716,7.2936,7.3597,7.4294,7.4404,7.356,7.4111,7.3964,7.2606,7.2496,7.2496,7.2496,7.2496,7.2496,7.2496,7.2496,7.2459,7.2312,7.0844,6.9449,6.8091,6.7834,6.7687,6.7687,6.7687,6.7687,6.7687,6.7687,6.7263,6.6455,6.561,6.4853,6.4044,6.3282,6.3479,6.4117,6.4288,6.431,6.4273,6.431,6.3759,6.3099,6.386,6.4549,6.5138,6.5254,6.615,6.7006,6.6455,6.6659,6.6806,6.5448,6.5081,6.4934,6.4273,6.3576,6.3209,6.3943,6.4494,6.4494,6.3099,6.2805,6.2805,6.2805,6.368,6.437,6.437,6.523,6.5897,6.5897,6.5897,6.5897,6.5897,6.5628,6.4897,6.3435,6.2704,6.2627,6.3474,6.432,6.5128,6.5859,6.5897,6.5897,6.5897,6.5743,6.5243,6.4397,6.3512,6.2704,6.1858,6.1127,6.0781,6.0781,6.0781,6.0781,6.0781,6.0781,6.0704,6.0512,5.9819,5.9319,5.8934,5.755,5.6896,5.6665,5.5972,5.5703,5.5665,7.3076,7.2973,7.2716,7.3413,7.3523,7.3523,7.3523,7.3523,7.356,7.367,7.378,7.356,7.2753,7.2753,7.2753,7.2532,7.2496,7.2496,7.2496,7.2496,7.2496,7.2496,7.2496,7.2165,7.1505,7.0587,7.0,6.9779,6.8385,6.7687,6.7687,6.7687,6.7687,6.7687,6.7687,6.7247,6.6439,6.5632,6.4861,6.4075,6.398,6.4016,6.4149,6.4897,6.5169,6.5132,6.5132,6.4632,6.3934,6.4094,6.4168,6.4375,6.5108,6.494,6.4706,6.5301,6.5066,6.4516,6.431,6.4237,6.4237,6.4127,6.4016,6.3943,6.4053,6.3613,6.3099,6.2879,6.2805,6.2805,6.2805,6.368,6.437,6.437,6.523,6.5897,6.5897,6.5897,6.5897,6.5897,6.4589,6.3551,6.332,6.3205,6.3512,6.4359,6.5243,6.5782,6.5897,6.5897,6.5897,6.5897,6.5166,6.4359,6.3474,6.2666,6.182,6.0973,6.0858,6.0781,6.0781,6.0781,6.0781,6.0781,6.0781,6.0358,5.9665,5.955,5.8665,5.7319,5.7088,5.6549,5.5857,5.5742,5.5703,5.5588,7.2805,7.2753,7.2606,7.2973,7.3046,7.3046,7.3046,7.3046,7.3046,7.3046,7.3413,7.3377,7.2606,7.2496,7.2496,7.2496,7.2496,7.2496,7.2496,7.2496,7.2496,7.2496,7.2496,7.2349,7.1982,7.0734,7.011,7.011,6.8495,6.7687,6.7687,6.7687,6.7687,6.765,6.7063,6.6916,6.7063,6.5521,6.431,6.3342,6.3392,6.3965,6.4815,6.5176,6.5301,6.5316,6.5308,6.4499,6.3369,6.3369,6.4016,6.4647,6.4097,6.4324,6.4696,6.4053,6.409,6.4288,6.431,6.42,6.409,6.409,6.3723,6.3503,6.398,6.3429,6.2805,6.2805,6.2805,6.2805,6.2805,6.368,6.437,6.437,6.523,6.5897,6.5897,6.5897,6.5897,6.5897,6.4359,6.3512,6.3974,6.4051,6.4205,6.4589,6.5397,6.5897,6.5897,6.5897,6.5897,6.5897,6.5051,6.4166,6.332,6.2512,6.1666,6.0781,6.0781,6.0781,6.0781,6.0781,6.0781,6.0781,6.0281,5.9858,5.9435,5.8473,5.7665,5.6934,5.6472,5.6049,5.5703,5.5703,5.5434,5.4972]},{"header":{"parameterUnit":"m.s-1","parameterCategory":1,"la1":30.6,"la2":28.766,"lo1":-90.7593,"lo2":-88.6598,"dx":0.0162,"dy":0.0183,"nx":116,"ny":114,"refTime":"2023-02-10T06:00:00:Z","depth":0,"parameterNumber":3,"parameterNumberName":"V-component_of_WINDS"},"data":[0.0,0.0,0.0,0.0,0.0,0.0,0.0,0.0,0.0,0.0,0.0,0.0,0.0,0.0,0.0,0.0,0.0,0.0,0.0,0.0,0.0,0.0,0.0,0.0,0.0,0.0,0.0,0.0,0.0,0.0,0.0,0.0,0.0,0.0,0.0,0.0,0.0,0.0,0.0,0.0,0.0,0.0,0.0,0.0,0.0,0.0,0.0,0.0,0.0,0.0,0.0,0.0,0.0,0.0,0.0,0.0,0.0,0.0,0.0,0.0,0.0,0.0,0.0,0.0,0.0,0.0,0.0,0.0,0.0,0.0,0.0,0.0,0.0,0.0,0.0,0.0,0.0,0.0,0.0,0.0,0.0,0.0,0.0,0.0,0.0,0.0,0.0,0.0,0.0,0.0,0.0,0.0,0.0,0.0,0.0,0.0,0.0,0.0,0.0,0.0,0.0,0.0,0.0,0.0,0.0,0.0,0.0,0.0,0.0,0.0,0.0,0.0,0.0,0.0,0.0,0.0,0.0,0.0,0.0,0.0,0.0,0.0,0.0,0.0,0.0,0.0,0.0,0.0,0.0,0.0,0.0,0.0,0.0,0.0,0.0,0.0,0.0,0.0,0.0,0.0,0.0,0.0,0.0,0.0,0.0,0.0,0.0,0.0,0.0,0.0,0.0,0.0,0.0,0.0,0.0,0.0,0.0,0.0,0.0,0.0,0.0,0.0,0.0,0.0,0.0,0.0,0.0,0.0,0.0,0.0,0.0,0.0,0.0,0.0,0.0,0.0,0.0,0.0,0.0,0.0,0.0,0.0,0.0,0.0,0.0,0.0,0.0,0.0,0.0,0.0,0.0,0.0,0.0,0.0,0.0,0.0,0.0,0.0,0.0,0.0,0.0,0.0,0.0,0.0,0.0,0.0,0.0,0.0,0.0,0.0,0.0,0.0,0.0,0.0,0.0,0.0,0.0,0.0,0.0,0.0,0.0,0.0,0.0,0.0,0.0,0.0,0.0,0.0,0.0,0.0,0.0,0.0,0.0,0.0,0.0,0.0,0.0,0.0,0.0,0.0,0.0,0.0,0.0,0.0,0.0,0.0,0.0,0.0,0.0,0.0,0.0,0.0,0.0,0.0,0.0,0.0,0.0,0.0,0.0,0.0,0.0,0.0,0.0,0.0,0.0,0.0,0.0,0.0,0.0,0.0,0.0,0.0,0.0,0.0,0.0,0.0,0.0,0.0,0.0,0.0,0.0,0.0,0.0,0.0,0.0,0.0,0.0,0.0,0.0,0.0,0.0,0.0,0.0,0.0,0.0,0.0,0.0,0.0,0.0,0.0,0.0,0.0,0.0,0.0,0.0,0.0,0.0,0.0,0.0,0.0,0.0,0.0,0.0,0.0,0.0,0.0,0.0,0.0,0.0,0.0,0.0,0.0,0.0,0.0,0.0,0.0,0.0,0.0,0.0,0.0,0.0,0.0,0.0,0.0,0.0,0.0,0.0,0.0,0.0,0.0,0.0,0.0,0.0,0.0,0.0,0.0,0.0,0.0,0.0,0.0,0.0,0.0,0.0,0.0,0.0,0.0,0.0,0.0,0.0,0.0,0.0,0.0,0.0,0.0,0.0,0.0,0.0,0.0,0.0,0.0,0.0,0.0,0.0,0.0,0.0,0.0,0.0,0.0,0.0,0.0,0.0,0.0,0.0,0.0,0.0,0.0,0.0,0.0,0.0,0.0,0.0,0.0,0.0,0.0,0.0,0.0,0.0,0.0,0.0,0.0,0.0,0.0,0.0,0.0,0.0,0.0,0.0,0.0,0.0,0.0,0.0,0.0,0.0,0.0,0.0,0.0,0.0,0.0,0.0,0.0,0.0,0.0,0.0,0.0,0.0,0.0,0.0,0.0,0.0,0.0,0.0,0.0,0.0,0.0,0.0,0.0,0.0,0.0,0.0,0.0,0.0,0.0,0.0,0.0,0.0,0.0,0.0,0.0,0.0,0.0,0.0,0.0,0.0,0.0,0.0,0.0,0.0,0.0,0.0,0.0,0.0,0.0,0.0,0.0,0.0,0.0,0.0,0.0,0.0,0.0,0.0,0.0,0.0,0.0,0.0,0.0,0.0,0.0,0.0,0.0,0.0,0.0,0.0,0.0,0.0,0.0,0.0,0.0,0.0,0.0,0.0,0.0,0.0,0.0,0.0,0.0,0.0,0.0,0.0,0.0,0.0,0.0,0.0,0.0,0.0,0.0,0.0,0.0,0.0,0.0,0.0,0.0,0.0,0.0,0.0,0.0,0.0,0.0,0.0,0.0,0.0,0.0,0.0,0.0,0.0,0.0,0.0,0.0,0.0,0.0,0.0,0.0,0.0,0.0,0.0,0.0,0.0,0.0,0.0,0.0,0.0,0.0,0.0,0.0,0.0,0.0,0.0,0.0,0.0,0.0,0.0,0.0,0.0,0.0,0.0,0.0,0.0,0.0,0.0,0.0,0.0,0.0,0.0,0.0,0.0,0.0,0.0,0.0,0.0,0.0,0.0,0.0,0.0,0.0,0.0,0.0,0.0,0.0,0.0,0.0,0.0,0.0,0.0,0.0,0.0,0.0,0.0,0.0,0.0,0.0,0.0,0.0,0.0,0.0,0.0,0.0,0.0,0.0,0.0,0.0,0.0,0.0,0.0,0.0,0.0,0.0,0.0,0.0,0.0,0.0,0.0,0.0,0.0,0.0,0.0,0.0,0.0,0.0,0.0,0.0,0.0,0.0,0.0,0.0,0.0,0.0,0.0,0.0,0.0,0.0,0.0,0.0,0.0,0.0,0.0,0.0,0.0,0.0,0.0,0.0,0.0,0.0,0.0,0.0,0.0,0.0,0.0,0.0,0.0,0.0,0.0,0.0,0.0,0.0,0.0,0.0,0.0,0.0,0.0,0.0,0.0,0.0,0.0,0.0,0.0,0.0,0.0,0.0,0.0,0.0,0.0,0.0,0.0,0.0,0.0,0.0,0.0,0.0,0.0,0.0,0.0,0.0,0.0,0.0,0.0,0.0,0.0,0.0,0.0,0.0,0.0,0.0,0.0,0.0,0.0,0.0,0.0,0.0,0.0,0.0,0.0,0.0,0.0,0.0,0.0,0.0,0.0,0.0,0.0,0.0,0.0,0.0,0.0,0.0,0.0,0.0,0.0,0.0,0.0,0.0,0.0,0.0,0.0,0.0,0.0,0.0,0.0,0.0,0.0,0.0,0.0,0.0,0.0,0.0,0.0,0.0,0.0,0.0,0.0,0.0,0.0,0.0,0.0,0.0,0.0,0.0,0.0,0.0,0.0,0.0,0.0,0.0,0.0,0.0,0.0,0.0,0.0,0.0,0.0,0.0,0.0,0.0,0.0,0.0,0.0,0.0,0.0,0.0,0.0,0.0,0.0,0.0,0.0,0.0,0.0,0.0,0.0,0.0,0.0,0.0,0.0,0.0,0.0,0.0,0.0,0.0,0.0,0.0,0.0,0.0,0.0,0.0,0.0,0.0,0.0,0.0,0.0,0.0,0.0,0.0,0.0,0.0,0.0,0.0,0.0,0.0,0.0,0.0,0.0,0.0,0.0,0.0,0.0,0.0,0.0,0.0,0.0,0.0,0.0,0.0,0.0,0.0,0.0,0.0,0.0,0.0,0.0,0.0,0.0,0.0,0.0,0.0,0.0,0.0,0.0,0.0,0.0,0.0,0.0,0.0,0.0,0.0,0.0,0.0,0.0,0.0,0.0,0.0,0.0,0.0,0.0,0.0,0.0,0.0,0.0,0.0,0.0,0.0,0.0,0.0,0.0,0.0,0.0,0.0,0.0,0.0,0.0,0.0,0.0,0.0,0.0,0.0,0.0,0.0,0.0,0.0,0.0,0.0,0.0,0.0,0.0,0.0,0.0,0.0,0.0,0.0,0.0,0.0,0.0,0.0,0.0,0.0,0.0,0.0,0.0,0.0,0.0,0.0,0.0,0.0,0.0,0.0,0.0,0.0,0.0,0.0,0.0,0.0,0.0,0.0,0.0,0.0,0.0,0.0,0.0,0.0,0.0,0.0,0.0,0.0,0.0,0.0,0.0,0.0,0.0,0.0,0.0,0.0,0.0,0.0,0.0,0.0,0.0,0.0,0.0,0.0,0.0,0.0,0.0,0.0,0.0,0.0,0.0,0.0,0.0,0.0,0.0,0.0,0.0,0.0,0.0,0.0,0.0,0.0,0.0,0.0,0.0,0.0,0.0,0.0,0.0,0.0,0.0,0.0,0.0,0.0,0.0,0.0,0.0,0.0,0.0,0.0,0.0,0.0,0.0,0.0,0.0,0.0,0.0,0.0,0.0,0.0,0.0,0.0,0.0,0.0,0.0,0.0,0.0,0.0,0.0,0.0,0.0,0.0,0.0,0.0,0.0,0.0,0.0,0.0,0.0,0.0,0.0,0.0,0.0,0.0,0.0,0.0,0.0,0.0,0.0,0.0,0.0,0.0,0.0,0.0,0.0,0.0,0.0,0.0,0.0,0.0,0.0,0.0,0.0,0.0,0.0,0.0,0.0,0.0,0.0,0.0,0.0,0.0,0.0,0.0,0.0,0.0,0.0,0.0,0.0,0.0,0.0,0.0,0.0,0.0,0.0,0.0,0.0,0.0,0.0,0.0,0.0,0.0,0.0,0.0,0.0,0.0,0.0,0.0,0.0,0.0,0.0,0.0,0.0,0.0,0.0,0.0,0.0,0.0,0.0,0.0,0.0,0.0,0.0,0.0,0.0,0.0,0.0,0.0,0.0,0.0,0.0,0.0,0.0,0.0,0.0,0.0,0.0,0.0,0.0,0.0,0.0,0.0,0.0,0.0,0.0,0.0,0.0,0.0,0.0,0.0,0.0,0.0,0.0,0.0,0.0,0.0,0.0,0.0,0.0,0.0,0.0,0.0,0.0,0.0,0.0,0.0,0.0,0.0,0.0,0.0,0.0,0.0,0.0,0.0,0.0,0.0,0.0,0.0,0.0,0.0,0.0,0.0,0.0,0.0,0.0,0.0,0.0,0.0,0.0,0.0,0.0,0.0,0.0,0.0,0.0,0.0,0.0,0.0,0.0,0.0,0.0,0.0,0.0,0.0,0.0,0.0,0.0,0.0,0.0,0.0,0.0,0.0,0.0,0.0,0.0,0.0,0.0,0.0,0.0,0.0,0.0,0.0,0.0,0.0,0.0,0.0,0.0,0.0,0.0,0.0,0.0,0.0,0.0,0.0,0.0,0.0,0.0,0.0,0.0,0.0,0.0,0.0,0.0,0.0,0.0,0.0,0.0,0.0,0.0,0.0,0.0,0.0,0.0,0.0,0.0,0.0,0.0,0.0,0.0,0.0,0.0,0.0,0.0,0.0,0.0,0.0,0.0,0.0,0.0,0.0,0.0,0.0,0.0,0.0,0.0,0.0,0.0,0.0,0.0,0.0,0.0,0.0,0.0,0.0,0.0,0.0,0.0,0.0,0.0,0.0,0.0,0.0,0.0,0.0,0.0,0.0,0.0,0.0,0.0,0.0,0.0,0.0,0.0,0.0,0.0,0.0,0.0,0.0,0.0,0.0,0.0,0.0,0.0,0.0,0.0,0.0,0.0,0.0,0.0,0.0,0.0,0.0,0.0,0.0,0.0,0.0,0.0,0.0,0.0,0.0,0.0,0.0,0.0,0.0,0.0,0.0,0.0,0.0,0.0,0.0,0.0,0.0,0.0,0.0,0.0,0.0,0.0,0.0,0.0,0.0,0.0,0.0,0.0,0.0,0.0,0.0,0.0,0.0,0.0,0.0,0.0,0.0,0.0,0.0,0.0,0.0,0.0,0.0,0.0,0.0,0.0,0.0,0.0,0.0,0.0,0.0,0.0,0.0,0.0,0.0,0.0,0.0,0.0,0.0,0.0,0.0,0.0,0.0,0.0,0.0,0.0,0.0,0.0,0.0,0.0,0.0,0.0,0.0,0.0,0.0,0.0,0.0,0.0,0.0,0.0,0.0,0.0,0.0,0.0,0.0,0.0,0.0,0.0,0.0,0.0,0.0,0.0,0.0,0.0,0.0,0.0,0.0,0.0,0.0,0.0,0.0,0.0,0.0,1.859,0.0,0.0,0.0,0.0,0.0,0.0,0.0,0.0,0.0,0.0,0.0,0.0,0.0,0.0,0.0,0.0,0.0,0.0,0.0,0.0,0.0,0.0,0.0,0.0,0.0,0.0,0.0,0.0,0.0,0.0,0.0,0.0,0.0,0.0,0.0,0.0,0.0,0.0,0.0,0.0,0.0,0.0,0.0,0.0,0.0,0.0,0.0,0.0,0.0,0.0,0.0,0.0,0.0,0.0,0.0,0.0,0.0,0.0,0.0,0.0,0.0,0.0,0.0,0.0,0.0,0.0,0.0,0.0,0.0,0.0,0.0,0.0,0.0,0.0,0.0,0.0,0.0,0.0,0.0,0.0,0.0,0.0,0.0,0.0,0.0,0.0,0.0,0.0,0.0,0.0,0.0,0.0,0.0,0.0,0.0,0.0,0.0,0.0,0.0,0.0,0.0,0.0,0.0,0.0,0.0,0.0,0.0,0.0,0.0,0.0,0.0,0.0,0.0,0.0,0.0,0.0,1.8494,0.0,0.0,0.0,0.0,0.0,0.0,0.0,0.0,0.0,0.0,0.0,0.0,0.0,0.0,0.0,0.0,0.0,0.0,0.0,0.0,0.0,0.0,0.0,0.0,0.0,0.0,0.0,0.0,0.0,0.0,0.0,0.0,0.0,0.0,0.0,0.0,0.0,0.0,0.0,0.0,0.0,0.0,0.0,0.0,0.0,0.0,0.0,0.0,0.0,0.0,0.0,0.0,0.0,0.0,0.0,0.0,0.0,0.0,0.0,0.0,0.0,0.0,0.0,0.0,0.0,0.0,0.0,0.0,0.0,0.0,0.0,0.0,0.0,0.0,0.0,0.0,0.0,0.0,0.0,0.0,0.0,0.0,0.0,0.0,0.0,0.0,0.0,0.0,0.0,0.0,0.0,0.0,0.0,0.0,0.0,0.0,0.0,0.0,0.0,0.0,0.0,0.0,0.0,0.0,0.0,0.0,0.0,0.0,1.9813,2.0187,2.0748,2.0695,2.0735,2.0788,1.8638,1.8131,1.8865,1.9773,0.0,0.0,0.0,0.0,0.0,0.0,0.0,0.0,0.0,0.0,0.0,0.0,0.0,0.0,0.0,0.0,0.0,0.0,0.0,0.0,0.0,0.0,0.0,0.0,0.0,0.0,0.0,0.0,0.0,0.0,0.0,0.0,0.0,0.0,0.0,0.0,0.0,0.0,2.4542,2.5844,2.6798,2.7504,2.39,0.0,0.0,0.0,0.0,0.0,0.0,0.0,0.0,0.0,0.0,0.0,0.0,0.0,0.0,0.0,0.0,0.0,0.0,0.0,0.0,0.0,0.0,0.0,0.0,0.0,0.0,0.0,0.0,0.0,0.0,0.0,0.0,0.0,0.0,0.0,0.0,0.0,0.0,0.0,0.0,0.0,0.0,0.0,1.6398,1.7596,0.0,0.0,0.0,0.0,0.0,0.0,0.0,0.0,0.0,0.0,0.0,0.0,0.0,1.9679,2.0441,2.0187,2.0334,2.0869,2.0401,2.0481,2.1042,2.0788,2.0949,2.1416,2.0777,0.0,2.0,1.9893,0.0,0.0,0.0,0.0,0.0,0.0,0.0,0.0,0.0,0.0,0.0,0.0,0.0,0.0,0.0,0.0,0.0,0.0,0.0,0.0,0.0,0.0,0.0,0.0,0.0,0.0,0.0,0.0,0.0,0.0,0.0,0.0,0.0,0.0,0.0,0.0,2.4032,2.5459,2.6748,2.74,2.8066,2.8505,2.6672,2.5737,2.5596,2.4156,0.0,0.0,0.0,0.0,0.0,0.0,0.0,0.0,0.0,0.0,0.0,0.0,0.0,0.0,0.0,0.0,0.0,0.0,0.0,0.0,0.0,0.0,0.0,0.0,0.0,0.0,0.0,0.0,0.0,0.0,0.0,0.0,0.0,0.0,0.0,0.0,0.0,0.0,0.0,1.6808,1.6686,1.7994,1.8624,1.8985,0.0,0.0,0.0,0.0,0.0,0.0,0.0,0.0,0.0,1.984,2.0013,2.0281,2.0668,2.0882,2.1189,2.1603,2.151,2.1683,2.2098,2.1964,2.2138,2.2539,2.2231,2.1857,2.1403,2.0615,2.0254,2.0174,0.0,0.0,0.0,0.0,2.0588,2.0695,0.0,0.0,0.0,0.0,0.0,0.0,0.0,0.0,0.0,0.0,0.0,0.0,0.0,0.0,0.0,2.0131,0.0,0.0,0.0,0.0,0.0,0.0,0.0,0.0,0.0,0.0,0.0,2.3945,2.5541,2.7018,2.8457,2.8672,2.9004,2.9414,2.9101,2.8435,2.7345,2.571,2.4778,0.0,0.0,0.0,0.0,0.0,0.0,0.0,0.0,0.0,0.0,0.0,0.0,0.0,0.0,0.0,0.0,0.0,0.0,0.0,0.0,0.0,0.0,0.0,0.0,0.0,0.0,0.0,0.0,0.0,0.0,0.0,0.0,0.0,0.0,0.0,0.0,0.0,0.0,1.6754,1.6506,1.8071,1.8784,1.9118,0.0,0.0,0.0,0.0,0.0,0.0,1.9693,2.0054,2.0388,2.0668,2.0895,2.1122,2.1349,2.1871,2.2298,2.2659,2.2886,2.318,2.3541,2.338,2.3487,2.3754,2.3367,2.3033,2.2659,2.1336,2.0535,2.0147,2.0214,2.0321,2.0481,2.0708,2.0922,2.1082,0.0,0.0,0.0,0.0,0.0,0.0,0.0,0.0,0.0,0.0,0.0,0.0,0.0,0.0,2.1725,2.3313,2.2571,2.2975,0.0,0.0,0.0,0.0,0.0,0.0,0.0,0.0,0.0,2.5344,2.7555,2.8758,2.8906,2.9726,3.0351,3.0801,3.0762,3.0312,2.9361,2.8416,2.7521,2.6511,0.0,0.0,0.0,0.0,0.0,0.0,0.0,0.0,0.0,0.0,0.0,0.0,0.0,0.0,0.0,0.0,0.0,0.0,0.0,0.0,0.0,0.0,0.0,0.0,0.0,0.0,0.0,0.0,0.0,0.0,0.0,0.0,0.0,0.0,0.0,0.0,0.0,0.0,0.0,1.7331,1.817,0.0,0.0,0.0,0.0,1.9319,2.012,2.0601,2.0615,2.1149,2.1603,2.1884,2.1911,2.2325,2.318,2.35,2.3941,2.4502,2.4516,2.4823,2.5358,2.4796,2.4703,2.4957,2.4382,2.3968,2.3567,2.1804,2.1069,2.0989,2.0441,2.0575,2.1069,2.1082,2.1096,2.1109,0.0,0.0,0.0,0.0,0.0,0.0,0.0,0.0,0.0,0.0,0.0,0.0,0.0,2.235,2.3586,2.4404,2.4776,2.5256,2.5964,0.0,0.0,0.0,0.0,0.0,0.0,0.0,2.541,2.6716,2.8764,3.0039,3.0605,3.1191,3.1562,3.1719,3.1719,3.123,3.0371,2.9492,2.8694,2.799,2.6811,2.4941,0.0,0.0,0.0,0.0,0.0,0.0,0.0,0.0,0.0,0.0,0.0,0.0,0.0,0.0,0.0,0.0,0.0,0.0,0.0,0.0,0.0,0.0,0.0,0.0,0.0,0.0,0.0,0.0,0.0,0.0,0.0,0.0,0.0,0.0,0.0,0.0,0.0,1.8995,1.9653,0.0,1.9746,1.976,1.9893,2.0187,2.0668,2.1122,2.1496,2.1897,2.2432,2.3113,2.3313,2.3754,2.4449,2.4743,2.4997,2.5197,2.5197,2.5304,2.5504,2.5291,2.5251,2.5331,2.4743,2.4422,2.4235,2.3033,2.2191,2.1617,2.1029,2.0922,2.1136,2.1323,2.163,2.1924,0.0,0.0,0.0,0.0,0.0,0.0,0.0,0.0,0.0,0.0,0.0,2.0753,2.274,2.444,2.5526,2.5908,2.6308,2.6719,2.7012,0.0,0.0,0.0,2.1815,0.0,0.0,2.5221,2.6975,2.8369,3.0026,3.1172,3.1758,3.2187,3.2383,3.2383,3.2519,3.2207,3.1484,3.0762,2.9941,2.9011,2.7804,2.6331,2.4794,0.0,0.0,0.0,0.0,0.0,0.0,0.0,0.0,0.0,0.0,0.0,0.0,0.0,0.0,0.0,0.0,0.0,0.0,0.0,0.0,0.0,0.0,0.0,0.0,0.0,0.0,0.0,0.0,0.0,0.0,0.0,0.0,0.0,0.0,0.0,1.8007,2.0064,2.0735,2.0935,2.0828,2.0641,2.0695,2.1082,2.1483,2.2004,2.2699,2.3006,2.3527,2.4329,2.4543,2.4877,2.5371,2.5571,2.5705,2.5812,2.5812,2.5812,2.5798,2.5705,2.5665,2.5638,2.5144,2.4877,2.473,2.4048,2.3367,2.2659,2.1964,2.1697,2.1737,2.2044,2.2392,2.2686,0.0,0.0,0.0,0.0,0.0,0.0,0.0,0.0,0.0,0.0,2.0752,2.2931,2.3764,2.618,2.7715,2.7734,2.7305,2.7383,2.8223,2.5674,0.0,0.0,0.0,0.0,2.5415,2.7151,2.8797,3.0254,3.1562,3.2187,3.2207,3.2617,3.2832,3.2851,3.3242,3.3184,3.2793,3.2363,3.1211,2.9648,2.9609,2.8634,2.7068,0.0,0.0,0.0,0.0,0.0,0.0,0.0,0.0,0.0,0.0,0.0,0.0,0.0,0.0,0.0,0.0,0.0,0.0,0.0,0.0,0.0,0.0,0.0,0.0,0.0,0.0,0.0,0.0,0.0,0.0,0.0,0.0,0.0,1.6551,1.7611,1.9037,2.0611,2.1256,2.1496,2.1203,2.1176,2.1416,2.2004,2.2592,2.33,2.4195,2.4516,2.493,2.5518,2.5531,2.5678,2.5985,2.5972,2.6106,2.6386,2.64,2.64,2.6373,2.6106,2.5972,2.5959,2.5651,2.5371,2.5077,2.4783,2.4489,2.4142,2.3247,2.2886,2.2926,2.3233,2.334,2.3287,0.0,0.0,0.0,0.0,0.0,0.0,0.0,0.0,0.0,0.0,2.164,2.3975,2.6321,2.7776,2.8711,2.9023,2.8086,2.7578,2.7832,0.0,0.0,0.0,0.0,0.0,2.7278,2.8784,3.0296,3.1621,3.2305,3.2617,3.2637,3.3047,3.3418,3.3711,3.3516,3.3359,3.3223,3.2793,3.2168,3.1367,3.041,2.8729,2.6803,0.0,0.0,0.0,0.0,0.0,0.0,0.0,0.0,0.0,0.0,0.0,0.0,0.0,0.0,0.0,0.0,0.0,0.0,0.0,0.0,0.0,0.0,0.0,0.0,0.0,0.0,0.0,0.0,0.0,0.0,0.0,0.0,1.892,1.949,2.0009,2.0772,2.2164,2.2605,2.2806,2.2726,2.2712,2.2966,2.3554,2.3941,2.4449,2.5117,2.5224,2.5545,2.6132,2.5945,2.6079,2.6587,2.6373,2.6306,2.6386,2.66,2.6587,2.6386,2.6533,2.6466,2.6253,2.5959,2.5785,2.5692,2.5398,2.5104,2.4756,2.3861,2.3514,2.3527,2.3621,2.3514,2.3287,0.0,0.0,0.0,0.0,0.0,0.0,0.0,0.0,0.0,0.0,2.2607,2.5286,2.7012,2.8203,2.8867,2.8789,2.793,2.7402,2.7402,0.0,0.0,0.0,0.0,2.7734,2.8875,3.043,3.1758,3.2695,3.3301,3.3594,3.3594,3.3848,3.4101,3.4316,3.4062,3.3945,3.3945,3.3691,3.3359,3.291,3.2129,3.0603,2.8574,2.7633,2.5617,2.3084,2.2336,2.1002,1.9455,1.8286,0.0,0.0,0.0,0.0,0.0,0.0,0.0,0.0,0.0,0.0,0.0,0.0,0.0,0.0,0.0,0.0,0.0,0.0,0.0,0.0,0.0,0.0,0.0,0.0,1.9166,2.0548,2.163,2.1937,2.2298,2.2979,2.3541,2.3875,2.3875,2.3875,2.4115,2.4703,2.4903,2.5211,2.5678,2.5812,2.6092,2.656,2.6413,2.648,2.6814,2.6533,2.6453,2.6573,2.6747,2.68,2.676,2.68,2.6734,2.656,2.6266,2.6066,2.5945,2.5772,2.5531,0.0,0.0,0.0,0.0,0.0,2.3875,2.3487,0.0,0.0,0.0,0.0,0.0,0.0,0.0,0.0,0.0,0.0,0.0,2.623,2.623,2.7715,2.8398,2.7656,2.7148,2.6894,0.0,0.0,0.0,2.5372,2.8115,2.9902,3.0488,3.2051,3.3105,3.3574,3.4336,3.4707,3.4707,3.4707,3.4746,3.4844,3.4746,3.4785,3.4922,3.4766,3.4512,3.4219,3.416,3.3125,3.1385,2.9282,2.7252,2.537,2.3913,2.1723,1.9586,1.9786,0.0,0.0,0.0,0.0,0.0,0.0,0.0,0.0,0.0,0.0,0.0,0.0,0.0,0.0,0.0,0.0,0.0,0.0,0.0,0.0,0.0,0.0,0.0,0.0,2.0521,2.151,2.3193,2.3541,2.3607,2.3581,2.4262,2.473,2.473,2.473,2.497,2.5518,2.5598,2.5732,2.5999,0.0,0.0,0.0,0.0,2.6867,2.6867,2.6613,2.6613,2.6867,2.6907,2.7041,2.7255,2.7028,2.6907,2.6854,2.66,2.6319,2.6052,2.6052,2.5865,2.5531,2.5237,2.4943,2.4676,2.4649,2.4289,2.3808,0.0,0.0,0.0,0.0,0.0,0.0,0.0,0.0,0.0,2.0836,2.3541,2.5312,2.5312,2.6562,2.7324,2.7148,2.6426,2.6133,0.0,0.0,2.7688,2.8674,2.9595,3.0762,3.2266,3.2949,3.3672,3.4453,3.4609,3.4707,3.4707,3.4707,3.5078,3.5742,3.5019,3.5293,3.6211,3.5156,3.4863,3.5098,3.4726,3.3555,3.2031,3.1595,2.9119,2.5836,2.5316,2.3232,2.0708,2.0294,1.9945,1.9797,1.9575,0.0,0.0,0.0,0.0,0.0,0.0,0.0,0.0,0.0,0.0,0.0,0.0,0.0,0.0,0.0,0.0,0.0,0.0,0.0,0.0,2.1002,2.1911,2.2819,2.3888,2.485,2.5358,2.5117,2.5237,2.5344,2.5344,2.5344,2.5491,2.5838,2.6092,2.6239,2.6306,2.6814,2.7014,2.6827,2.7054,2.7175,2.7175,2.7121,2.7121,2.7188,0.0,0.0,2.7268,2.7455,2.7402,2.7175,2.7121,2.6934,2.6653,2.6653,2.6346,2.5838,2.5545,2.5251,2.497,2.473,2.4422,2.4088,0.0,0.0,0.0,0.0,0.0,0.0,0.0,0.0,0.0,0.0,2.3824,2.541,2.541,2.6367,2.6512,2.5465,2.4951,0.0,0.0,2.7187,2.8223,2.9512,3.0605,3.1797,3.3086,3.416,3.4922,3.5351,3.5781,3.5996,3.5996,3.5996,3.623,3.6641,3.6191,3.6367,3.6953,3.6289,3.6133,3.6328,3.6094,3.5371,3.4187,3.2403,2.9217,2.5657,2.5485,2.3701,2.1283,2.0989,2.0695,2.0523,2.116,2.1085,2.0931,0.0,0.0,0.0,0.0,0.0,0.0,0.0,0.0,0.0,0.0,0.0,0.0,0.0,0.0,1.8838,1.9279,0.0,2.0788,2.1817,2.2859,2.3848,2.473,2.5491,2.5852,2.5545,2.5651,2.5732,2.5732,2.5865,2.6066,2.6373,2.652,2.6667,2.6814,2.7108,2.7268,2.7255,2.7402,2.7482,2.7482,2.7335,2.7335,2.7482,2.7629,2.7696,2.7709,2.7696,2.7615,2.7468,2.7321,2.7175,2.7028,2.6881,2.6653,2.636,2.6066,2.5598,2.5064,2.4917,2.4583,2.4182,0.0,0.0,0.0,0.0,0.0,0.0,0.0,0.0,0.0,0.0,2.4068,2.5256,2.4967,2.5641,2.5434,0.0,0.0,0.0,0.0,2.7793,2.8945,3.0137,3.1621,3.2891,3.3906,3.5312,3.6094,3.6269,3.6953,3.7305,3.7305,3.7305,3.7344,3.7422,3.7324,3.7383,3.7539,3.7363,3.7344,3.7402,3.7324,3.695,3.5908,3.2918,2.9396,2.6178,2.5577,2.3691,2.147,2.1537,2.0962,2.0483,2.2031,2.2424,2.2478,2.3462,2.3092,0.0,0.0,0.0,0.0,0.0,0.0,0.0,0.0,1.8584,1.8771,1.8544,1.8958,1.9492,1.9893,2.0882,2.1884,2.2645,2.3714,2.473,2.5491,2.5905,2.6012,2.5718,2.5892,2.6066,2.6119,2.6333,2.6573,2.68,2.6934,2.7068,2.7255,2.7375,2.7495,2.7615,2.7722,2.7762,2.7696,2.7522,2.7549,2.7789,2.7789,2.7909,2.8136,2.7896,2.7789,2.7762,2.7482,2.7348,2.7321,2.7028,2.6867,2.68,2.656,2.5972,2.5251,2.5184,2.4823,2.4369,0.0,0.0,0.0,0.0,0.0,0.0,0.0,0.0,0.0,0.0,0.0,0.0,0.0,0.0,0.0,0.0,0.0,0.0,2.7969,2.8574,2.9922,3.2324,3.2969,3.4043,3.5684,3.5918,3.6387,3.7148,3.7246,3.7305,3.7305,3.7305,3.75,3.7832,3.7461,3.7715,3.8379,3.7617,3.7519,3.7812,3.7441,3.6237,3.4664,3.3834,3.1739,2.9053,2.6359,2.3665,2.1203,2.147,2.0962,2.0321,2.1091,2.2015,2.266,2.1194,2.1203,2.1576,2.0053,1.9125,1.8557,1.8223,1.8143,1.8063,0.0,1.813,1.8531,1.8504,1.8958,1.9613,2.0428,2.1323,2.2392,2.3781,2.477,2.5491,2.5852,2.6373,2.6613,2.6333,2.6319,2.644,2.6694,2.6747,2.6787,2.6814,2.7308,2.7509,2.7281,2.7762,2.7816,2.7335,2.7816,2.7963,2.7696,2.7923,2.8056,2.8096,2.8096,2.811,2.8136,2.811,2.8096,2.8083,2.7776,2.7655,2.7629,2.7335,2.7054,2.6814,2.6787,2.64,2.5825,2.5558,2.5264,2.4943,0.0,0.0,0.0,0.0,0.0,0.0,0.0,0.0,0.0,0.0,0.0,0.0,0.0,0.0,0.0,0.0,2.4306,2.5983,2.8427,2.9277,3.082,3.3418,3.4199,3.5137,3.6367,3.6875,3.7305,3.7656,3.791,3.8047,3.8047,3.8047,3.8125,3.8301,3.8379,3.8613,3.8926,3.8848,3.875,3.8652,3.8476,3.7653,3.6217,3.4171,3.2361,3.0155,2.6791,2.4407,0.0,0.0,2.0909,2.0873,2.2044,2.271,2.3006,2.302,2.2462,2.1565,1.9644,1.8931,1.8718,1.8584,1.8691,1.8784,1.8651,1.8945,1.9252,1.9252,1.972,2.0454,2.1496,2.2418,2.3394,0.0,2.5304,2.5879,2.6172,2.6266,2.6279,2.6146,2.5985,2.6132,2.676,2.6974,2.7148,2.7321,2.7562,2.7722,2.7776,2.7843,2.7856,2.7776,2.8016,2.8083,2.7963,2.8083,2.8136,2.8136,2.8136,2.8136,2.8136,2.8136,2.8136,2.8136,2.8003,2.7963,2.7936,2.7642,2.7442,2.7295,2.6961,2.6787,2.664,2.5999,2.5585,2.5317,0.0,0.0,0.0,0.0,0.0,0.0,0.0,0.0,0.0,0.0,0.0,0.0,0.0,0.0,0.0,0.0,2.4245,2.6022,2.87,2.9844,3.1543,3.4141,3.5215,3.6191,3.7168,3.791,3.834,3.8476,3.8789,3.8945,3.8945,3.8945,3.8945,3.8945,3.9258,3.9394,3.9414,3.9746,3.9629,3.9199,3.9082,3.8437,3.728,3.4452,3.2271,3.0295,2.653,2.4232,0.0,0.0,2.0347,2.0632,2.1968,2.2571,2.2856,2.3333,2.2412,2.0816,1.9475,1.8985,1.8945,1.9025,1.9145,1.9305,1.9546,1.9826,2.0094,2.0254,2.0748,2.147,2.2485,2.334,2.4209,2.517,2.5812,2.6266,2.648,2.6266,2.5985,2.5745,2.5384,2.5491,2.6373,2.68,2.7175,2.7549,2.7655,2.7829,2.8123,2.7936,2.7923,2.8136,2.8136,2.8136,2.8136,2.8136,2.8136,2.8136,2.8136,2.8136,2.8136,2.8136,2.8136,2.8136,2.8136,2.8136,2.8123,2.7909,2.7776,2.7642,2.7134,2.7028,2.7068,2.6426,2.6012,2.5732,0.0,0.0,0.0,0.0,0.0,0.0,0.0,0.0,0.0,0.0,0.0,0.0,0.0,0.0,0.0,2.1744,2.4583,2.7109,2.8809,3.0137,3.2012,3.457,3.5937,3.7226,3.8496,3.8945,3.9394,3.9844,3.9844,3.9863,3.9863,3.9863,3.9863,3.9863,3.9863,3.9883,3.9883,3.9883,3.9629,3.916,3.875,3.7832,3.6523,3.4785,3.215,2.904,2.5091,0.0,0.0,0.0,1.9038,1.8718,1.9676,2.0968,2.1918,2.0034,1.93,1.9011,1.9279,1.9145,1.8998,1.9279,1.9145,1.9158,2.0013,2.0441,2.0815,2.1376,2.1964,2.2552,2.318,2.3781,2.4569,2.5745,2.6413,2.68,2.6814,2.656,2.6066,2.5211,2.4596,2.4583,0.0,2.6079,2.6653,2.7241,2.7535,2.7829,2.8123,2.8136,2.8136,2.8136,2.8136,2.8136,2.8136,2.8136,2.8136,2.8136,2.8136,2.8136,2.8136,2.8136,2.8136,2.8136,2.8136,2.8136,2.8136,2.8136,2.7963,2.7669,2.7375,2.7081,2.6827,2.68,2.6613,2.6279,0.0,0.0,0.0,0.0,0.0,0.0,0.0,0.0,0.0,0.0,0.0,0.0,0.0,0.0,0.0,0.0,0.0,2.6992,2.8418,3.0,3.1777,3.3769,3.5664,3.7129,3.8125,3.8828,3.9434,3.9902,3.9902,3.9746,3.9453,3.9746,3.9726,3.9453,4.0039,4.0312,4.0312,4.0312,3.9883,3.9121,3.8125,3.6374,3.4003,3.1795,2.9228,2.6133,0.0,0.0,0.0,0.0,1.8317,1.8504,1.8584,1.9217,1.986,1.9206,1.9145,1.9239,1.9345,1.972,2.0107,2.0214,2.0454,2.0802,2.1283,2.147,2.1603,2.1804,2.1844,2.1964,2.2365,2.2913,2.3701,2.489,2.5732,2.6386,2.6774,2.6573,2.5985,2.4917,2.4783,0.0,0.0,0.0,0.0,2.7468,2.7642,2.7829,2.8123,2.8136,2.8136,2.8136,2.8136,2.8136,2.8136,2.8136,2.8136,2.8136,2.8136,2.8136,2.8136,2.8136,2.8136,2.8136,2.8136,2.8136,2.8136,2.8136,2.8083,2.7963,2.7669,2.7615,2.7655,2.7255,2.7175,2.7201,0.0,0.0,0.0,0.0,0.0,0.0,0.0,0.0,0.0,0.0,0.0,0.0,0.0,0.0,0.0,0.0,0.0,0.0,2.7754,2.9316,3.0879,3.2441,3.4434,3.5762,3.6309,3.7012,3.7598,3.8027,3.8027,3.8125,3.8301,3.8613,3.8652,3.8555,3.9121,3.9375,3.9355,3.8586,3.7766,3.6751,3.4916,3.2666,3.0173,2.8098,2.5697,0.0,0.0,0.0,0.0,0.0,1.7849,1.813,1.7929,1.813,1.8504,1.8824,1.9132,1.9439,1.9746,2.0481,2.1149,2.1149,2.151,2.1937,2.2231,2.2138,2.1991,2.1991,2.175,2.1617,2.1804,2.2138,2.2819,2.4115,2.481,2.5491,2.6386,2.6079,2.5478,2.473,2.4623,2.4543,0.0,0.0,0.0,2.7134,2.7428,2.7669,2.7963,2.8083,2.8136,2.8136,2.8136,2.8136,2.8136,2.8136,2.8136,2.8136,2.8136,2.8136,2.8136,2.8136,2.8136,2.8136,2.8136,2.8136,2.8136,2.8136,2.8136,2.811,2.7816,2.7816,2.7936,2.7562,2.7468,2.7522,0.0,0.0,0.0,0.0,0.0,0.0,0.0,0.0,0.0,0.0,0.0,0.0,0.0,0.0,0.0,0.0,0.0,0.0,2.6934,2.8184,2.9453,3.0587,3.228,3.3194,3.3068,3.3514,3.407,3.4498,3.4478,3.5101,3.6327,3.6327,3.6521,3.6891,3.6911,3.6911,3.6712,3.4678,3.3258,3.2239,2.9456,2.7153,2.5405,2.3803,0.0,0.0,0.0,0.0,1.7194,1.7488,1.7569,1.7555,1.7555,1.7555,1.7742,1.8651,1.9145,1.9586,2.0468,2.1349,2.2031,2.2031,2.2245,2.2539,2.2806,2.2405,2.1977,2.1951,2.1697,2.1483,2.147,2.1496,2.2017,2.3527,2.3821,2.4369,2.5812,2.5304,2.4756,0.0,0.0,0.0,0.0,0.0,0.0,2.6333,0.0,2.7402,2.7722,2.8003,2.815,2.8163,2.815,2.8136,2.8136,2.8136,2.8136,2.8136,2.8136,2.8136,2.8136,2.8136,2.8136,2.8136,2.8136,2.8136,2.8136,2.8136,2.8136,2.811,2.7829,2.7722,2.7722,2.7722,2.7549,2.7308,0.0,0.0,0.0,0.0,0.0,0.0,0.0,0.0,0.0,0.0,0.0,0.0,0.0,0.0,0.0,0.0,0.0,0.0,2.6523,2.7734,2.816,2.7475,2.945,2.9965,2.896,2.9633,3.0295,3.0686,3.0531,3.0531,3.0704,3.0835,3.0745,3.0567,3.0853,3.0965,3.066,2.9882,2.9116,2.8483,0.0,2.5028,2.3174,0.0,0.0,0.0,0.0,1.7259,1.7194,1.7488,1.7435,1.7261,1.7261,1.7261,1.7475,1.8597,1.9292,1.988,2.0762,2.1804,2.2645,2.2645,2.2873,2.306,2.2899,2.2405,2.1857,2.1416,2.0922,2.0508,2.0281,2.0775,2.1777,2.35,2.4502,2.5504,2.676,2.6734,2.636,2.5705,0.0,2.5611,2.5317,2.5945,0.0,0.0,2.6934,2.7589,2.8337,2.823,2.8243,2.8484,2.827,2.8136,2.8136,2.8136,2.8136,2.8136,2.8136,2.8136,2.8136,2.8136,2.8136,2.8136,2.8136,2.8136,2.8136,2.8136,2.8136,2.8136,2.8056,2.803,2.803,2.803,2.7976,2.7923,0.0,0.0,0.0,0.0,0.0,0.0,0.0,0.0,0.0,0.0,0.0,0.0,0.0,0.0,0.0,0.0,0.0,0.0,0.0,2.6404,2.6255,2.55,2.6163,2.6179,2.5222,2.5575,2.5965,2.6508,2.6253,2.6321,2.6798,2.6919,2.6799,2.6729,2.6936,2.6919,2.6695,2.5612,2.4812,0.0,0.0,0.0,0.0,0.0,0.0,0.0,1.6994,1.6807,1.6981,1.7141,1.7261,1.7368,1.7502,1.7716,1.8156,1.9345,2.0107,2.0762,2.1643,2.2645,2.342,2.33,2.3394,2.334,2.2632,2.2124,2.1523,2.0548,2.0187,1.992,1.9492,2.0027,2.1069,2.2726,2.3754,2.4903,2.6466,2.6694,2.66,2.636,2.648,0.0,2.6119,2.6653,2.7001,0.0,2.7268,2.7736,2.8377,2.8243,2.8337,2.8778,2.8377,2.8136,2.8136,2.8136,2.8136,2.8136,2.8136,2.8136,2.8136,2.8136,2.8136,2.8136,0.0,2.8136,2.8136,2.8136,2.8136,2.8136,2.8136,2.8136,2.8136,2.8136,2.8136,2.8136,0.0,0.0,0.0,0.0,0.0,0.0,0.0,0.0,0.0,0.0,0.0,0.0,0.0,0.0,0.0,0.0,0.0,0.0,0.0,0.0,0.0,2.3679,2.2992,2.229,2.1739,2.1431,2.1577,2.2176,2.1924,2.2356,2.3525,2.3426,2.3485,2.3595,2.3545,2.3495,2.3319,2.162,2.0529,1.9836,0.0,0.0,0.0,0.0,0.0,0.0,1.6754,1.6647,1.666,1.6687,1.7101,1.7649,1.7996,1.8504,1.9199,2.0347,2.1122,2.179,2.2632,2.3514,2.4142,2.3888,2.3768,2.3407,2.2245,2.167,2.0989,1.9599,1.9506,1.9533,1.9025,1.9439,2.0361,2.1911,2.2659,2.3768,2.5838,2.6132,2.6333,2.6867,2.6934,2.6934,2.6934,2.7215,2.7468,2.7682,2.7776,2.7949,2.8243,2.8257,2.8484,2.8965,2.847,2.819,2.8136,2.8136,2.8136,2.8136,2.8136,2.8136,2.8136,2.8136,2.8136,2.8136,2.8136,2.8136,2.8136,2.8136,2.8136,2.8136,2.8136,2.8136,2.8136,2.8136,2.8136,2.8136,0.0,0.0,0.0,0.0,0.0,0.0,0.0,0.0,0.0,0.0,0.0,0.0,0.0,0.0,0.0,0.0,0.0,0.0,0.0,0.0,0.0,0.0,2.0647,2.0046,1.8492,1.8331,0.0,0.0,0.0,1.8324,1.8809,1.8302,1.8062,1.8048,1.7795,1.764,1.7288,1.6953,1.6773,1.658,0.0,0.0,0.0,0.0,0.0,0.0,1.646,1.6353,1.638,1.662,1.7101,1.7675,1.8237,1.8824,1.9466,2.0401,2.1256,2.2044,2.2686,2.3514,2.4195,2.4142,2.3768,2.3153,2.2205,2.1189,2.0187,1.9199,1.9038,1.9038,1.8945,1.9599,2.0802,2.2779,2.3594,2.469,2.6747,2.7041,2.7161,2.7509,2.7549,2.7549,2.7549,2.7816,0.0,0.0,2.8163,2.8577,2.8871,2.8885,2.8818,2.8684,2.8577,2.8404,2.815,2.8136,2.8136,2.8136,2.8136,2.8136,2.8136,2.8136,2.8136,2.8136,2.8136,0.0,2.8136,2.8136,2.8136,2.8136,2.8136,2.8136,2.8136,2.8136,2.8136,2.8136,0.0,0.0,0.0,0.0,0.0,0.0,0.0,0.0,0.0,0.0,0.0,0.0,0.0,0.0,0.0,0.0,0.0,0.0,0.0,0.0,0.0,0.0,0.0,0.0,0.0,0.0,0.0,0.0,0.0,0.0,0.0,0.0,0.0,0.0,0.0,0.0,0.0,0.0,0.0,0.0,0.0,0.0,0.0,0.0,0.0,0.0,0.0,1.6179,1.6139,1.674,1.6795,1.685,1.848,1.9452,2.0227,2.1096,2.1871,2.2579,2.3166,2.4814,2.5862,2.4566,2.4579,2.4295,2.1862,2.0628,1.9666,1.8477,1.8477,1.8651,1.849,1.9319,2.0428,2.1737,2.2565,2.3821,2.6039,2.6346,2.6747,2.7802,2.7923,2.7923,2.7923,2.8056,2.8083,2.7936,2.8497,2.8898,2.9032,2.9325,2.9299,2.8845,2.8831,2.8684,2.839,2.823,2.8136,2.8136,2.8136,2.8136,2.8136,2.8136,2.8136,2.8136,2.8136,2.8136,2.8136,2.8136,2.8136,2.8136,2.8136,2.8136,2.8136,2.8136,2.8136,2.8136,0.0,0.0,0.0,0.0,0.0,0.0,0.0,0.0,0.0,0.0,0.0,0.0,0.0,0.0,0.0,0.0,0.0,0.0,0.0,0.0,0.0,0.0,0.0,0.0,0.0,0.0,0.0,0.0,0.0,0.0,0.0,0.0,0.0,0.0,0.0,0.0,0.0,0.0,0.0,0.0,0.0,0.0,0.0,0.0,0.0,0.0,0.0,1.6112,1.6139,1.6887,1.6567,1.616,1.8122,1.9416,2.0367,2.1123,2.2164,2.31,2.3701,2.559,2.6996,2.4943,2.5045,2.4756,2.1515,2.0174,1.9225,1.7862,1.8063,1.8424,1.8183,1.8998,1.9933,2.0655,2.1403,2.2712,2.509,2.5531,2.6213,2.7856,2.811,2.8136,2.8136,2.8136,0.0,2.823,2.8791,2.9165,2.9219,2.9659,2.9673,2.9152,2.9072,2.8898,2.8604,2.8297,2.8136,2.8136,2.8136,2.8136,2.8136,2.8136,2.8136,2.8136,2.8136,2.8136,2.8136,2.8136,2.8136,2.8136,2.8136,2.8136,2.8136,2.8136,2.8136,2.8136,0.0,0.0,0.0,0.0,0.0,0.0,0.0,0.0,0.0,0.0,0.0,0.0,0.0,0.0,0.0,0.0,0.0,0.0,0.0,0.0,0.0,0.0,0.0,0.0,0.0,0.0,0.0,0.0,0.0,0.0,0.0,0.0,0.0,0.0,0.0,0.0,0.0,0.0,0.0,0.0,0.0,0.0,0.0,0.0,0.0,0.0,0.0,1.6192,1.6673,1.7034,1.6685,1.6101,1.6634,1.7768,1.8939,1.9034,2.1027,2.3407,2.4008,2.4757,2.5364,2.501,2.4085,2.2849,2.1349,2.0,1.8731,1.7782,1.8063,1.8477,1.845,1.8971,1.9773,2.0882,2.1363,2.2418,2.4783,2.5585,2.6373,2.7589,2.7976,2.8136,2.8136,2.8136,2.8257,2.8537,2.9112,2.9553,2.982,2.9887,2.9766,2.9459,2.9179,2.8898,2.8604,2.8297,2.8136,2.8136,2.8136,2.8136,2.8136,2.8136,2.8136,2.8136,2.8136,2.8136,0.0,2.8136,2.8136,2.8136,2.8136,2.8136,2.8136,2.8136,2.8136,2.8136,0.0,0.0,0.0,0.0,0.0,0.0,0.0,0.0,0.0,0.0,0.0,0.0,0.0,0.0,0.0,0.0,0.0,0.0,0.0,0.0,0.0,0.0,0.0,0.0,0.0,0.0,0.0,0.0,0.0,0.0,0.0,0.0,0.0,0.0,0.0,0.0,0.0,0.0,0.0,0.0,0.0,0.0,0.0,0.0,0.0,0.0,0.0,0.0,1.6246,1.6727,1.5573,1.3973,1.4177,1.4888,1.6087,1.8125,2.0475,2.2806,2.4115,2.5894,2.6956,2.5229,2.4665,2.3794,2.1132,1.9452,1.829,1.7943,1.805,1.8277,1.8464,1.8824,1.9252,1.972,1.9893,2.0668,2.2672,2.3153,2.4142,2.6386,2.6907,2.7362,2.807,2.8136,2.827,2.8577,2.8818,2.9165,2.9633,2.982,2.986,2.9753,2.9285,2.8991,2.8871,2.839,2.8136,2.8136,2.8136,2.8136,2.8136,2.8136,2.8136,2.8136,2.8136,2.8136,0.0,2.8136,2.8136,2.8136,2.8136,2.8136,2.8136,2.8136,2.8136,2.8136,0.0,0.0,0.0,0.0,0.0,0.0,0.0,0.0,0.0,0.0,0.0,0.0,0.0,0.0,0.0,0.0,0.0,0.0,0.0,0.0,0.0,0.0,0.0,0.0,0.0,0.0,0.0,0.0,0.0,0.0,0.0,0.0,0.0,0.0,0.0,0.0,0.0,0.0,0.0,0.0,0.0,0.0,0.0,0.0,0.0,0.0,0.0,0.0,0.0,0.0,0.0,1.2424,1.269,1.2944,1.3681,1.6526,1.9588,2.2311,2.3834,2.6098,2.7559,2.5256,2.468,2.3855,2.1039,1.9158,1.805,1.805,1.8116,1.8263,1.8571,1.8851,1.9052,1.9052,1.9118,1.9733,2.1336,2.1697,2.2712,2.5157,2.5692,2.6333,2.7509,2.8016,2.8377,2.8591,2.8764,2.8978,2.9219,2.9659,2.9913,2.9913,2.9432,2.9125,2.9045,2.8537,2.823,2.8136,2.8136,2.8136,2.8136,2.8136,2.8136,2.8136,2.8136,2.8136,0.0,2.8136,2.8136,2.8136,2.8136,2.8136,2.8136,2.8136,2.8136,2.8136,0.0,0.0,0.0,0.0,0.0,0.0,0.0,0.0,0.0,0.0,0.0,0.0,0.0,0.0,0.0,0.0,0.0,0.0,0.0,0.0,0.0,0.0,0.0,0.0,0.0,0.0,0.0,0.0,0.0,0.0,0.0,0.0,0.0,0.0,0.0,0.0,0.0,0.0,0.0,0.0,0.0,0.0,0.0,0.0,0.0,0.0,0.0,0.0,0.0,0.0,0.0,0.0,0.0,1.2414,1.2183,1.3727,1.7841,2.2191,2.31,2.4623,2.5812,2.5224,2.3741,2.2111,2.0935,1.9305,1.805,1.805,1.8277,1.8571,1.8865,1.9158,1.9359,1.9359,1.9599,2.0201,2.139,2.2044,2.2859,2.4075,2.4476,2.5117,2.6293,2.7736,2.8604,2.8604,2.9152,0.0,2.8644,2.9446,2.9913,2.9913,2.9633,2.9339,2.9045,2.8751,2.8444,2.8136,2.8136,2.8136,2.8136,2.8136,2.8136,2.8136,2.8136,2.8136,0.0,2.8136,2.8136,2.8136,2.8136,2.8136,2.8136,2.8136,2.8136,2.8136,0.0,0.0,0.0,0.0,0.0,0.0,0.0,0.0,0.0,0.0,0.0,0.0,0.0,0.0,0.0,0.0,0.0,0.0,0.0,0.0,0.0,0.0,0.0,0.0,0.0,0.0,0.0,0.0,0.0,0.0,0.0,0.0,0.0,0.0,0.0,0.0,0.0,0.0,0.0,0.0,0.0,0.0,0.0,0.0,0.0,0.0,0.0,0.0,0.0,0.0,0.0,0.0,0.0,0.0,0.0,1.2977,1.6529,2.0481,2.1764,2.2966,2.3701,2.3113,2.1937,2.0722,1.996,1.8718,1.7796,1.8009,1.8116,1.8343,1.8838,1.8838,1.8971,1.9559,1.9573,1.9773,2.0548,2.167,2.2859,2.4062,2.6066,2.7575,2.815,2.8631,2.8898,2.8898,2.9072,2.9192,2.9205,2.9472,2.9619,2.9619,2.9526,2.9339,2.9045,2.8751,2.8457,2.8136,2.8136,2.8136,2.8136,2.8136,2.8136,2.8136,2.8136,2.8136,2.8136,2.8136,2.8136,2.8136,2.8136,2.8136,2.8136,2.8136,2.8136,2.8136,0.0,0.0,0.0,0.0,0.0,0.0,0.0,0.0,0.0,0.0,0.0,0.0,0.0,0.0,0.0,0.0,0.0,0.0,0.0,0.0,0.0,0.0,0.0,0.0,0.0,0.0,0.0,0.0,0.0,0.0,0.0,0.0,0.0,0.0,0.0,0.0,0.0,0.0,0.0,0.0,0.0,0.0,1.5832,0.0,0.0,0.0,0.0,0.0,0.0,0.0,0.0,0.0,0.0,0.0,0.0,0.0,1.566,1.9011,2.0494,2.1697,2.2392,2.1804,2.0855,1.992,1.9332,1.8357,1.7662,1.7969,1.8036,1.8196,1.8677,1.8611,1.8664,1.9212,1.9158,1.9319,2.012,2.1309,2.2699,2.4342,2.664,2.8217,0.0,2.8845,2.9085,2.9205,2.9205,2.9245,2.9312,2.9526,2.9593,2.9486,2.9593,2.9446,2.9045,2.8858,2.8564,2.8136,2.8136,2.8136,2.8136,2.8136,2.8136,2.8136,2.8136,2.8136,0.0,2.8136,2.8136,2.8136,2.8136,2.8136,2.8136,2.8136,2.8136,2.8136,0.0,0.0,0.0,0.0,0.0,0.0,0.0,0.0,0.0,0.0,0.0,0.0,0.0,0.0,0.0,0.0,0.0,0.0,0.0,0.0,0.0,0.0,0.0,0.0,0.0,0.0,0.0,1.8009,1.8009,1.8009,1.8009,0.0,0.0,0.0,0.0,0.0,0.0,1.5832,1.5832,0.0,0.0,1.5832,0.0,0.0,0.0,0.0,0.0,0.0,0.0,0.0,0.0,0.0,0.0,0.0,0.0,0.0,0.0,0.0,0.0,2.0668,2.1603,2.1029,2.0281,1.9533,1.8985,1.8196,0.0,1.7929,1.7996,1.8116,1.8437,1.845,1.845,1.8544,1.8531,1.8918,2.0067,2.1136,2.2672,2.5024,2.656,2.7522,2.7776,2.8591,2.9219,2.9499,2.9513,2.9392,2.9112,2.9619,2.978,2.9499,2.974,2.9619,2.9045,2.9045,2.8738,2.8136,2.8136,2.8136,2.8136,2.8136,2.8136,0.0,2.8136,2.8136,2.8136,2.8136,2.8136,2.8136,2.8136,2.8136,2.8136,2.8136,2.8136,2.8136,0.0,0.0,0.0,0.0,0.0,0.0,0.0,0.0,0.0,0.0,0.0,0.0,0.0,0.0,0.0,0.0,0.0,0.0,0.0,0.0,0.0,0.0,0.0,0.0,0.0,0.0,0.0,1.7689,1.7689,1.7689,1.7689,1.7462,0.0,0.0,0.0,1.6166,1.5832,1.5832,1.5832,0.0,1.5832,1.5832,0.0,0.0,0.0,0.0,1.5832,1.6019,0.0,0.0,0.0,0.0,0.0,0.0,0.0,0.0,1.6076,0.0,0.0,0.0,1.9225,1.8851,1.8611,1.8424,0.0,1.7903,1.7595,1.7662,1.7689,1.7862,1.8397,1.8103,1.809,1.9011,1.8971,1.9158,2.0094,2.2552,2.5037,2.7175,2.8337,2.8898,2.8738,2.9325,2.974,2.9806,2.982,2.978,2.9713,2.9833,2.978,2.9499,2.9553,2.9406,2.9045,2.9045,2.8738,2.8136,2.8136,2.8136,2.8136,2.8136,2.8136,2.8136,2.8136,2.8136,2.8136,2.8136,2.8136,2.8136,2.8136,2.8136,2.8136,2.8136,2.8136,2.8136,0.0,0.0,0.0,0.0,0.0,0.0,0.0,0.0,0.0,0.0,0.0,0.0,0.0,0.0,0.0,0.0,0.0,0.0,0.0,0.0,0.0,0.0,0.0,0.0,0.0,0.0,0.0,0.0,0.0,1.7528,0.0,0.0,0.0,0.0,0.0,1.5979,1.5832,1.5832,1.5832,1.5832,1.5832,0.0,0.0,0.0,0.0,0.0,1.5832,1.6019,0.0,1.5642,1.5144,1.4558,0.0,0.0,0.0,0.0,1.6386,0.0,0.0,1.7822,1.8036,1.7876,1.7836,1.7836,1.7836,1.7702,1.7582,1.7582,1.7582,1.7689,1.8009,1.7809,1.7836,1.8637,1.8744,1.9359,2.1189,2.3661,2.5985,2.7909,2.8818,2.9325,0.0,2.9726,2.9913,2.9913,2.9913,2.9913,2.9913,2.9793,2.9646,2.9486,2.9352,2.9138,2.8845,2.8845,2.8604,2.8136,2.8136,2.8136,2.8136,2.8136,2.8136,2.8136,2.8136,2.8136,2.8136,2.8136,2.8136,2.8136,2.8136,2.8136,2.8136,2.8136,2.8136,2.8136,0.0,0.0,0.0,0.0,0.0,0.0,0.0,0.0,0.0,0.0,0.0,0.0,0.0,0.0,0.0,0.0,0.0,0.0,0.0,0.0,0.0,0.0,0.0,0.0,0.0,0.0,0.0,0.0,0.0,0.0,0.0,0.0,1.7074,0.0,1.6086,1.5832,1.5832,1.5832,1.5832,1.5832,1.5832,0.0,0.0,0.0,0.0,0.0,0.0,0.0,0.0,1.4851,1.4767,1.5033,1.3854,0.0,0.0,0.0,0.0,0.0,1.7635,1.7689,1.7702,1.7609,1.7582,1.7582,1.7582,1.7582,1.7582,1.7582,1.7582,1.7595,1.7649,1.7689,1.7822,1.813,1.8651,2.0013,2.2873,2.4716,2.6373,2.7949,2.8751,0.0,2.974,2.986,2.9913,2.9913,2.9873,2.9847,2.9847,2.9566,2.9392,2.9352,2.9098,2.8831,2.8537,2.8577,2.8457,2.8136,2.8136,2.8136,2.8136,2.8136,2.8136,2.8136,0.0,0.0,2.8136,2.8136,2.8136,2.8136,2.8136,2.8136,2.8136,2.8136,2.8136,2.8136,0.0,0.0,0.0,0.0,0.0,0.0,0.0,0.0,0.0,0.0,0.0,0.0,0.0,0.0,0.0,0.0,0.0,0.0,0.0,0.0,0.0,0.0,0.0,0.0,0.0,0.0,0.0,0.0,0.0,0.0,1.7662,1.7822,1.7475,1.6673,1.6086,1.5832,1.5832,1.5832,1.5832,1.5832,1.5832,0.0,0.0,0.0,0.0,0.0,0.0,0.0,0.0,1.5985,1.6032,1.619,1.6471,0.0,0.0,0.0,0.0,0.0,1.7903,1.8156,1.8223,1.7716,1.7582,1.7582,1.7582,1.7582,1.7582,1.7582,1.7582,1.7662,1.7929,1.8183,1.845,1.8744,0.0,2.2298,2.4756,0.0,2.7281,2.8056,0.0,2.9619,2.9219,2.9619,2.9913,2.9913,2.9686,2.9553,2.9553,2.9272,2.8991,2.8751,2.8698,2.8524,2.8217,2.847,2.8457,2.8136,2.8136,2.8136,2.8136,2.8136,2.8136,2.8136,0.0,2.8136,2.8136,2.8136,2.8136,2.8136,2.8136,2.8136,2.8136,2.8136,2.8136,2.8136,0.0,0.0,0.0,0.0,0.0,0.0,0.0,0.0,0.0,0.0,0.0,0.0,0.0,0.0,0.0,0.0,0.0,0.0,0.0,0.0,0.0,0.0,0.0,0.0,0.0,0.0,0.0,0.0,0.0,1.7595,1.8063,1.7729,1.7088,1.6219,1.5952,1.5832,1.5832,1.5832,1.5832,1.5832,0.0,0.0,0.0,0.0,0.0,0.0,0.0,0.0,0.0,0.0,1.6246,1.6553,1.682,0.0,0.0,0.0,0.0,0.0,1.7756,1.7903,1.8009,1.8063,1.8076,1.7943,1.7462,1.7475,1.7582,1.7582,1.7582,1.7729,1.8196,1.8651,1.9426,2.0828,0.0,2.3915,2.5317,2.6253,2.7121,0.0,0.0,2.9285,2.9499,2.9753,2.9913,2.9913,2.9793,2.9646,2.9486,2.9205,2.8911,2.8617,2.8444,2.8283,2.8136,2.8283,2.8283,2.8136,2.8136,2.8136,2.8136,2.8136,2.8136,2.8136,0.0,2.8056,2.7896,2.7896,2.7896,2.7883,2.7736,2.7856,2.8136,2.8136,2.8136,2.8136,0.0,0.0,0.0,0.0,0.0,0.0,0.0,0.0,0.0,0.0,0.0,0.0,0.0,0.0,0.0,0.0,0.0,0.0,0.0,0.0,0.0,0.0,0.0,0.0,0.0,0.0,1.6887,1.7248,1.7395,1.7782,1.8357,1.7542,1.6714,1.5925,1.5858,1.5832,1.5832,1.5832,1.5832,1.5832,0.0,0.0,0.0,0.0,0.0,0.0,0.0,0.0,0.0,0.0,0.0,0.0,0.0,0.0,0.0,1.7582,1.7582,1.7595,1.7675,1.7742,1.7876,1.8196,1.8277,1.8183,1.7849,1.7836,1.7956,1.8156,1.8143,1.825,1.8718,1.9439,2.0681,2.2832,2.4235,2.5277,2.5932,2.6533,2.7268,2.8243,2.8631,2.9098,2.9847,2.9913,2.9913,2.9913,2.9793,2.9619,2.9392,2.9032,2.8724,2.8511,2.827,2.8136,2.8136,2.8136,2.8136,2.8136,2.8136,2.8136,2.8136,2.8136,2.8136,2.8136,2.807,2.7909,2.7696,2.7629,2.7602,2.7589,2.7428,2.7682,2.8136,2.8136,2.8136,2.8136,0.0,0.0,0.0,0.0,0.0,0.0,0.0,0.0,0.0,0.0,0.0,0.0,0.0,0.0,0.0,0.0,0.0,0.0,0.0,0.0,0.0,0.0,0.0,0.0,0.0,1.6687,1.6981,1.7555,1.8116,1.8277,1.8036,1.7435,1.682,1.6233,1.5952,1.5832,1.5832,1.5832,1.5832,1.5832,1.5832,0.0,0.0,0.0,0.0,0.0,0.0,0.0,0.0,0.0,0.0,0.0,0.0,0.0,0.0,1.7582,1.7582,1.7649,1.7929,1.821,1.8303,1.7782,1.7649,1.7996,1.9305,1.9199,1.9065,1.988,0.0,0.0,0.0,2.0855,2.2311,2.3861,2.5317,2.656,2.7415,0.0,2.8577,2.8938,2.9232,2.9553,2.9887,2.9913,2.9913,2.9913,2.9406,2.9098,2.9072,2.8524,2.819,2.8177,2.815,2.8136,2.8136,2.8136,2.8136,2.8136,2.8136,2.8136,2.8136,2.8136,2.8136,2.8123,2.7856,2.7722,2.7682,2.7402,2.7295,2.7321,2.7562,2.7856,2.8136,2.8136,2.8136,2.8136,0.0,0.0,0.0,0.0,0.0,0.0,0.0,0.0,0.0,0.0,0.0,0.0,0.0,0.0,0.0,0.0,0.0,0.0,0.0,0.0,0.0,0.0,0.0,1.6219,1.67,1.7248,1.7916,1.8691,1.8731,1.841,1.7729,1.7154,0.0,1.5992,1.5885,1.5832,1.5832,1.5832,1.5832,1.5832,1.5832,1.5832,0.0,0.0,0.0,0.0,0.0,0.0,0.0,0.0,1.674,1.7007,0.0,1.7341,1.7582,1.7582,1.7582,1.7609,1.7729,1.8116,1.8437,1.821,1.8277,1.8611,0.0,1.9492,1.9666,2.0361,2.0708,0.0,0.0,0.0,2.3728,2.4836,2.6253,2.7388,2.7909,2.8337,2.8711,2.9005,2.9299,2.9606,2.9887,2.9913,2.9847,2.9659,2.9446,2.9152,2.8791,2.8551,2.8337,2.815,2.8136,2.8136,2.8136,2.8136,2.8136,2.8136,2.8136,2.8136,2.8136,2.8136,2.8043,2.7856,2.7749,2.7495,2.7148,2.7041,2.6987,2.7041,2.7509,2.7762,2.7883,2.807,2.8136,2.8136,0.0,0.0,0.0,0.0,0.0,0.0,0.0,0.0,0.0,0.0,0.0,0.0,0.0,0.0,0.0,0.0,0.0,0.0,0.0,0.0,0.0,0.0,0.0,1.6246,1.6834,1.7729,1.8531,1.9225,1.9025,1.841,1.7435,0.0,0.0,1.5965,1.5872,1.5885,1.5965,1.5872,1.5832,1.5832,1.5832,1.5832,0.0,0.0,0.0,0.0,0.0,0.0,0.0,0.0,1.6981,1.7168,1.7261,1.7422,1.7582,1.7582,1.7515,1.7448,1.7448,1.7756,1.809,1.8183,1.8504,1.9052,2.0094,2.0414,2.0762,2.1724,2.2031,2.2138,2.2245,0.0,0.0,0.0,2.676,2.7909,2.811,2.8417,2.8711,2.9005,2.9299,2.9606,2.9887,2.9913,2.9793,2.9499,2.9392,2.9125,2.8631,2.8511,2.8364,2.815,2.8136,2.8096,2.8003,2.8096,2.8096,2.8003,2.8096,2.8136,2.8136,2.8043,2.7896,2.7682,2.7495,2.7188,2.6814,2.672,2.68,2.7001,2.7402,2.7669,2.7869,2.807,2.8136,2.8136,0.0,0.0,0.0,0.0,0.0,0.0,0.0,0.0,0.0,0.0,0.0,0.0,0.0,0.0,0.0,0.0,0.0,0.0,0.0,1.5832,1.5737,1.5737,1.6112,1.654,1.7128,1.8023,1.8624,1.8918,1.8918,1.8303,1.7128,1.6553,0.0,0.0,1.5965,1.6005,1.6259,1.5965,1.5832,1.5832,1.5832,1.5832,1.5832,0.0,0.0,0.0,0.0,0.0,0.0,0.0,1.7154,1.7208,1.7488,1.7582,1.7582,1.7582,1.7382,1.7154,1.7154,1.7257,1.7235,1.7515,1.805,1.9199,2.183,2.2205,2.2485,2.4275,2.3941,2.3247,2.2939,2.3848,0.0,2.5037,2.68,2.8136,2.8136,2.8417,2.8724,2.9005,2.9312,2.9606,2.9887,2.9913,2.9793,2.9499,2.9205,2.8911,2.8617,2.831,2.8136,2.8136,2.8136,2.8003,2.7696,2.7989,2.7989,2.7696,2.8003,2.8136,2.8123,2.7829,2.7696,2.7655,2.7068,2.6827,2.68,2.6507,2.6734,2.7268,2.7268,2.7629,2.8136,2.8136,2.8136,2.8136,0.0,0.0,0.0,0.0,0.0,0.0,0.0,0.0,0.0,0.0,0.0,0.0,0.0,0.0,0.0,0.0,0.0,0.0,0.0,1.4459,1.4076,1.3113,1.4942,1.5647,1.4912,1.6664,1.7996,1.8918,1.849,1.7782,1.6834,0.0,0.0,1.6273,0.0,1.6299,1.6553,1.6273,1.6259,1.6446,1.6446,1.6446,1.6473,0.0,0.0,0.0,0.0,0.0,0.0,0.0,0.0,0.0,1.7555,1.7582,1.7582,1.7582,1.7515,1.7448,1.7448,1.7609,1.7876,1.8397,1.9118,2.0307,2.2539,2.2498,0.0,0.0,2.4556,2.4048,2.4369,2.4877,0.0,2.5651,2.6894,2.7896,2.811,2.8591,2.8938,2.9032,2.9486,2.982,2.9913,2.9726,2.9486,2.9192,2.8898,2.8604,2.8297,2.819,2.8136,2.8136,2.7936,2.7789,2.7696,2.7589,2.7589,2.7696,2.7789,2.7829,2.7829,2.7736,2.7468,2.7068,2.6894,2.6707,2.6507,2.6426,2.6734,2.7268,2.7268,2.7629,2.8136,2.8136,2.8136,2.8136,0.0,0.0,0.0,0.0,0.0,0.0,0.0,0.0,0.0,0.0,0.0,0.0,0.0,0.0,0.0,0.0,0.0,0.0,0.0,0.0,1.3006,1.2716,1.4172,1.5051,1.4973,1.5771,1.6573,1.7265,1.7569,1.7288,0.0,0.0,1.6513,1.6633,0.0,1.6887,1.7034,1.674,1.666,1.67,1.67,1.67,1.6727,0.0,0.0,0.0,0.0,0.0,0.0,0.0,0.0,0.0,1.7582,1.7582,1.7555,1.7448,1.7328,1.7235,1.7235,1.7528,1.805,1.8891,1.9933,2.1269,2.3233,2.3888,2.4516,0.0,2.5678,2.5184,2.5531,2.5745,0.0,2.6253,2.7188,2.7936,2.8123,2.8564,2.8911,2.9032,2.9352,2.9619,2.9726,2.9486,2.9179,2.8885,2.8711,2.847,2.8163,2.8136,2.8083,2.7963,2.7789,2.7589,2.7348,2.7295,2.7295,2.7348,2.7468,2.7468,2.7362,2.7468,2.7268,2.6814,2.6694,2.6547,2.6386,2.6386,2.6667,2.7094,2.7094,2.7375,2.7789,2.7789,2.7789,2.7816,0.0,0.0,0.0,0.0,0.0,0.0,0.0,0.0,0.0,0.0,0.0,0.0,0.0,0.0,0.0,0.0,0.0,0.0,0.0,0.0,1.2231,1.3488,1.3776,1.4789,1.662,1.5394,1.4678,1.4678,1.6215,0.0,0.0,0.0,1.6914,1.7168,0.0,1.7595,1.7609,1.7261,1.6981,1.678,1.678,1.678,1.678,1.678,0.0,0.0,0.0,0.0,0.0,0.0,0.0,0.0,1.7582,1.7582,1.7528,1.7261,1.6981,1.6767,1.6847,1.7235,1.7943,1.9239,2.0748,2.2352,2.4022,2.5892,2.7321,2.7535,0.0,2.6507,2.6507,2.6507,2.66,2.6854,2.7602,2.8136,2.8136,2.8417,2.8711,2.8965,2.9032,2.9152,2.9419,2.9179,2.8898,2.8631,2.8577,2.8444,2.8163,2.8123,2.7976,2.7709,2.7642,2.7362,2.6827,2.7068,2.7068,2.6827,2.7094,2.7081,2.6827,2.7108,2.7068,2.6774,2.6507,2.6386,2.6386,2.6386,2.656,2.6827,2.6827,2.7001,2.7268,2.7268,2.7268,2.7308,0.0,0.0,0.0,0.0,0.0,0.0,0.0,0.0,0.0,0.0,0.0,0.0,0.0,0.0,0.0,0.0,0.0,0.0,0.0,0.0,1.0583,1.0877,1.2813,1.452,1.5923,1.4727,1.4037,1.4037,1.4908,0.0,0.0,0.0,0.0,1.7168,0.0,1.7716,1.7903,1.7128,1.7034,1.7395,1.7395,1.7395,1.7395,1.7395,1.7435,0.0,0.0,0.0,0.0,0.0,0.0,0.0,1.7582,1.7582,1.7569,1.7502,1.7288,1.7208,1.7916,1.8036,1.845,2.0561,2.2886,2.4877,2.5732,2.6613,2.7148,2.676,2.7068,2.7415,2.7415,2.7415,2.7442,2.7495,2.7869,2.8136,2.8136,2.8417,2.8631,2.8698,2.8898,2.9072,2.9125,2.8871,2.8671,2.8604,2.8377,2.8217,2.815,2.7923,2.7762,2.7696,2.7255,2.6947,2.6827,2.6667,2.6667,2.6827,2.6894,2.6881,2.6827,2.6894,2.676,2.648,2.6413,2.6386,2.6386,2.6386,2.656,2.6827,2.6827,2.7001,2.7268,2.7268,2.7268,2.7308,0.0,0.0,0.0,0.0,0.0,0.0,0.0,0.0,0.0,0.0,0.0,0.0,0.0,0.0,0.0,0.0,0.0,0.0,0.0,0.0,0.0,0.0,1.1843,1.321,1.3884,1.2716,1.2037,1.2037,1.2371,0.0,0.0,0.0,0.0,1.7181,0.0,1.8036,1.8023,1.7542,1.7435,1.7582,1.7582,1.7582,1.7582,1.7582,1.7582,1.7582,1.7582,0.0,0.0,0.0,0.0,0.0,0.0,0.0,1.7528,1.7248,1.7154,1.7248,1.7716,1.825,1.9345,2.2124,2.4075,2.5491,2.6226,2.6627,2.68,2.6627,2.7188,2.7696,2.7696,2.7816,2.7909,2.7909,2.8043,2.8136,2.8136,2.8283,2.8444,2.8591,2.8604,2.8671,2.8818,2.8564,2.839,2.839,2.823,2.8083,2.7936,2.7789,2.7575,2.7295,2.6987,2.676,2.6613,2.6466,2.6466,2.6613,2.648,2.6333,2.6199,2.6346,2.6319,2.6172,2.6026,2.6052,2.6186,2.6186,2.6266,2.6426,2.656,2.6707,2.6841,2.6841,2.6841,2.6894,0.0,0.0,0.0,0.0,0.0,0.0,0.0,0.0,0.0,0.0,0.0,0.0,0.0,0.0,0.0,0.0,0.0,0.0,0.0,0.0,0.0,0.0,1.1268,1.195,1.195,1.0681,1.0002,1.0002,0.0,0.0,0.0,0.0,0.0,1.7114,0.0,1.817,1.7889,1.7836,1.7702,1.7502,1.7502,1.7542,1.7582,1.7582,1.7582,0.0,0.0,0.0,0.0,0.0,0.0,0.0,0.0,0.0,1.7488,1.6994,1.6954,1.7114,1.7261,1.8464,2.0374,2.3313,2.4529,2.5224,2.6052,2.6279,2.6386,2.6627,2.7215,2.7696,2.7696,2.7936,2.8136,2.8136,2.8136,2.8136,2.8136,2.8136,2.8243,2.8497,2.8297,2.8243,2.8497,2.8297,2.8136,2.8136,2.8096,2.7963,2.7709,2.7602,2.7321,2.6841,2.6774,2.6627,2.6386,2.6333,2.6319,2.6306,2.6026,2.5718,2.5451,2.5692,2.5838,2.5865,2.5625,2.5651,2.5879,2.5879,2.5879,2.5905,2.6199,2.6319,2.6319,2.6373,2.6386,2.6426,0.0,0.0,0.0,0.0,0.0,0.0,0.0,0.0,0.0,0.0,0.0,0.0,0.0,0.0,0.0,0.0,0.0,0.0,0.0,0.0,0.0,0.0,1.1268,1.195,1.195,1.0681,1.0002,0.0,0.0,0.0,0.0,0.0,0.0,1.6794,0.0,0.0,1.7248,1.6994,1.7007,1.7208,1.7208,1.7355,1.7582,1.7582,0.0,0.0,0.0,0.0,0.0,0.0,1.7582,0.0,0.0,0.0,1.7569,1.7488,1.7128,1.6941,1.7716,1.9372,2.1296,2.302,2.4075,2.4863,2.5491,2.5825,2.6026,2.6066,2.6934,2.7696,2.7696,2.7936,2.8136,2.8136,2.8136,2.8136,2.8136,2.8136,2.8163,2.8203,2.8163,2.8163,2.8203,2.8163,2.8136,2.8136,2.7896,2.7736,2.7696,2.7215,2.6907,2.6827,2.6573,2.6426,2.6386,2.6146,2.6012,2.6012,2.5718,2.5424,2.5144,2.5184,2.5331,2.5571,2.5531,2.5531,2.5571,2.5571,2.5571,2.5598,2.5905,2.6012,2.6039,2.6293,2.6386,2.6426,0.0,0.0,0.0,0.0,0.0,0.0,0.0,0.0,0.0,0.0,0.0,0.0,0.0,0.0,0.0,0.0,0.0,0.0,0.0,0.0,0.0,0.0,0.9506,0.9862,0.9862,0.9454,0.9158,0.0,0.0,0.0,0.0,1.3196,1.4737,0.0,0.0,0.0,0.0,0.0,1.7275,1.7395,1.7395,1.7368,1.7355,0.0,0.0,0.0,0.0,0.0,0.0,0.0,0.0,1.7582,1.7582,0.0,0.0,0.0,1.7275,1.7462,1.8691,1.9813,2.1056,2.2873,2.3621,2.4142,2.5064,2.5371,2.5558,2.5892,2.6627,2.7215,2.7215,2.7589,2.7896,2.7896,2.803,2.8136,2.8136,2.8136,2.8136,2.8136,2.8136,2.8136,2.8136,2.8136,2.807,2.7909,2.7776,2.7562,2.7228,2.6961,2.6747,2.6587,2.6453,2.6306,2.6146,2.6026,2.5798,2.5464,2.5331,2.5037,2.4596,2.4596,2.4836,2.5264,2.509,2.5117,2.5277,2.5277,2.5277,2.5304,2.5598,2.5705,2.5718,2.5852,2.5905,2.5945,0.0,0.0,0.0,0.0,0.0,0.0,0.0,0.0,0.0,0.0,0.0,0.0,0.0,0.0,0.0,0.0,0.0,0.0,0.0,0.0,0.0,0.0,0.0,0.8269,0.8269,0.8377,0.0,0.0,0.0,0.0,1.2465,1.2465,1.4004,0.0,1.7275,0.0,0.0,0.0,0.0,0.0,0.0,1.7275,0.0,0.0,0.0,0.0,0.0,0.0,0.0,0.0,0.0,0.0,0.0,1.7582,0.0,0.0,0.0,1.7729,1.8918,1.9559,2.0347,2.2191,2.2873,2.338,2.4489,2.4863,2.513,2.5718,2.6253,2.6627,2.6694,2.7255,2.7696,2.7696,2.7949,2.8136,2.8136,2.8136,2.8136,2.8136,2.8136,2.8136,2.8136,2.807,2.7936,2.7722,2.7562,2.7281,2.6841,2.668,2.6507,2.6279,2.6213,2.6066,2.5838,2.5772,2.5478,2.497,2.489,2.4623,2.4195,2.4128,2.4329,2.4743,2.4596,2.4649,2.4863,2.493,2.497,2.4997,2.5291,2.5411,2.5411,2.5478,2.5518,2.5545,0.0,0.0,0.0,0.0,0.0,0.0,0.0,0.0,0.0,0.0,0.0,0.0,0.0,0.0,0.0,0.0,0.0,0.0,0.0,0.0,0.0,0.0,0.0,0.0,0.0,0.0,0.0,0.0,0.0,0.0,1.2792,1.2792,1.4356,1.723,1.7154,1.7007,1.6754,0.0,0.0,0.0,0.0,0.0,0.0,0.0,0.0,0.0,0.0,0.0,0.0,0.0,0.0,0.0,0.0,0.0,1.7582,0.0,0.0,0.0,1.7595,1.833,1.9279,2.0508,2.1643,2.2712,2.3634,2.4262,2.4823,2.5411,2.5785,2.6092,2.636,2.7121,2.7696,2.7696,2.7949,2.8136,2.8136,2.8136,2.8136,2.8136,2.8136,2.8136,2.8136,2.7883,2.7722,2.7696,2.7188,2.6854,2.6827,2.6306,2.5999,2.5972,2.5705,2.5545,2.5531,2.5264,2.497,2.4649,2.4382,2.4235,2.4195,2.3915,2.3808,2.3848,2.4115,2.4235,2.4275,2.4543,2.4663,2.469,2.4983,2.5104,2.513,2.5411,2.5518,2.5518,0.0,0.0,0.0,0.0,0.0,0.0,0.0,0.0,0.0,0.0,0.0,0.0,0.0,0.0,0.0,0.0,0.0,0.0,0.0,0.0,0.0,0.0,0.0,0.0,0.0,0.0,0.0,0.0,0.0,0.98,1.27,1.2557,1.4038,1.6874,1.7261,1.7261,1.7007,1.7301,0.0,0.0,0.0,0.0,0.0,0.0,0.0,0.0,0.0,0.0,0.0,0.0,0.0,0.0,0.0,0.0,0.0,0.0,1.7382,1.7301,1.7983,1.8263,1.8637,1.9826,2.0708,2.1483,2.2191,2.3247,2.4195,2.4596,2.5211,2.5705,2.5812,2.6547,2.7134,2.7134,2.7549,2.7789,2.7602,2.7909,2.807,2.7883,2.7856,2.7856,2.7856,2.7589,2.7348,2.7148,2.6947,2.6653,2.6279,2.6066,2.5865,2.5678,2.5571,2.5331,2.4957,2.4476,2.4182,2.4075,2.3981,2.3821,2.3634,2.3527,2.338,2.3207,2.3514,2.3754,2.3928,2.4035,2.4195,2.4369,2.4476,2.4636,2.481,2.4917,2.4943,2.497,0.0,0.0,0.0,0.0,0.0,0.0,0.0,0.0,0.0,0.0,0.0,0.0,0.0,0.0,0.0,0.0,0.0,0.0,0.0,0.0,0.0,0.0,0.0,0.0,0.0,0.0,0.0,0.0,0.0,0.0,0.0,1.318,1.4624,1.6874,1.7368,1.7475,0.0,0.0,0.0,1.7836,0.0,0.0,1.6981,0.0,0.0,0.0,0.0,0.0,0.0,0.0,0.0,0.0,0.0,0.0,0.0,0.0,0.0,0.0,1.805,1.8116,1.8303,1.9386,1.9947,2.0494,2.147,2.2458,2.3367,2.4062,2.4743,2.5277,2.5478,2.5985,2.6453,2.664,2.7175,2.7482,2.7295,2.7602,2.7776,2.7575,2.7549,2.7549,2.7549,2.7295,2.6987,2.6694,2.6587,0.0,2.5838,2.5718,2.5478,2.509,2.4983,2.4743,2.4342,2.3968,2.3768,2.3768,2.3674,2.3514,2.3327,2.322,2.306,2.2873,2.3086,2.334,2.3634,2.3728,2.3888,2.4062,2.4168,2.4329,2.4502,2.4596,2.4636,2.4663,0.0,0.0,0.0,0.0,0.0,0.0,0.0,0.0,0.0,0.0,0.0,0.0,0.0,0.0,0.0,0.0,0.0,0.0,0.0,0.0,0.0,0.0,0.0,0.0,0.0,0.0,0.0,0.0,0.0,0.0,0.0,0.0,1.5878,1.7154,1.7448,1.7569,1.7582,0.0,1.7929,1.837,0.0,1.7061,1.7502,0.0,0.0,0.0,1.7141,1.7154,0.0,1.7181,0.0,0.0,0.0,0.0,0.0,0.0,0.0,0.0,0.0,0.0,0.0,1.9105,1.9332,1.9786,2.1496,2.1911,2.2352,2.3821,2.4356,2.4756,2.5358,2.5478,2.5665,2.6253,2.6854,2.7228,2.7215,2.7241,2.7255,2.7228,2.7228,2.7241,2.7228,2.6961,2.6667,2.6386,2.6106,2.5812,2.5504,2.5197,2.4783,2.4209,2.3915,2.3754,2.3741,2.3728,2.3728,2.3728,2.3434,2.33,2.3287,2.2993,2.2846,2.2846,2.2846,2.3033,2.334,2.3621,2.3754,2.3781,2.4062,2.4182,2.4235,2.4516,2.4623,2.4636,0.0,0.0,0.0,0.0,0.0,0.0,0.0,0.0,0.0,0.0,0.0,0.0,0.0,0.0,0.0,0.0,0.0,0.0,0.0,0.0,0.0,0.0,0.0,0.0,0.0,0.0,0.0,0.0,0.0,0.0,0.0,0.0,0.0,0.0,1.7235,1.7382,1.7582,1.7582,0.0,0.0,1.7569,1.7315,0.0,0.0,0.0,0.0,0.0,1.7101,1.7502,0.0,1.7889,1.7983,0.0,0.0,0.0,0.0,0.0,0.0,1.7609,0.0,0.0,0.0,0.0,0.0,1.9345,2.0107,2.1015,2.2071,2.2686,2.334,2.4382,2.4569,2.4756,2.5344,2.6106,2.648,2.6052,2.6734,2.7028,2.6386,2.6507,2.6547,2.6333,2.6052,2.5838,0.0,2.5678,2.5411,2.4903,2.4409,2.4062,2.3901,2.3607,2.334,2.3113,2.2899,2.2792,2.2792,2.2712,2.2672,2.2672,2.2579,2.2539,2.2539,2.2539,2.2712,2.2993,2.3086,2.3247,2.346,2.3541,2.3834,2.4209,2.4289,2.4449,2.4636,0.0,0.0,0.0,0.0,0.0,0.0,0.0,0.0,0.0,0.0,0.0,0.0,0.0,0.0,0.0,0.0,0.0,0.0,0.0,0.0,0.0,0.0,0.0,0.0,0.0,0.0,0.0,0.0,0.0,0.0,0.0,0.0,0.0,0.0,0.0,0.0,0.0,0.0,0.0,0.0,1.7756,0.0,0.0,1.7569,1.7422,0.0,0.0,0.0,1.8116,1.7916,1.805,0.0,0.0,0.0,0.0,0.0,0.0,0.0,0.0,0.0,0.0,0.0,0.0,0.0,1.8744,1.9292,1.9973,2.0975,2.1657,2.2338,2.3287,2.3661,2.3995,2.4462,2.517,2.5625,2.5531,2.6106,2.6346,2.5838,2.5919,2.5905,2.5625,2.5438,2.5277,2.5157,2.5037,2.477,2.4302,2.3834,2.3527,2.3394,2.31,2.2806,2.2498,2.2325,2.2231,2.2231,2.2231,2.2231,2.2231,2.2231,2.2231,2.2231,2.2231,2.2405,2.2672,2.2672,2.2859,2.314,2.3273,2.3541,2.3848,2.3981,2.4209,2.4449,0.0,0.0,0.0,0.0,0.0,0.0,0.0,0.0,0.0,0.0,0.0,0.0,0.0,0.0,0.0,0.0,0.0,0.0,0.0,0.0,0.0,0.0,0.0,0.0,0.0,0.0,0.0,0.0,0.0,0.0,0.0,0.0,0.0,0.0,0.0,0.0,0.0,0.0,0.0,1.8397,1.7889,1.8143,0.0,0.0,1.8624,1.8798,1.8571,1.8677,1.8798,1.7996,1.7889,0.0,0.0,0.0,0.0,0.0,1.8464,0.0,0.0,0.0,0.0,0.0,0.0,0.0,1.8985,1.9011,1.9145,2.0294,2.0949,2.1523,2.2191,2.2766,2.3233,2.3527,2.4062,2.4649,2.5277,2.5451,2.5464,2.5331,2.5371,2.5291,2.497,2.493,2.4823,2.4556,2.4275,2.3995,2.3728,2.3407,2.31,2.2819,2.2525,2.2231,2.1937,2.1937,2.1937,2.1937,2.1937,2.1937,2.1937,2.1937,2.1937,2.1937,2.1937,2.2098,2.2378,2.2405,2.2592,2.2886,2.3166,2.33,2.3367,2.3621,2.3928,2.4209,0.0,0.0,0.0,0.0,0.0,0.0,0.0,0.0,0.0,0.0,0.0,0.0,0.0,0.0,0.0,0.0,0.0,0.0,0.0,0.0,0.0,0.0,0.0,0.0,0.0,0.0,0.0,0.0,0.0,0.0,0.0,0.0,0.0,0.0,0.0,0.0,0.0,0.0,0.0,1.8143,1.8263,0.0,1.8237,1.8424,1.8384,1.8237,1.8424,1.8677,1.8891,1.8718,1.8544,1.8397,0.0,0.0,0.0,0.0,0.0,0.0,0.0,0.0,0.0,0.0,0.0,0.0,1.8303,1.8263,1.849,1.9426,1.972,2.0187,2.1483,2.1817,2.1991,2.2285,2.2832,2.35,2.4342,2.5064,2.517,2.4222,2.4529,2.4596,2.4075,2.4022,2.4008,2.3941,2.3661,2.3474,2.342,2.2899,2.2565,2.2512,2.2218,2.1937,2.1643,2.163,2.163,2.163,2.163,2.163,2.163,2.163,2.163,2.163,2.163,2.1804,2.2084,2.2325,2.2592,2.2873,2.2926,2.31,2.334,2.3394,2.3754,2.4209,0.0,0.0,0.0,0.0,0.0,0.0,0.0,0.0,0.0,0.0,0.0,0.0,0.0,0.0,0.0,0.0,0.0,0.0,0.0,0.0,0.0,0.0,0.0,0.0,0.0,0.0,0.0,0.0,0.0,0.0,0.0,0.0,0.0,0.0,0.0,0.0,0.0,0.0,1.8036,1.8076,1.837,0.0,1.8517,1.8811,1.8838,1.8731,1.8878,1.8931,1.8918,1.8918,1.8824,0.0,0.0,1.849,1.8544,0.0,1.8611,1.833,0.0,0.0,0.0,1.849,0.0,0.0,0.0,1.8156,1.825,1.8998,1.9025,1.9239,2.0281,2.0588,2.0869,2.1456,2.1924,2.2189,2.2065,2.3366,2.4209,2.3621,2.3674,2.3581,2.314,2.31,2.3033,2.2886,2.2873,2.2806,2.2672,2.2365,2.2138,2.1991,2.1844,2.163,2.1336,2.1336,2.1336,2.1336,2.1336,2.1336,2.1336,2.1336,2.1336,2.1336,2.1336,2.1496,2.1777,2.1924,2.2164,2.2458,2.2752,2.2953,2.31,2.31,2.338,2.3768,0.0,0.0,0.0,0.0,0.0,0.0,0.0,0.0,0.0,0.0,0.0,0.0,0.0,0.0,0.0,0.0,0.0,0.0,0.0,0.0,0.0,0.0,0.0,1.1455,0.0,0.0,0.0,0.0,0.0,0.0,0.0,0.0,0.0,0.0,0.0,0.0,0.0,0.0,0.0,1.8156,0.0,1.8718,1.8958,1.9252,1.9372,1.9372,1.9372,1.9212,1.8998,1.8945,1.8918,1.8878,1.8651,1.8691,0.0,0.0,0.0,0.0,0.0,0.0,0.0,0.0,0.0,1.8784,0.0,0.0,0.0,1.8758,1.8651,1.8637,1.9118,1.9439,1.9826,2.0428,2.0697,2.049,1.9364,2.0699,2.1833,2.2051,2.1808,2.1565,2.1385,2.1603,2.1765,2.1991,2.2151,2.2178,2.1991,2.1937,2.179,2.1563,2.1496,2.1349,2.1109,2.1109,2.1109,2.1109,2.1109,2.1109,2.1109,2.1109,2.1109,2.1109,2.1109,2.1243,2.147,2.1537,2.1697,2.1951,2.2485,2.2726,2.2779,2.2779,2.3006,2.3327,1.5832,1.4663,0.0,0.0,0.0,0.0,0.0,0.0,0.0,0.0,0.0,0.0,0.0,0.0,0.0,0.0,0.0,0.0,1.167,0.0,0.0,0.0,0.0,0.0,1.0766,0.0,0.0,0.0,0.0,0.0,0.0,0.0,0.0,0.0,1.7876,0.0,0.0,0.0,1.7983,0.0,1.8758,1.8891,0.0,1.9252,1.9372,1.9372,1.9372,1.9345,1.9279,0.0,1.8918,1.8918,0.0,1.8718,1.8651,1.9199,0.0,0.0,0.0,0.0,0.0,0.0,1.984,0.0,0.0,0.0,1.8771,1.8584,0.0,1.8517,1.8584,0.0,0.0,0.0,1.8307,1.8105,1.7446,1.6853,1.684,1.741,1.7572,1.7496,1.741,1.8582,2.0129,2.1832,2.1777,2.175,2.1977,2.1737,2.159,2.155,2.1296,2.1149,2.1109,2.1109,2.1109,2.1109,2.1109,2.1109,2.1109,2.1109,2.1109,2.1109,2.1109,2.1122,2.1176,2.1443,2.1577,2.163,2.1964,2.2245,2.2472,2.2472,2.2832,2.3327,1.5832,1.4758,0.0,0.0,0.0,0.0,0.0,0.0,0.0,0.0,0.0,0.0,0.0,0.0,0.0,0.0,0.0,1.4229,0.0,0.0,0.0,0.0,0.0,0.0,0.0,0.0,0.0,0.0,1.294,0.0,0.0,0.0,0.0,0.0,1.8317,0.0,1.7983,0.0,1.841,0.0,0.0,0.0,0.0,1.9386,1.9372,1.9386,1.9559,1.9626,1.9573,0.0,1.9292,0.0,0.0,0.0,0.0,0.0,0.0,0.0,0.0,0.0,0.0,0.0,0.0,0.0,1.9305,0.0,1.8945,0.0,0.0,0.0,0.0,0.0,0.0,0.0,1.7528,0.0,1.5576,1.433,1.4207,1.5957,0.0,0.0,1.5843,1.6412,1.7155,1.8022,1.8069,1.8151,1.8256,1.9224,1.9848,1.9848,2.0654,2.1109,2.1109,2.1109,2.1109,2.1109,2.1109,2.1109,2.1109,2.1109,2.1109,2.1109,2.1109,2.1109,2.1122,2.1243,2.1296,2.1309,2.143,2.1764,2.2191,2.2352,2.2579,2.2832,1.5832,0.0,0.0,0.0,0.0,0.0,0.0,0.0,0.0,0.0,0.0,0.0,1.764,1.6681,0.0,0.0,1.6343,1.6369,0.0,0.0,1.7668,1.6429,1.6784,0.0,0.0,0.0,0.0,0.0,0.0,0.0,0.0,0.0,0.0,0.0,0.0,1.8531,1.8116,0.0,1.8891,1.8891,1.9399,1.9733,1.9893,1.9679,1.9599,1.9626,1.984,1.9867,1.9773,1.9653,1.9693,0.0,1.9399,0.0,0.0,0.0,0.0,0.0,1.9867,0.0,0.0,0.0,0.0,0.0,0.0,0.0,0.0,0.0,0.0,0.0,0.0,0.0,0.0,0.0,0.0,1.5355,0.0,1.2352,1.1859,1.3714,0.0,0.0,0.0,1.4377,1.461,1.5155,1.5155,1.5248,1.5494,1.6893,1.7897,1.85,1.9674,2.0589,2.1109,2.1109,2.1109,2.1109,2.1109,2.1109,2.1109,2.1109,2.1109,2.1109,2.1109,2.1109,2.1109,2.1109,2.1109,2.1109,2.1109,2.1363,2.1777,2.2071,2.2285,2.2445,1.5832,1.4758,0.0,0.0,0.0,0.0,0.0,0.0,0.0,0.0,0.0,0.0,0.0,0.0,0.0,0.0,0.0,1.7917,1.6798,0.0,1.7969,1.6706,1.8034,1.7553,0.0,0.0,0.0,0.0,0.0,0.0,0.0,0.0,0.0,0.0,0.0,1.8811,1.9292,1.9038,1.9239,1.9786,2.008,2.0214,2.0214,0.0,2.0201,2.0214,2.0214,0.0,0.0,2.0107,2.0027,0.0,0.0,0.0,0.0,0.0,0.0,0.0,0.0,0.0,0.0,2.0441,0.0,0.0,0.0,0.0,2.0027,0.0,0.0,0.0,0.0,0.0,0.0,0.0,0.0,0.0,0.0,0.0,0.9174,0.9599,0.0,0.0,0.0,1.2448,1.3138,1.5024,1.4686,1.4707,1.5463,1.5432,1.6237,1.8489,1.8512,1.9419,2.1109,2.1109,2.1109,2.1109,2.1109,2.1109,2.1109,2.1109,2.1109,2.1109,2.1109,2.1109,2.1109,2.1109,2.1109,2.1109,2.1109,2.1122,2.1176,2.147,2.1937,2.2418,0.0,0.0,0.0,0.0,0.0,0.0,0.0,1.6343,0.0,0.0,0.0,0.0,0.0,2.1216,2.0843,0.0,0.0,1.9615,1.8813,1.8932,0.0,0.0,0.0,1.8651,0.0,0.0,0.0,0.0,0.0,0.0,0.0,0.0,0.0,0.0,0.0,1.8891,0.0,0.0,0.0,0.0,0.0,2.0641,2.0775,0.0,2.0107,1.9973,2.016,2.0174,0.0,2.0201,2.0294,2.0361,2.0267,2.016,2.008,2.008,2.0428,0.0,0.0,0.0,2.167,2.0989,0.0,0.0,0.0,0.0,0.0,0.0,0.0,0.0,0.0,0.0,0.0,0.0,0.0,0.0,0.0,0.0,0.8452,0.0,0.0,0.0,0.0,1.0148,1.0386,1.1012,1.0843,1.0956,1.1422,1.268,1.4324,1.6474,1.7782,1.9234,2.1109,2.1109,2.1109,2.1109,2.1109,2.1109,2.1109,2.1109,2.1109,2.1109,2.1109,2.1109,2.1109,2.1109,2.1109,2.1109,2.1109,2.1109,2.1149,2.1443,2.1804,2.2045,1.5845,0.0,0.0,0.0,0.0,0.0,0.0,0.0,0.0,0.0,2.0257,0.0,2.2458,0.0,2.2178,0.0,2.1323,2.0655,1.9853,1.9826,0.0,1.8918,1.9399,0.0,0.0,0.0,0.0,0.0,0.0,1.8744,0.0,0.0,0.0,0.0,0.0,1.9078,1.9105,1.9506,1.9679,0.0,0.0,2.0949,0.0,0.0,2.0494,2.0441,0.0,2.0481,2.0401,2.0508,2.0601,2.0655,2.0575,2.0468,2.0388,2.0388,2.0735,2.1109,2.1109,2.1537,0.0,2.139,2.1203,0.0,2.0267,0.0,0.0,0.0,0.0,0.0,0.0,0.0,0.0,0.0,0.0,0.0,0.0,0.9431,0.0,0.0,0.0,0.0,0.894,0.8974,0.896,0.8866,0.8764,0.8852,0.9205,1.0484,1.2499,1.5371,1.668,1.862,2.1109,2.1109,2.1109,2.1109,2.1109,2.1109,2.1109,2.1109,2.1109,2.1109,2.1109,2.1109,2.1109,2.1109,2.1109,2.1109,2.1109,2.1109,2.1136,2.1323,2.1643,2.178,0.0,0.0,0.0,0.0,1.6139,0.0,0.0,0.0,1.9233,0.0,2.0966,2.2605,2.2939,2.2939,2.2806,2.2485,2.1937,2.1109,1.996,2.0414,0.0,0.0,1.9506,1.9452,1.7729,0.0,0.0,0.0,0.0,0.0,0.0,0.0,0.0,0.0,1.9372,0.0,1.9399,1.9973,2.0227,2.0307,2.0882,2.1122,2.1136,2.1122,2.1296,2.151,2.1203,2.0909,2.0722,2.0989,2.0909,2.0748,2.1029,2.0922,2.0695,2.0695,2.0909,2.1136,2.1149,2.1563,2.1937,2.167,0.0,0.0,0.0,0.0,2.1857,0.0,0.0,0.0,0.0,0.0,0.0,0.0,0.0,0.0,0.0,0.0,0.0,0.0,0.0,0.8581,0.8886,0.8784,0.8696,0.8689,0.8425,0.8452,0.8893,0.9062,1.1017,1.4983,1.5452,1.7334,2.0969,2.1109,2.1109,2.1109,2.1109,2.1109,2.1109,2.1109,2.1109,2.1109,2.1109,2.1109,2.1109,2.1109,2.1109,2.1109,2.1109,2.1109,2.1109,2.1136,2.1496,2.1595,1.6126,1.6393,1.6299,0.0,1.6292,1.7052,0.0,0.0,0.0,0.0,2.2545,2.3701,2.4436,2.4115,2.3647,2.314,2.2539,0.0,0.0,0.0,0.0,2.004,2.0361,2.0147,1.9252,1.9452,0.0,1.8905,0.0,0.0,1.9252,0.0,0.0,0.0,0.0,1.9372,1.9399,1.976,2.016,2.0588,2.0962,2.1243,2.1416,0.0,2.1296,2.1483,2.0975,2.0735,2.0681,2.0762,2.0882,2.1015,2.1082,2.1056,2.1002,2.1002,2.1203,2.1483,2.1697,2.2031,2.2285,2.2218,2.2084,2.1924,0.0,0.0,0.0,0.0,0.0,0.0,0.0,0.0,0.0,0.0,0.0,0.0,0.0,0.0,0.0,0.8459,0.0,0.8269,0.8567,0.8567,0.8499,0.8391,0.8208,0.8241,0.8581,0.0,1.0228,1.2885,1.4656,1.6664,1.9152,2.0449,2.1109,2.1109,2.1109,2.1109,2.1109,2.1109,2.1109,2.1109,2.1109,2.1109,2.1109,2.1109,2.1109,2.1109,2.1109,2.1109,2.1162,2.1603,2.0915,1.9591,1.6433,0.0,0.0,1.6505,0.0,0.0,1.7995,1.9076,0.0,2.2205,2.3313,0.0,2.4462,2.4436,2.4155,2.3567,2.2966,0.0,2.1777,0.0,0.0,2.0895,2.0989,2.0668,1.9813,1.9679,0.0,1.9172,0.0,0.0,1.9372,0.0,0.0,0.0,0.0,1.9439,1.9586,2.0,2.0441,2.0882,2.1042,2.1203,0.0,2.1176,2.1216,2.1323,2.0989,2.0869,2.0869,2.0869,2.0975,2.1109,2.1109,2.1109,2.1109,2.1109,2.1323,2.159,2.175,2.2098,2.2418,2.2418,2.2498,2.2498,2.2231,2.2632,2.2899,0.0,0.0,0.0,0.0,0.0,0.0,0.0,0.0,0.0,0.0,0.0,0.0,0.0,0.8336,0.8275,0.8377,0.833,0.8255,0.8174,0.8153,0.818,0.8282,0.0,0.9853,1.1906,1.4328,1.6556,1.8336,2.0387,2.1243,2.1109,2.1109,2.1109,2.1109,2.1109,2.1109,2.1109,2.1109,2.1109,2.1109,2.1109,2.1109,2.0982,2.0195,1.9941,1.9992,1.9625,1.9292,1.8673,1.6754,0.0,0.0,0.0,0.0,0.0,0.0,1.9547,0.0,2.2472,0.0,2.4275,2.4035,2.4382,2.4422,2.3875,0.0,2.2712,2.2191,2.2365,2.2111,2.1323,2.1496,2.1096,2.0,1.9613,1.9292,0.0,0.0,1.9078,1.9372,0.0,0.0,0.0,0.0,0.0,0.0,2.0307,2.0708,2.0949,2.1029,2.1082,2.1109,2.1109,2.1109,2.1109,2.1109,2.1109,2.1109,2.1109,2.1109,2.1109,2.1109,2.1109,2.1109,2.1109,2.1296,2.151,2.1537,2.1951,2.2378,2.2405,2.2846,2.314,2.2645,2.2939,2.318,2.2645,2.2512,2.2285,0.0,0.0,0.0,0.0,0.0,0.0,0.0,0.0,0.0,0.0,0.0,0.0,0.8309,0.816,0.8058,0.8038,0.8167,0.818,0.8045,0.0,0.9618,1.1372,1.4133,1.6436,1.8034,2.0323,2.139,2.1162,2.1122,2.1109,2.1109,2.1109,2.1109,2.1109,2.1109,2.1109,2.1109,2.1109,2.0982,2.0589,1.9024,1.8372,1.8011,1.6529,1.6997,1.7795,1.7021,0.0,0.0,0.0,0.0,1.9728,1.9374,2.1213,2.3046,2.3794,2.4703,2.5264,2.5211,2.4863,2.4502,2.4155,2.3594,0.0,0.0,0.0,0.0,2.2205,2.2004,2.159,2.0895,2.012,1.9693,0.0,1.9158,1.9078,1.9372,0.0,0.0,0.0,0.0,0.0,1.9118,1.9706,0.0,2.0067,2.0561,2.0895,2.1109,2.1109,2.1109,2.1109,2.1109,2.1109,2.1109,2.1109,2.1109,2.1109,2.1109,2.1109,2.1109,2.1109,2.1149,2.1243,2.1483,2.1804,2.2124,2.2352,2.2686,2.2979,2.314,2.3247,2.33,2.3193,2.2966,2.2539,2.171,0.0,0.0,0.0,0.0,0.0,0.0,0.0,0.0,0.0,0.0,0.8472,0.8445,0.8316,0.8174,0.8052,0.8065,0.8065,0.8038,0.0,0.8852,0.0,1.3264,1.5554,0.0,0.0,2.1283,2.147,2.1229,2.1109,2.1109,2.1109,2.1109,2.1109,2.1109,2.1109,2.1109,2.1109,2.0195,1.8896,1.864,1.7602,1.6183,1.4399,1.4024,1.4304,0.0,0.0,0.0,0.0,0.0,0.0,0.0,2.2741,2.3834,2.3955,2.4209,2.4436,2.4596,2.4623,2.4516,2.4222,2.3808,2.3487,2.334,2.3033,2.2726,2.2432,2.2285,2.1937,2.1349,2.0481,2.0027,2.0027,1.9279,1.9078,0.0,0.0,0.0,1.9372,0.0,1.9292,0.0,0.0,0.0,2.008,2.0668,2.0989,2.1109,2.1109,2.1109,2.1109,2.1109,2.1109,2.1109,2.1109,2.1109,2.1109,2.1109,2.1109,2.1109,2.1109,2.1109,2.1136,2.1283,2.1643,2.2017,2.2164,2.2539,2.2939,2.326,2.3327,2.3327,2.3327,2.3207,2.2739,2.1537,2.012,0.0,0.0,0.0,0.0,0.0,0.0,0.0,0.0,0.0,0.0,0.0,0.0,0.0,0.0,0.0,0.8126,0.8045,0.0,0.8655,0.0,0.0,0.0,1.4426,0.0,2.0015,2.0002,2.0781,2.1109,2.1109,2.1109,2.1109,2.1109,2.1109,2.1109,2.0982,2.0068,1.9291,1.8372,1.656,1.5265,1.4362,1.2545,1.1894,1.2033,0.0,1.9052,0.0,0.0,2.1296,0.0,2.318,2.3928,2.4302,2.4075,2.3794,2.3714,2.4022,2.4396,2.4543,2.4315,2.3968,2.3674,2.3434,2.3073,2.2752,2.2525,2.2458,2.2178,2.1657,2.0722,2.0201,0.0,1.9319,1.9038,0.0,0.0,0.0,0.0,0.0,0.0,0.0,0.0,2.0174,2.0281,2.0802,2.1056,2.1109,2.1109,2.1109,2.1109,2.1109,2.1109,2.1109,2.1109,2.1109,2.1109,2.1109,2.1109,2.1109,2.1109,2.1109,2.1109,2.1109,2.1537,2.1991,2.1991,2.2432,2.2926,2.318,2.322,2.322,2.322,2.3126,2.2632,2.1269,2.008,0.0,0.0,0.0,0.0,0.0,0.0,0.0,0.0,0.0,0.0,0.8085,0.0,0.0,0.0,0.0,0.8167,0.8045,0.8296,0.8574,0.0,0.0,1.2595,1.2892,0.0,1.8735,1.8594,2.0361,2.1109,2.1109,2.1109,2.1109,2.1109,2.1109,2.0856,2.0462,1.9024,1.8116,1.7076,1.4362,1.3062,1.2545,1.124,1.0717,1.0717,0.0,0.0,0.0,0.0,0.0,0.0,2.3313,2.4275,2.4983,2.4957,2.4703,2.4623,2.493,2.477,2.4623,2.4596,2.4088,2.3754,2.3728,2.318,2.2846,2.2819,2.2565,2.2271,2.1951,2.0815,2.0107,0.0,1.9225,1.8945,0.0,0.0,0.0,0.0,0.0,0.0,0.0,1.9586,1.9987,2.0267,2.0588,2.0869,2.1109,2.1109,2.1109,2.1109,2.1109,2.1109,2.1109,2.1109,2.1109,2.1109,2.1109,2.1109,2.1109,2.1109,2.1109,2.1109,2.1109,2.1537,2.1991,2.1991,2.2432,2.2873,2.2899,2.2899,2.2899,2.2899,2.2485,2.183,2.0895,2.0601,1.9755,0.0,0.0,0.0,0.0,0.0,0.0,0.9113,0.0,0.0,0.0,0.818,0.0,0.0,0.8052,0.8058,0.8038,0.8201,0.8425,0.8723,1.1012,1.2466,1.3134,1.6743,1.8653,1.8983,2.0451,2.1109,2.1109,2.1109,2.1109,2.1109,2.1109,2.0195,1.8768,1.8512,1.6689,1.3709,1.3456,1.2281,1.0982,1.0717,1.0717,1.0717,0.0,0.0,0.0,0.0,0.0,0.0,0.0,2.4783,2.5144,2.5317,2.509,2.4943,2.5064,2.481,2.4636,2.4636,2.4262,2.4035,2.4035,2.3474,2.314,2.314,2.2846,2.2472,2.1991,2.1349,2.0628,0.0,0.0,0.0,0.0,0.0,0.0,0.0,0.0,1.9132,1.9225,1.9813,2.0134,2.0267,2.0748,2.1002,2.1109,2.1109,2.1109,2.1109,2.1109,2.1109,2.1109,2.1109,2.1109,2.1109,2.1109,2.1109,2.1109,2.1109,2.1109,2.1109,2.1109,2.1537,2.1991,2.1991,2.2432,2.2913,2.31,2.2993,2.2913,2.31,2.2525,2.1884,2.1523,2.0882,2.0156,0.0,0.0,0.0,0.0,0.0,0.0,0.0,0.0,0.9293,0.0,0.8099,0.0,0.0,0.0,0.8038,0.8038,0.8099,0.8309,0.8696,0.0,1.0748,1.1245,1.397,1.5964,1.7217,1.8816,2.0068,2.1109,2.1109,2.1109,2.0982,1.9941,1.9152,1.8372,1.6302,1.4623,1.3193,1.215,1.1372,1.0717,1.0717,1.0717,1.0717,2.1363,0.0,2.2352,0.0,2.3714,2.4249,2.5077,2.5277,2.5384,2.5504,2.5411,2.5277,2.5104,2.489,2.473,2.4649,2.4369,2.4168,2.4075,2.3607,2.3287,2.3193,2.2979,0.0,2.2004,2.1697,2.1015,1.992,2.004,0.0,0.0,0.0,0.0,0.0,1.9332,1.9426,1.9653,2.0147,2.0414,2.0521,2.0935,2.1109,2.1109,2.1109,2.1109,2.1109,2.1109,2.1109,2.1109,2.1109,2.1109,2.1109,2.1109,2.1109,2.1122,2.1216,2.1243,2.1256,2.1336,2.1737,2.2111,2.2111,2.2485,2.2926,2.314,2.302,2.2899,2.3033,2.2552,2.2058,2.1884,2.1176,2.0695,2.0949,0.0,0.0,0.0,0.0,0.0,0.0,0.9588,0.8981,0.8079,0.8038,0.0,0.0,0.0,0.8126,0.8167,0.8133,0.8289,0.0,0.0,0.0,1.0046,1.2282,1.4232,1.5913,1.7731,1.9419,2.1109,2.1109,2.1109,2.0982,1.9291,1.8244,1.7474,1.4493,1.3062,1.2413,1.124,1.0717,1.0717,1.0717,1.0717,1.0717,2.2231,2.2886,2.3581,2.4462,2.5104,2.5491,2.5504,2.5758,2.5838,2.5545,2.5772,2.5732,2.5144,2.5077,2.4957,2.4663,2.4369,2.4075,2.3794,2.3487,2.3193,0.0,0.0,2.2592,2.2004,2.1697,2.1122,2.0227,0.0,0.0,1.8931,0.0,1.9372,1.9399,1.996,2.0214,2.0241,2.0548,2.0842,2.1096,2.1109,2.1109,2.1109,2.1109,2.1109,2.1109,2.1109,2.1109,2.1109,2.1109,2.1109,2.1109,2.1109,2.1109,2.1162,2.1456,2.155,2.1617,2.1897,2.2191,2.2418,2.2418,2.2645,2.2859,2.2859,2.2859,2.2779,2.2485,2.2418,2.2231,2.167,2.155,2.1349,2.0775,0.0,0.0,0.0,0.0,0.0,1.1829,1.1431,1.0601,0.8192,0.8038,0.0,0.0,0.0,0.0,0.0,0.0,0.0,0.8703,0.9293,0.0,1.0046,1.2282,1.4232,1.5913,1.7731,1.9419,2.1109,2.1109,2.1109,2.0982,1.9291,1.7474,1.5784,1.397,1.2281,1.0717,1.0717,1.0717,1.0717,1.0717,1.0717,1.0717,2.2899,2.3354,2.3848,2.4516,2.5117,2.5585,2.5785,2.6066,2.6213,2.6119,2.6026,2.5812,2.5411,2.5197,2.4957,0.0,2.4556,2.4382,0.0,2.3794,2.35,2.3193,2.2979,2.2592,2.2004,2.1897,2.1323,2.0227,0.0,0.0,0.0,2.0,1.996,1.996,2.0147,2.0454,2.0842,2.0935,2.1136,2.139,2.1189,2.1229,2.139,2.1189,2.1363,2.1683,2.1483,2.1416,2.1416,2.1416,2.1269,2.1109,2.1109,2.1109,2.1122,2.1229,2.139,2.1577,2.167,2.2044,2.2418,2.2418,2.2806,2.3126,2.2913,2.2859,2.2832,2.2739,2.2565,2.2298,2.1924,2.1683,2.143,2.1029,2.0537,0.0,0.0,0.0,0.0,1.1529,1.0826,0.9879,0.8165,0.8221,0.0,0.0,0.0,0.0,0.0,0.0,0.0,0.0,0.9442,0.0,1.0202,1.2216,1.3587,1.4101,1.5913,1.7602,1.9419,2.0589,2.0449,1.9279,1.7474,1.5784,1.397,1.2281,1.124,1.0717,1.0717,1.0717,1.0717,1.0717,1.0717,1.0717,2.3233,2.3647,2.4115,2.4703,2.5291,2.5772,2.6079,2.6279,2.6386,2.6386,2.6226,2.5959,2.5558,2.5344,0.0,2.4676,2.4636,2.4516,2.4222,2.4035,2.3754,2.334,2.314,2.2752,2.2164,2.2151,0.0,2.0735,2.0762,2.0681,2.0508,2.0321,2.0294,2.0414,2.0628,2.0935,2.1269,2.1269,2.1443,2.1683,2.139,2.1456,2.1697,2.151,2.167,2.1951,2.1657,2.155,2.1537,2.143,2.1269,2.1122,2.1243,2.1269,2.1296,2.1403,2.1643,2.1897,2.2017,2.2392,2.2726,2.2619,2.3046,2.342,2.3113,2.2953,2.2859,2.2859,2.2619,2.2325,2.2044,2.175,2.1456,2.1162,2.1015,2.0257,1.8414,0.0,0.0,0.0,0.0,0.0,0.0,0.8526,0.871,0.0,0.0,0.0,0.0,0.0,0.0,0.9096,0.9625,1.0053,1.0358,1.1627,1.2676,1.3325,1.5005,1.6818,1.8512,1.8896,1.8896,1.8384,1.5913,1.4362,1.3193,1.1372,1.0717,1.0717,1.0717,1.0717,1.0717,1.0717,1.0717,1.0717,2.3327,2.3848,2.4422,0.0,2.5585,0.0,2.6346,2.6386,2.6386,2.6386,2.6373,2.6146,2.5571,2.5518,2.5277,2.469,0.0,0.0,0.0,2.4209,2.3941,2.3354,2.3327,2.3046,2.2432,2.2418,2.2138,2.155,2.0748,2.0347,2.0321,2.0347,2.0494,2.0788,2.1336,2.159,2.1617,2.159,2.175,2.1991,2.1697,2.1764,2.2017,2.1991,2.2017,2.2004,2.1724,2.1603,2.155,2.1283,2.1162,2.1162,2.1483,2.1577,2.163,2.1911,2.2191,2.2472,2.2752,2.3073,2.326,2.2966,2.334,2.3688,2.3394,2.31,2.2886,2.2859,2.2645,2.2352,2.2044,2.1764,2.147,2.1136,2.0815,2.0307,1.9426,0.0,1.4113,0.0,0.0,0.0,0.854,0.8913,0.9117,0.0,0.0,0.0,0.0,0.0,0.8981,0.9401,0.9849,1.0222,1.0507,1.0781,1.163,1.3325,1.4874,1.656,1.8116,1.656,1.6689,1.7988,1.4754,1.3193,1.2931,1.1372,1.0717,1.0717,1.0717,1.0717,1.0717,1.0717,1.0717,1.0717,0.0,0.0,2.4716,2.5304,2.5718,2.6052,2.6346,2.6386,2.6386,2.6386,2.6199,2.5919,2.5558,2.5518,2.5277,2.469,2.4636,2.4516,2.4222,2.4209,2.3941,2.3354,2.3327,2.3046,2.2432,2.2418,2.2138,2.155,2.1563,2.1456,2.1243,2.147,2.1617,2.1683,2.1817,2.2004,2.2205,2.1977,2.2044,2.2298,2.2004,2.2058,2.2298,2.2071,2.2258,2.2619,2.2325,2.2071,2.1911,2.2058,2.1657,2.1203,2.1724,2.1884,2.1897,2.1964,2.2191,2.2432,2.2498,2.2913,2.3313,2.3233,2.35,2.3688,2.3394,2.3273,2.3153,2.2913,2.2806,2.2592,2.2084,2.1924,2.1643,2.0895,2.0347,1.9706,1.8824,1.6796,1.4811,0.0,1.1502,1.0136,0.9106,0.9198,0.9313,0.0,0.0,0.0,0.9496,0.9537,0.9605,0.9713,1.0154,1.048,1.0663,1.2003,1.2931,1.3325,1.3709,1.4101,1.4623,1.5524,1.5394,1.4493,1.3709,1.2545,1.124,1.085,1.0717,1.0717,1.0717,1.0717,1.0717,1.0717,1.0717,1.0704,2.4115,2.4436,2.4823,2.5411,2.5758,2.6052,2.6346,2.6386,2.6386,2.6386,2.6253,2.6039,2.5745,2.5718,2.5531,2.5077,2.4917,2.4716,2.4422,2.4275,2.4008,2.3554,2.3407,2.31,2.2632,2.2619,2.2405,2.1951,2.1977,2.1911,2.175,2.1911,2.1991,2.1991,2.2124,2.2271,2.2405,2.2245,2.2352,2.2592,2.2298,2.2365,2.2605,2.2445,2.2579,2.2819,2.2525,2.2311,2.2191,2.2218,2.1897,2.159,2.2044,2.2178,2.2205,2.2352,2.2605,2.2832,2.2832,2.3273,2.3754,2.3888,2.3741,2.3554,2.3541,2.342,2.3233,2.2926,2.2752,2.2525,2.2071,2.1884,2.1456,2.0441,2.0013,1.9153,1.7334,1.5713,1.4056,1.229,1.1077,1.0185,0.9566,0.972,0.9774,0.9503,0.9659,0.0,0.9707,0.9971,1.01,1.0032,1.0399,1.0636,1.0717,1.163,1.2157,1.2157,1.2157,1.2545,1.3325,1.3456,1.3456,1.3325,1.2413,1.163,1.0717,1.0717,1.0717,1.0717,1.0717,1.0717,1.0717,1.0717,1.0717,1.0697,2.4275,2.4569,2.4943,2.5491,2.5825,2.6106,2.636,2.6386,2.6386,2.6386,2.6386,2.6279,2.5985,2.5999,2.5879,2.5545,2.5291,2.5024,2.4716,2.4436,2.4142,2.3848,2.3594,2.3313,2.3006,2.2953,2.2766,2.2418,2.2218,2.2098,2.2044,2.2098,2.2124,2.2124,2.2378,2.2485,2.2485,2.2485,2.2632,2.2846,2.2592,2.2632,2.2859,2.2859,2.2859,2.2832,2.2579,2.2458,2.2392,2.2191,2.2058,2.2044,2.2378,2.2458,2.2485,2.2832,2.3153,2.338,2.334,2.3754,2.4262,2.4516,2.4048,2.3567,2.3728,2.3581,2.3313,2.2993,2.2699,2.2378,2.2044,2.175,2.1189,2.0054,1.947,1.8416,1.5803,0.0,1.2739,1.1268,1.031,0.9788,0.991,1.0249,1.027,0.9815,1.0181,1.029,0.9971,1.0297,1.0446,1.0351,1.0588,1.0717,1.0717,1.0717,1.0717,1.0717,1.0717,1.1505,1.28,1.1372,1.1505,1.28,1.1372,1.0717,1.0717,1.0717,1.0717,1.0717,1.0717,1.0717,1.0717,1.0717,1.0717,1.0697,2.4836,2.5184,2.5491,2.5825,2.6132,2.6333,2.6386,2.6386,2.6386,2.6386,2.6386,2.6279,2.5985,2.6172,2.6106,2.5558,2.5478,2.5317,2.5037,2.473,2.4436,2.4155,2.4088,2.3928,2.3634,2.338,2.2979,2.2418,2.2632,2.2592,2.2352,2.2605,2.2726,2.2726,2.2779,2.2792,2.2792,2.2792,2.2819,2.2859,2.2806,2.2819,2.2859,2.2859,2.2859,2.2859,2.2806,2.2632,2.2445,2.2659,2.2392,2.2084,2.2619,2.2619,2.2525,2.3086,2.3474,2.3647,2.3394,2.3754,2.4209,2.4262,2.4356,2.4315,2.3875,2.3728,2.3621,2.3313,2.3006,2.2632,2.2084,2.175,2.1243,2.0321,1.8248,1.6486,1.5731,0.0,1.1558,1.1172,1.0708,1.0365,1.0385,1.0344,1.0378,1.0534,1.0283,1.0249,1.0561,1.0527,1.0541,1.0649,1.0697,1.0717,1.0717,1.0717,1.0717,1.0717,1.0717,1.085,1.1108,1.085,1.085,1.1115,1.085,1.0717,1.0717,1.0717,1.0717,1.0717,1.0717,1.0717,1.0717,1.0717,1.0717,1.0683,2.4783,2.5197,2.5558,2.5692,2.7001,2.8076,2.8076,2.8997,2.9293,2.8232,2.8076,2.7563,2.6356,2.6306,2.6279,2.6012,2.5838,2.5625,2.5331,2.4743,2.4342,2.4209,2.4048,2.3834,2.3541,2.3233,2.2939,2.2659,2.2792,2.2792,2.2659,2.2806,2.2859,2.2859,2.2859,2.2859,2.2859,2.2859,2.2859,2.2859,2.2859,2.2859,2.2859,2.2859,2.2859,2.2859,2.2859,2.2779,2.2672,2.2819,2.2686,2.2498,2.2779,2.2766,2.2739,2.3193,2.3647,2.4008,2.4022,2.4115,2.4235,2.4396,2.4422,2.4329,2.4062,2.4008,2.3875,2.342,2.3207,2.2886,2.2124,2.175,2.0948,1.8922,1.7365,0.0,1.3547,1.223,1.1165,1.0673,1.0517,1.0521,1.0609,1.0555,1.0541,1.0595,1.0405,1.0378,1.0588,1.0527,1.0561,1.0717,1.0717,1.0717,1.0717,1.0717,1.0717,1.0717,1.0717,1.0717,1.0717,1.0717,1.0717,1.0717,1.0717,1.0717,1.0717,1.0717,1.0717,1.0717,1.0717,1.0717,1.0717,1.0717,1.0717,1.0677,2.4823,2.5251,2.5638,2.5705,2.7748,2.9449,2.9449,3.113,3.1743,2.9589,2.9449,2.8686,2.6544,2.6386,2.6386,2.6386,2.6119,2.5865,2.5625,2.4917,2.4449,2.4315,2.4088,2.3834,2.3541,2.3233,2.3046,2.2966,2.2899,2.2859,2.2859,2.2859,2.2859,2.2859,2.2859,2.2859,2.2859,2.2859,2.2859,2.2859,2.2859,2.2859,2.2859,2.2859,2.2859,2.2859,2.2859,2.2859,2.2859,2.2859,2.2859,2.2859,2.2859,2.2859,2.2939,2.3313,2.3848,2.4356,2.4569,2.4476,2.4356,2.4583,2.4476,2.4289,2.4222,2.4155,2.3955,2.3434,2.3273,2.2993,2.2231,2.179,2.0693,1.7935,0.0,1.5042,0.0,1.137,1.0882,1.0136,1.0344,1.0595,1.0711,1.0717,1.067,1.0555,1.0548,1.0548,1.0548,1.0548,1.0602,1.0717,1.0717,1.0717,1.0717,1.0717,1.0717,1.0717,1.0717,1.0717,1.0717,1.0717,1.0717,1.0717,1.0717,1.0717,1.0717,1.0717,1.0717,1.0717,1.0717,1.0717,1.0717,1.0717,1.0717,1.0677,2.5398,2.5705,2.6012,2.6279,2.8033,2.9449,2.9449,3.113,3.1743,2.9589,2.9449,2.8686,2.6544,2.6386,2.6386,2.6386,2.6119,2.5945,2.5932,2.5611,2.517,2.4623,2.4583,2.4436,2.4142,2.3848,2.3567,2.3287,2.3006,2.2859,2.2859,2.2859,2.2859,2.2859,2.2859,2.2859,2.2859,2.2859,2.2859,2.2859,2.2859,2.2859,2.2859,2.2859,2.2859,2.2859,2.2859,2.2859,2.2859,2.2859,2.2859,2.2859,2.2859,2.2859,2.2979,2.3567,2.4155,2.4609,2.4623,2.4623,2.4609,2.4636,2.4623,2.4529,2.4262,2.3995,2.3714,2.3394,2.31,2.2792,2.2445,2.1924,2.0811,1.8536,0.0,0.0,1.2199,1.1034,1.0294,1.0059,1.0439,1.0711,1.0717,1.0717,1.0717,1.0704,1.0704,1.0704,1.0704,1.0704,1.0711,1.0717,1.0717,1.0717,1.0717,1.0717,1.0717,1.0717,1.0717,1.0717,1.0717,1.0717,1.0717,1.0717,1.0717,1.0717,1.0717,1.0717,1.0717,1.0717,1.0717,1.0717,1.0717,1.0717,1.0717,1.0677,2.512,2.5358,2.5651,2.5585,2.8576,3.095,3.095,3.4012,3.5157,3.2033,3.1411,3.0129,2.6946,2.6493,2.6386,2.6386,2.6293,2.6146,2.5972,2.5852,2.5531,2.493,2.4569,2.4315,2.4209,2.3915,2.3714,2.3607,2.33,2.3153,2.314,2.2953,2.2966,2.314,2.2953,2.2979,2.3292,2.2953,2.2859,2.2859,2.2859,2.2859,2.2859,2.2859,2.2859,2.2859,2.2859,2.2859,2.2859,2.2859,2.2993,2.3153,2.3153,2.3273,2.35,2.3915,2.4329,2.4636,2.4636,2.4636,2.4636,2.4636,2.4636,2.4556,2.4262,2.4115,2.3901,2.342,2.3233,2.3006,2.2512,2.1937,2.0683,1.7585,0.0,1.3956,1.1487,1.0601,1.029,1.0317,1.0643,1.0826,1.0731,1.0717,1.0717,1.0717,1.0717,1.0765,1.086,1.0948,1.0955,1.0867,1.086,1.0819,1.0724,1.0717,1.0717,1.0717,1.0717,1.0717,1.0717,1.0717,1.0717,1.0717,1.0717,1.0717,1.0717,1.0717,1.0717,1.0717,1.0717,1.0717,1.0717,1.0717,1.0663,1.0548,2.5093,2.517,2.5478,2.5371,2.9109,3.1993,3.2109,3.5312,3.6588,3.3309,3.2301,3.0575,2.7121,2.664,2.6493,2.64,2.6386,2.6306,2.6106,2.5919,2.5598,2.5104,2.4609,2.4342,2.4342,2.4062,2.3915,2.3915,2.3607,2.3474,2.346,2.3247,2.326,2.346,2.3233,2.322,2.348,2.31,2.2939,2.2859,2.2859,2.2859,2.2873,2.2966,2.2953,2.2873,2.2979,2.2939,2.2859,2.2859,2.3073,2.3327,2.3327,2.3594,2.3941,2.4142,2.4409,2.4609,2.4529,2.4502,2.4516,2.4609,2.4569,2.4422,2.4142,2.3995,2.3794,2.3287,2.318,2.306,2.2632,2.2151,2.0691,1.7071,1.5798,1.4201,1.1048,1.0561,1.0595,1.069,1.0887,1.0955,1.0806,1.0792,1.0772,1.0724,1.0765,1.086,1.1009,1.1063,1.107,1.1016,1.0928,1.0853,1.0792,1.0744,1.0717,1.0717,1.0717,1.0717,1.0717,1.0717,1.0717,1.0717,1.0717,1.0717,1.0717,1.0717,1.0717,1.0717,1.0717,1.0717,1.0717,1.0717,1.0622,1.0473,2.5514,2.5304,2.5598,2.5892,2.926,3.2076,3.2439,3.4498,3.5199,3.3188,3.1321,2.9355,2.7015,2.6827,2.6707,2.6413,2.6386,2.6386,2.6386,2.5838,2.5384,2.509,2.4796,2.4636,2.4636,2.4356,2.4209,2.4209,2.3915,2.3768,2.3768,2.3768,2.3768,2.3768,2.3599,2.3453,2.3493,2.3021,2.2836,2.2859,2.2859,2.2859,2.2899,2.3207,2.314,2.2899,2.322,2.3126,2.2859,2.2859,2.3073,2.3327,2.334,2.3741,2.4209,2.4209,2.4409,2.4569,2.4289,2.4209,2.4275,2.4556,2.4409,2.4128,2.3834,2.3541,2.3233,2.2926,2.2859,2.2859,2.2859,2.2619,2.1136,1.7267,1.6583,1.5231,1.129,1.0975,1.1165,1.1165,1.1165,1.1104,1.0962,1.0948,1.0887,1.0731,1.0867,1.1016,1.1158,1.1029,1.1016,1.1158,1.088,1.0799,1.0948,1.0799,1.0717,1.0717,1.0717,1.0717,1.0717,1.0717,1.0717,1.0717,1.0717,1.0717,1.0717,1.0717,1.0717,1.0717,1.0717,1.0717,1.0717,1.0717,1.0622,1.0473,2.5376,2.501,2.5237,2.5331,2.7725,3.0222,3.1909,3.2877,3.3465,3.3347,3.1417,2.9355,2.7432,2.6947,2.6707,2.6413,2.6386,2.6386,2.6386,2.5838,2.5478,2.5384,2.4903,2.4636,2.4636,2.4556,2.4502,2.4502,2.4222,2.4075,2.4075,2.3861,2.3875,2.4062,2.3692,2.3728,2.4268,2.3267,2.2836,2.2859,2.2859,2.2993,2.3193,2.3287,2.3273,2.3207,2.33,2.3126,2.2859,2.2859,2.3207,2.3714,2.4115,2.4369,2.4502,2.4502,2.4569,2.4569,2.4289,2.4356,2.4436,2.4115,2.3968,2.3821,2.3527,2.3394,2.3233,2.2926,2.2859,2.2859,2.2859,2.2619,2.1129,1.7423,1.6777,1.5325,1.1582,1.1199,1.1287,1.1172,1.126,1.1267,1.1111,1.1009,1.0975,1.1029,1.1172,1.128,1.1321,1.1382,1.1389,1.1321,1.124,1.1165,1.1097,1.0846,1.0717,1.0717,1.0717,1.0717,1.0717,1.0717,1.0717,1.0717,1.0717,1.0717,1.0717,1.0717,1.0717,1.0717,1.0717,1.0717,1.0711,1.0602,1.0466,1.0324,2.5717,2.513,2.5291,2.5411,2.7359,2.923,3.0751,3.1252,3.1681,3.2079,3.036,2.8621,2.7418,2.7108,2.6827,2.6426,2.6386,2.6386,2.6386,2.5945,2.5692,2.5692,2.5237,2.4877,2.4636,2.4636,2.4636,2.4636,2.4462,2.4369,2.4369,2.4195,2.4209,2.4369,2.4037,2.4206,2.4569,2.3311,2.2854,2.2881,2.2913,2.3046,2.334,2.346,2.3434,2.334,2.346,2.3233,2.2859,2.2859,2.326,2.3875,2.4449,2.4636,2.4636,2.4636,2.4636,2.4543,2.4142,2.4155,2.4155,2.3554,2.3674,2.3834,2.342,2.3327,2.3233,2.2926,2.2859,2.2859,2.2859,2.2154,2.0476,1.7475,1.6324,1.4622,1.1671,1.1382,1.145,1.1355,1.1423,1.1396,1.1185,1.1084,1.107,1.1158,1.1246,1.1355,1.1477,1.1511,1.1511,1.1484,1.1362,1.1287,1.1253,1.0962,1.0812,1.0812,1.0751,1.0717,1.0717,1.0717,1.0717,1.0717,1.0717,1.0717,1.0717,1.0717,1.0717,1.0717,1.0656,1.0629,1.0609,1.0466,1.0317,1.0175,2.6199,2.5518,2.5611,2.5905,2.7452,2.8922,2.9389,2.9546,2.97,3.0186,2.8725,2.7522,2.7255,2.7228,2.7001,2.644,2.6386,2.6386,2.6386,2.6119,2.5959,2.5959,2.5678,2.5251,2.469,2.4676,2.4676,2.4676,2.4649,2.4636,2.4636,2.4636,2.4636,2.4636,2.4636,2.4636,2.4512,2.3405,2.2962,2.2981,2.2979,2.3046,2.3354,2.3621,2.3567,2.3367,2.3634,2.3354,2.2859,2.2886,2.3287,2.3875,2.4422,2.4596,2.4596,2.4623,2.4623,2.4476,2.3928,2.3794,2.3661,2.306,2.3554,2.4048,2.342,2.3287,2.3207,2.2926,2.2859,2.2859,2.2859,2.1321,1.9415,1.7389,1.5579,1.3673,1.1705,1.1531,1.1619,1.1619,1.1619,1.1504,1.1212,1.1185,1.1179,1.1165,1.1185,1.1328,1.1606,1.1491,1.1477,1.1613,1.1348,1.1267,1.1389,1.1111,1.0962,1.0948,1.0792,1.0717,1.0717,1.0717,1.0717,1.0717,1.0717,1.0717,1.0717,1.0717,1.0711,1.0683,1.0548,1.0487,1.0453,1.031,1.0168,1.0046,2.6199,2.5518,2.5611,2.5905,2.6411,2.7269,2.9094,2.8133,2.7829,2.9685,2.8221,2.6987,2.6921,2.6921,2.6774,2.6426,2.6386,2.6386,2.6386,2.6119,2.5959,2.5959,2.5678,2.5344,2.4997,2.4983,2.4983,2.4983,2.4756,2.4636,2.4636,2.4636,2.4636,2.4636,2.4636,2.4636,2.4526,2.3731,2.3426,2.33,2.2993,2.3046,2.334,2.3394,2.338,2.334,2.3407,2.318,2.2899,2.2836,2.3306,2.3834,2.4354,2.4302,2.4183,2.4569,2.4476,2.4222,2.3875,2.3941,2.3968,2.3367,2.3714,2.3981,2.3153,2.2966,2.2939,2.2873,2.2859,2.2859,2.2859,2.1321,1.9472,1.7467,1.5671,1.3713,1.1858,1.1599,1.1619,1.1619,1.1619,1.1545,1.1362,1.1341,1.1294,1.1172,1.1382,1.1552,1.1613,1.1586,1.1586,1.1619,1.1552,1.1477,1.1389,1.1206,1.1056,1.0948,1.0792,1.0717,1.0717,1.0717,1.0717,1.0717,1.0717,1.0717,1.0717,1.0717,1.0649,1.0534,1.0507,1.0426,1.031,1.0154,1.008,1.0032,2.6471,2.5932,2.5985,2.6132,2.6159,2.6513,2.7734,2.7162,2.6955,2.8185,2.7565,2.6987,2.6841,2.6947,2.6854,2.6426,2.6386,2.6386,2.6386,2.6253,2.6159,2.6159,2.6012,2.5865,2.5705,2.5438,2.5144,2.4863,2.4716,2.4636,2.4636,2.4636,2.4636,2.4636,2.4636,2.4476,2.434,2.3731,2.3439,2.3147,2.2979,2.3033,2.316,2.3187,2.3327,2.3327,2.334,2.3126,2.2899,2.2915,2.3051,2.3469,2.4282,2.4512,2.4249,2.4276,2.4409,2.4315,2.3888,2.3888,2.3888,2.3447,2.3447,2.3474,2.3153,2.3193,2.322,2.2926,2.2859,2.2859,2.2859,2.0617,1.8369,1.7388,1.4858,1.2745,1.1763,1.1619,1.1619,1.1619,1.1619,1.1531,1.1301,1.1219,1.1179,1.1165,1.1382,1.1545,1.1613,1.1619,1.1619,1.1619,1.1619,1.1545,1.1396,1.124,1.109,1.0948,1.0792,1.0717,1.0717,1.0717,1.0717,1.0717,1.0717,1.0717,1.0717,1.0643,1.0561,1.048,1.0337,1.0236,1.0148,0.9998,0.9937,0.993,2.6702,2.6426,2.64,2.6453,2.6466,2.6466,2.6466,2.6466,2.6547,2.6787,2.7041,2.7081,2.6774,2.6974,2.6921,2.6426,2.6386,2.6386,2.6386,2.6386,2.6386,2.6386,2.6386,2.6373,2.6319,2.5785,2.5277,2.4783,2.469,2.4636,2.4636,2.4636,2.4636,2.4636,2.4636,2.4316,2.4024,2.3718,2.3285,2.2994,2.3033,2.2948,2.3021,2.324,2.3407,2.3394,2.3407,2.3207,2.2966,2.2928,2.2858,2.3067,2.4235,2.4404,2.4223,2.4024,2.4262,2.4315,2.3821,2.3688,2.3634,2.3394,2.314,2.3006,2.3273,2.3474,2.3474,2.2966,2.2859,2.2859,2.2859,1.9773,1.7248,1.7248,1.4014,1.1619,1.1619,1.1619,1.1619,1.1619,1.1572,1.1443,1.1185,1.1056,1.1043,1.1192,1.1341,1.1484,1.1613,1.1619,1.1619,1.1619,1.1592,1.1504,1.1355,1.1199,1.1056,1.0907,1.0778,1.0717,1.0717,1.0717,1.0717,1.0717,1.0717,1.0704,1.067,1.0548,1.046,1.0392,1.0148,1.0032,0.9992,0.9869,0.9822,0.9815,2.6959,2.656,2.6466,2.672,2.676,2.676,2.676,2.676,2.6774,2.6814,2.6854,2.6774,2.648,2.648,2.648,2.64,2.6386,2.6386,2.6386,2.6386,2.6386,2.6386,2.6386,2.6266,2.6026,2.5692,2.5478,2.5398,2.489,2.4636,2.4636,2.4636,2.4636,2.4636,2.4636,2.4476,2.4182,2.3888,2.3607,2.348,2.3287,2.33,2.3507,2.3621,2.3559,2.3545,2.3545,2.3205,2.2955,2.2854,2.2881,2.3113,2.4181,2.3958,2.3232,2.3768,2.3843,2.3641,2.3407,2.338,2.338,2.334,2.33,2.3273,2.3313,2.3153,2.2966,2.2886,2.2859,2.2859,2.2859,1.9773,1.7248,1.7248,1.4014,1.1619,1.1619,1.1619,1.1619,1.1619,1.1389,1.1206,1.1165,1.1145,1.1199,1.1348,1.1504,1.1599,1.1619,1.1619,1.1619,1.1619,1.1491,1.1348,1.1192,1.105,1.09,1.0751,1.0731,1.0717,1.0717,1.0717,1.0717,1.0717,1.0717,1.0643,1.0521,1.05,1.0344,1.0107,1.0066,0.9971,0.9849,0.9829,0.9822,0.9802,2.6679,2.648,2.6426,2.656,2.6587,2.6587,2.6587,2.6587,2.6587,2.6587,2.672,2.6707,2.6426,2.6386,2.6386,2.6386,2.6386,2.6386,2.6386,2.6386,2.6386,2.6386,2.6386,2.6333,2.6199,2.5745,2.5518,2.5518,2.493,2.4636,2.4636,2.4636,2.4636,2.4623,2.4409,2.4356,2.4409,2.3848,2.3407,2.3211,2.3073,2.344,2.4072,2.3883,2.3768,2.3612,2.3287,2.2999,2.2908,2.2908,2.33,2.385,2.3647,2.3253,2.291,2.3313,2.3327,2.324,2.3407,2.3367,2.3327,2.3327,2.3193,2.3113,2.3287,2.3086,2.2859,2.2859,2.2859,2.2859,2.2859,1.9773,1.7248,1.7248,1.4014,1.1619,1.1619,1.1619,1.1619,1.1619,1.1348,1.1199,1.128,1.1294,1.1321,1.1389,1.1531,1.1619,1.1619,1.1619,1.1619,1.1619,1.147,1.1314,1.1165,1.1023,1.0873,1.0717,1.0717,1.0717,1.0717,1.0717,1.0717,1.0717,1.0629,1.0555,1.048,1.031,1.0168,1.0039,0.9958,0.9883,0.9822,0.9822,0.9774,0.9693]}]]